[[{"header":{"parameterUnit":"m.s-1","parameterCategory":1,"la1":30.6,"la2":29.2853,"lo1":-89.7004,"lo2":-87.6739,"dy":0.0162,"dx":0.0183,"nx":112,"ny":82,"refTime":"2025-04-22T06:00:00:Z","depth":0,"parameterNumber":2,"parameterNumberName":"U-component_of_WINDS"},"data":[0.0,0.0,0.0,0.0,0.0,0.0,0.0,0.0,0.0,0.0,0.0,0.0,0.0,0.0,0.0,0.0,0.0,0.0,0.0,0.0,0.0,0.0,0.0,0.0,0.0,0.0,0.0,0.0,0.0,0.0,0.0,0.0,0.0,0.0,0.0,0.0,0.0,0.0,0.0,0.0,0.0,0.0,0.0,0.0,0.0,0.0,0.0,0.0,0.0,0.0,0.0,0.0,0.0,0.0,0.0,0.0,0.0,0.0,0.0,0.0,0.0,0.0,0.0,0.0,0.0,0.0,0.0,0.0,0.0,0.0,0.0,0.0,0.0,0.0,0.0,0.0,0.0,0.0,0.0,0.0,0.0,0.0,0.0,0.0,0.0,0.0,0.0,0.0,0.0,0.0,-2.2729,-2.4864,-2.7206,-2.8567,-2.8486,-2.6838,-2.4252,-2.0695,0.0,0.0,0.0,0.0,0.0,0.0,0.0,0.0,0.0,0.0,0.0,0.0,0.0,0.0,0.0,0.0,0.0,0.0,0.0,0.0,0.0,0.0,0.0,0.0,0.0,0.0,0.0,0.0,0.0,0.0,0.0,0.0,0.0,0.0,0.0,0.0,0.0,0.0,0.0,0.0,0.0,0.0,0.0,0.0,0.0,0.0,0.0,0.0,0.0,0.0,0.0,0.0,0.0,0.0,0.0,0.0,0.0,0.0,0.0,0.0,0.0,0.0,0.0,0.0,0.0,0.0,0.0,0.0,0.0,0.0,0.0,0.0,0.0,0.0,0.0,0.0,0.0,0.0,0.0,0.0,0.0,0.0,0.0,0.0,0.0,0.0,0.0,0.0,0.0,0.0,0.0,0.0,0.0,0.0,0.0,0.0,0.0,0.0,0.0,0.0,0.0,0.0,0.0,0.0,-2.4326,-2.8281,-2.9727,-3.0115,-2.9379,-2.7662,-2.5075,-2.1452,0.0,0.0,0.0,0.0,0.0,0.0,0.0,0.0,0.0,0.0,0.0,0.0,0.0,0.0,0.0,0.0,0.0,0.0,0.0,0.0,0.0,0.0,0.0,0.0,0.0,0.0,0.0,0.0,0.0,0.0,0.0,0.0,0.0,0.0,0.0,0.0,0.0,0.0,0.0,0.0,0.0,0.0,0.0,0.0,0.0,0.0,0.0,0.0,0.0,0.0,0.0,0.0,0.0,0.0,0.0,0.0,0.0,0.0,0.0,0.0,0.0,0.0,0.0,0.0,0.0,0.0,0.0,0.0,0.0,0.0,0.0,0.0,0.0,0.0,0.0,0.0,0.0,0.0,0.0,0.0,0.0,0.0,0.0,0.0,0.0,0.0,0.0,0.0,0.0,0.0,0.0,0.0,0.0,0.0,0.0,0.0,0.0,0.0,0.0,0.0,0.0,0.0,0.0,-2.3798,-2.6242,-2.9194,-3.0247,-3.0194,-2.8852,-2.755,-2.5068,-2.1008,-1.9143,0.0,0.0,0.0,0.0,0.0,0.0,0.0,0.0,0.0,0.0,0.0,0.0,0.0,0.0,0.0,0.0,0.0,0.0,0.0,0.0,0.0,0.0,0.0,0.0,0.0,0.0,0.0,0.0,0.0,0.0,0.0,0.0,0.0,0.0,0.0,0.0,0.0,0.0,0.0,0.0,0.0,0.0,0.0,0.0,0.0,0.0,0.0,0.0,0.0,0.0,0.0,0.0,0.0,0.0,0.0,0.0,0.0,0.0,0.0,0.0,0.0,0.0,0.0,0.0,0.0,0.0,0.0,0.0,0.0,0.0,0.0,0.0,0.0,0.0,0.0,0.0,0.0,0.0,0.0,0.0,0.0,0.0,0.0,0.0,0.0,0.0,0.0,0.0,0.0,0.0,0.0,0.0,0.0,0.0,0.0,0.0,0.0,0.0,0.0,0.0,0.0,0.0,-2.6264,-2.7878,-2.9591,-3.014,-2.9768,-2.8217,-2.6928,-2.4463,-2.0429,-1.9095,0.0,0.0,0.0,0.0,0.0,0.0,0.0,0.0,0.0,0.0,0.0,0.0,0.0,0.0,0.0,0.0,0.0,0.0,0.0,0.0,0.0,0.0,0.0,0.0,0.0,0.0,0.0,0.0,0.0,0.0,0.0,0.0,0.0,0.0,0.0,0.0,0.0,0.0,0.0,0.0,0.0,0.0,0.0,0.0,0.0,0.0,0.0,0.0,0.0,0.0,0.0,0.0,0.0,0.0,0.0,0.0,0.0,0.0,0.0,0.0,0.0,0.0,0.0,0.0,0.0,0.0,0.0,0.0,0.0,0.0,0.0,0.0,0.0,0.0,0.0,0.0,0.0,0.0,0.0,0.0,0.0,0.0,0.0,0.0,0.0,0.0,0.0,0.0,0.0,0.0,0.0,0.0,0.0,0.0,0.0,0.0,0.0,0.0,0.0,0.0,0.0,0.0,-2.7571,-2.8754,-3.0433,-2.9932,-2.9081,-2.8086,-2.5776,-2.3153,-2.0293,-1.8465,0.0,0.0,0.0,0.0,0.0,0.0,0.0,0.0,0.0,0.0,0.0,0.0,0.0,0.0,0.0,0.0,0.0,0.0,0.0,0.0,0.0,0.0,0.0,0.0,0.0,0.0,0.0,0.0,0.0,0.0,0.0,0.0,0.0,0.0,0.0,0.0,0.0,0.0,0.0,0.0,0.0,0.0,0.0,0.0,0.0,0.0,0.0,0.0,0.0,0.0,0.0,0.0,0.0,0.0,0.0,0.0,0.0,0.0,0.0,0.0,0.0,0.0,0.0,0.0,0.0,0.0,0.0,0.0,0.0,0.0,0.0,0.0,0.0,0.0,0.0,0.0,0.0,0.0,0.0,0.0,0.0,0.0,0.0,0.0,0.0,0.0,0.0,0.0,0.0,0.0,0.0,0.0,0.0,0.0,0.0,0.0,0.0,0.0,0.0,0.0,0.0,0.0,-2.814,-2.9438,0.0,-2.9887,-2.897,-2.8078,-2.6111,-2.3565,-2.0302,0.0,0.0,0.0,0.0,0.0,0.0,0.0,0.0,0.0,0.0,0.0,0.0,0.0,0.0,0.0,0.0,0.0,0.0,0.0,0.0,0.0,0.0,0.0,0.0,0.0,0.0,0.0,0.0,0.0,0.0,0.0,0.0,0.0,0.0,0.0,0.0,0.0,0.0,0.0,0.0,0.0,0.0,0.0,0.0,0.0,0.0,0.0,0.0,0.0,0.0,0.0,0.0,0.0,0.0,0.0,0.0,0.0,0.0,0.0,0.0,0.0,0.0,0.0,0.0,0.0,0.0,0.0,0.0,0.0,0.0,0.0,0.0,0.0,0.0,0.0,0.0,0.0,0.0,0.0,0.0,0.0,0.0,0.0,0.0,0.0,0.0,0.0,0.0,0.0,0.0,0.0,0.0,0.0,0.0,0.0,0.0,0.0,0.0,0.0,0.0,0.0,0.0,-2.6848,-2.8345,-2.9505,0.0,-2.9881,-2.8962,-2.8088,-2.6414,-2.4034,-2.0759,0.0,0.0,0.0,0.0,0.0,0.0,0.0,0.0,0.0,0.0,0.0,0.0,0.0,0.0,0.0,0.0,0.0,0.0,0.0,0.0,0.0,0.0,0.0,0.0,0.0,0.0,0.0,0.0,0.0,0.0,0.0,0.0,0.0,0.0,0.0,0.0,0.0,0.0,0.0,0.0,0.0,0.0,0.0,0.0,0.0,0.0,0.0,0.0,0.0,0.0,0.0,0.0,0.0,0.0,0.0,0.0,0.0,0.0,0.0,0.0,0.0,0.0,0.0,0.0,0.0,0.0,0.0,0.0,0.0,0.0,0.0,0.0,0.0,0.0,0.0,0.0,0.0,0.0,0.0,0.0,0.0,0.0,0.0,0.0,0.0,0.0,0.0,0.0,0.0,0.0,0.0,0.0,0.0,0.0,0.0,0.0,0.0,0.0,0.0,0.0,0.0,0.0,-2.7643,-2.8206,-2.8851,-3.0509,-2.9908,-2.9005,-2.8076,-2.6462,-2.4366,0.0,0.0,0.0,0.0,0.0,0.0,0.0,0.0,0.0,0.0,0.0,0.0,0.0,0.0,0.0,0.0,0.0,0.0,0.0,0.0,0.0,0.0,0.0,0.0,0.0,0.0,0.0,0.0,0.0,0.0,0.0,0.0,0.0,0.0,0.0,0.0,0.0,0.0,0.0,0.0,0.0,0.0,0.0,0.0,0.0,0.0,0.0,0.0,0.0,0.0,0.0,0.0,0.0,0.0,0.0,0.0,0.0,0.0,0.0,0.0,0.0,0.0,0.0,0.0,0.0,0.0,0.0,0.0,0.0,0.0,0.0,0.0,0.0,0.0,0.0,0.0,0.0,0.0,0.0,0.0,0.0,0.0,0.0,0.0,0.0,0.0,0.0,0.0,0.0,0.0,0.0,0.0,0.0,0.0,0.0,0.0,0.0,0.0,0.0,0.0,0.0,0.0,0.0,-2.6953,-2.8857,-3.0127,-3.0583,-2.9342,-2.8346,-2.8033,-2.6455,-2.4378,-2.1748,0.0,0.0,0.0,0.0,0.0,0.0,0.0,0.0,0.0,0.0,0.0,0.0,0.0,0.0,0.0,0.0,0.0,0.0,0.0,0.0,0.0,0.0,0.0,0.0,0.0,0.0,0.0,0.0,0.0,0.0,0.0,0.0,0.0,0.0,0.0,0.0,0.0,0.0,0.0,0.0,0.0,0.0,0.0,0.0,0.0,0.0,0.0,0.0,0.0,0.0,0.0,0.0,0.0,0.0,0.0,0.0,0.0,0.0,0.0,0.0,0.0,0.0,0.0,0.0,0.0,0.0,0.0,0.0,0.0,0.0,0.0,0.0,0.0,0.0,0.0,0.0,0.0,0.0,0.0,0.0,0.0,0.0,0.0,0.0,0.0,0.0,0.0,0.0,0.0,0.0,0.0,0.0,0.0,0.0,0.0,0.0,0.0,0.0,0.0,0.0,0.0,0.0,-2.7109,-2.9016,-3.0288,-3.0571,-2.9691,-2.8938,-2.8548,-2.7279,-2.5542,-2.3302,0.0,0.0,0.0,0.0,0.0,0.0,0.0,0.0,0.0,0.0,0.0,0.0,0.0,0.0,0.0,0.0,0.0,0.0,0.0,0.0,0.0,0.0,0.0,0.0,0.0,0.0,0.0,0.0,0.0,0.0,0.0,0.0,0.0,0.0,0.0,0.0,0.0,0.0,0.0,0.0,0.0,0.0,0.0,0.0,0.0,0.0,0.0,0.0,0.0,0.0,0.0,0.0,0.0,0.0,0.0,0.0,0.0,0.0,0.0,0.0,0.0,0.0,0.0,0.0,0.0,0.0,0.0,0.0,0.0,0.0,0.0,0.0,0.0,0.0,0.0,0.0,0.0,0.0,0.0,0.0,0.0,0.0,0.0,0.0,0.0,0.0,0.0,0.0,0.0,0.0,0.0,0.0,0.0,0.0,0.0,0.0,0.0,0.0,0.0,0.0,0.0,0.0,-2.7646,-2.8799,-2.9718,-3.0505,-3.0535,-3.0178,-2.938,-2.8438,-2.7207,-2.5599,0.0,0.0,0.0,0.0,0.0,0.0,0.0,0.0,0.0,0.0,0.0,0.0,0.0,0.0,0.0,0.0,0.0,0.0,0.0,0.0,0.0,0.0,0.0,0.0,0.0,0.0,0.0,0.0,0.0,0.0,0.0,0.0,0.0,0.0,0.0,0.0,0.0,0.0,0.0,0.0,0.0,0.0,0.0,0.0,0.0,0.0,0.0,0.0,0.0,0.0,0.0,0.0,0.0,0.0,0.0,0.0,0.0,0.0,0.0,0.0,-1.9857,0.0,0.0,0.0,0.0,0.0,0.0,0.0,0.0,0.0,0.0,0.0,0.0,0.0,0.0,0.0,0.0,0.0,0.0,0.0,0.0,0.0,0.0,0.0,0.0,0.0,0.0,0.0,0.0,0.0,0.0,0.0,0.0,0.0,0.0,0.0,0.0,0.0,0.0,0.0,0.0,0.0,-2.6833,-2.8434,-2.9707,-3.0511,-3.0028,-2.9559,-2.9315,-2.7923,-2.6601,-2.5568,-2.3698,0.0,0.0,0.0,0.0,0.0,0.0,0.0,0.0,0.0,0.0,0.0,0.0,0.0,0.0,0.0,0.0,0.0,0.0,0.0,0.0,0.0,0.0,0.0,0.0,0.0,0.0,0.0,0.0,0.0,0.0,0.0,0.0,0.0,0.0,0.0,0.0,0.0,0.0,0.0,0.0,0.0,0.0,0.0,0.0,0.0,0.0,0.0,0.0,0.0,0.0,0.0,0.0,0.0,0.0,0.0,0.0,0.0,0.0,0.0,0.0,-2.1094,0.0,0.0,0.0,0.0,0.0,0.0,0.0,0.0,0.0,0.0,0.0,0.0,0.0,0.0,0.0,0.0,0.0,0.0,0.0,0.0,0.0,0.0,0.0,0.0,0.0,0.0,0.0,0.0,0.0,0.0,0.0,0.0,0.0,0.0,0.0,0.0,0.0,0.0,0.0,0.0,-2.7199,-2.8927,-3.0143,-3.0561,-3.0236,-2.9965,-2.9924,-2.8357,-2.7194,-2.6779,-2.471,0.0,0.0,0.0,0.0,0.0,0.0,0.0,0.0,0.0,0.0,0.0,0.0,0.0,0.0,0.0,0.0,0.0,0.0,0.0,0.0,0.0,0.0,0.0,0.0,0.0,0.0,0.0,0.0,0.0,0.0,0.0,0.0,0.0,0.0,0.0,0.0,0.0,0.0,0.0,0.0,0.0,0.0,0.0,0.0,0.0,0.0,0.0,0.0,0.0,0.0,0.0,0.0,0.0,-2.7987,-2.8342,-2.7808,-2.8261,-2.8338,-2.7987,-2.4813,-2.3258,-2.2876,-2.1861,0.0,0.0,0.0,0.0,0.0,0.0,0.0,0.0,0.0,0.0,0.0,0.0,0.0,0.0,0.0,0.0,0.0,0.0,0.0,0.0,0.0,0.0,0.0,0.0,-2.5415,-2.5456,0.0,0.0,0.0,0.0,0.0,0.0,0.0,0.0,0.0,0.0,0.0,0.0,-2.7849,-2.9412,-3.0437,-3.0572,-3.0597,-3.0597,-3.0591,-2.915,-2.8202,-2.8087,-2.5929,-2.3902,0.0,0.0,0.0,0.0,0.0,0.0,0.0,0.0,0.0,0.0,0.0,0.0,0.0,0.0,0.0,0.0,0.0,0.0,0.0,0.0,0.0,0.0,0.0,0.0,0.0,0.0,0.0,0.0,0.0,0.0,0.0,0.0,-2.3448,-2.1242,0.0,0.0,0.0,0.0,0.0,0.0,0.0,0.0,0.0,0.0,0.0,0.0,0.0,-2.788,-2.888,-2.8814,-2.9554,-3.1053,-3.1154,-3.1557,-3.2146,-3.1367,-3.093,-3.0711,-2.9376,0.0,-2.629,-2.557,0.0,0.0,0.0,0.0,0.0,0.0,0.0,0.0,0.0,0.0,0.0,0.0,0.0,0.0,0.0,0.0,0.0,0.0,0.0,0.0,0.0,0.0,-2.5994,-2.5476,-2.7152,-2.8563,0.0,-2.5401,-2.3624,-2.2821,-2.2514,0.0,0.0,0.0,0.0,0.0,0.0,0.0,-2.7786,-2.8861,-2.9769,-3.053,-3.0595,-3.0604,-3.0607,-2.9748,-2.8873,-2.8071,-2.7021,-2.5684,-2.3941,-2.3812,0.0,0.0,0.0,0.0,0.0,0.0,0.0,0.0,0.0,0.0,0.0,0.0,0.0,0.0,0.0,0.0,0.0,0.0,0.0,0.0,0.0,0.0,0.0,0.0,0.0,0.0,0.0,0.0,0.0,-2.4133,-2.5142,-2.4123,-2.3902,-2.3328,0.0,0.0,0.0,0.0,0.0,0.0,0.0,0.0,0.0,-2.8849,-2.9334,-3.018,-3.1471,-3.1499,-3.1859,-3.2571,-3.2491,-3.2615,-3.2933,-3.2415,-3.1881,-3.136,-3.133,-3.032,-2.8582,-2.7226,-2.6191,-2.5359,0.0,0.0,0.0,0.0,-2.7131,-2.7615,-2.8097,-2.7937,0.0,-2.599,0.0,0.0,0.0,0.0,0.0,0.0,0.0,0.0,0.0,0.0,-2.83,-2.8394,-3.0021,-3.1154,-2.9796,-2.8969,-2.7945,0.0,-2.5422,-2.4764,-2.3893,0.0,0.0,0.0,0.0,-2.7272,-2.8568,-2.9495,-3.0186,-3.0563,-3.0573,-3.0568,-3.0601,-2.9838,-2.8952,-2.8055,-2.7245,-2.6022,-2.4265,-2.3762,-2.2495,0.0,0.0,0.0,0.0,0.0,0.0,0.0,0.0,0.0,0.0,0.0,0.0,0.0,0.0,0.0,0.0,0.0,0.0,0.0,0.0,0.0,0.0,0.0,0.0,0.0,0.0,0.0,0.0,-2.5269,-2.6431,-2.6543,-2.601,-2.537,0.0,0.0,0.0,0.0,0.0,0.0,-2.7873,-2.8748,-2.9852,-3.1194,-3.1289,-3.1995,-3.3417,-3.3466,-3.3563,-3.3732,-3.3657,-3.3595,-3.3545,-3.3396,-3.2852,-3.2035,-3.2365,-3.167,-3.0184,-2.8552,-2.7897,-2.7859,-2.739,-2.7816,-2.8834,-2.9767,-3.0271,-3.0582,-3.0992,-3.0689,-2.9952,-2.8814,0.0,-2.6184,-2.4535,0.0,0.0,0.0,0.0,-2.6618,-2.7546,-2.8922,-3.0218,-3.0835,-3.2126,-3.2839,-3.1519,-3.1554,-3.1153,0.0,-2.7847,-2.7146,-2.6482,0.0,0.0,0.0,0.0,-2.8714,-2.9202,-3.0042,-3.0501,-3.0296,-3.0424,-3.0453,-3.0277,-2.9669,-2.8925,-2.8057,-2.7225,-2.5998,-2.4258,-2.3574,-2.2412,-2.0666,0.0,0.0,0.0,0.0,0.0,0.0,0.0,0.0,0.0,0.0,0.0,0.0,0.0,0.0,0.0,0.0,0.0,0.0,0.0,0.0,0.0,0.0,0.0,0.0,0.0,0.0,0.0,0.0,0.0,-2.7509,-2.7433,0.0,0.0,0.0,0.0,-2.8522,-2.9505,-3.04,-3.1296,-3.2185,-3.275,-3.2972,-3.2982,-3.3413,-3.4337,-3.4272,-3.4657,-3.5466,-3.5348,-3.5278,-3.5271,-3.513,-3.4566,-3.3643,-3.2836,-3.1975,-3.1071,-3.0139,-2.9802,-2.9859,-2.9892,-3.056,-3.1594,-3.2488,-3.3374,-3.4016,-3.3164,-3.2804,-3.2436,-3.0733,-2.852,-2.6642,-2.7406,-2.7094,0.0,0.0,-2.8447,-2.9314,-3.0265,-3.1177,-3.1853,-3.1763,-3.2492,-3.3163,-3.3011,-3.2416,-3.137,0.0,-2.9205,-2.9149,-2.904,0.0,-2.8637,-2.7808,-2.9165,-3.0023,-2.9308,-2.9965,-3.0221,-2.9457,-3.0098,-3.0257,-2.9442,-2.9328,-2.8932,-2.8052,-2.7184,-2.5916,-2.4175,-2.4119,-2.3308,-2.1567,-1.9804,0.0,0.0,0.0,0.0,0.0,0.0,0.0,0.0,0.0,0.0,0.0,0.0,0.0,0.0,0.0,0.0,0.0,0.0,0.0,0.0,0.0,0.0,0.0,0.0,0.0,0.0,0.0,0.0,-2.9,-2.8639,0.0,-2.9034,-2.8837,-2.9193,-3.0409,-3.1367,-3.2037,-3.2423,-3.273,-3.3195,-3.3854,-3.388,-3.4287,-3.5154,-3.5182,-3.532,-3.554,-3.5496,-3.5449,-3.5453,-3.5277,-3.444,-3.3123,-3.2678,-3.202,-3.1203,-3.0316,-3.0652,-3.1686,-3.1752,-3.3065,-3.4899,-3.4724,-3.4876,-3.5048,-3.4156,-3.3434,-3.2699,-3.1558,-2.986,-2.8296,-2.8641,-2.857,-2.8442,-2.8834,-2.952,-3.0218,-3.0595,-3.1317,-3.2057,-3.2527,-3.3311,-3.3805,-3.3233,-3.2875,-3.2304,-3.1071,-3.0833,-3.0841,-3.0808,-3.0744,-3.0432,-2.9592,-2.9969,-3.0254,-3.007,-3.0317,-3.0409,-3.0153,-2.9863,-2.9564,-2.9264,-2.8724,-2.8029,-2.7157,-2.68,-2.5856,-2.411,-2.3555,-2.2731,-2.1567,-2.0349,-1.9473,0.0,0.0,0.0,0.0,0.0,0.0,0.0,0.0,0.0,0.0,0.0,0.0,0.0,0.0,0.0,0.0,0.0,0.0,0.0,0.0,0.0,0.0,0.0,0.0,0.0,-2.7684,-2.893,-3.0183,-2.9923,-2.9954,-3.0731,-3.0874,-3.1272,-3.2133,-3.2787,-3.3287,-3.3621,-3.3663,-3.3968,-3.461,-3.4671,-3.4979,-3.556,-3.5631,-3.5614,-3.5509,-3.5509,-3.5475,-3.542,-3.5009,-3.4217,-3.3131,-3.2422,-3.1806,-3.1192,-3.0349,-3.1026,-3.2616,-3.271,-3.4227,-3.6273,-3.5784,-3.5596,-3.5475,-3.457,-3.3859,-3.3256,-3.2718,-3.142,-3.0092,-3.0423,-3.0342,-3.0108,-2.9908,-3.0416,-3.1125,-3.1456,-3.1937,-3.2617,-3.3693,-3.4153,-3.4206,-3.3627,-3.304,-3.253,-3.2204,-3.1642,-3.1305,-3.1596,-3.1847,-3.1711,-3.0906,-3.1002,-3.1108,-3.0934,-3.0644,-3.0389,-3.0173,-2.9854,-2.939,-2.8816,-2.8222,-2.7523,-2.666,-2.6318,-2.5394,-2.3669,-2.3087,-2.2254,-2.1128,-2.0523,-1.9699,-1.8638,0.0,0.0,0.0,0.0,0.0,0.0,0.0,0.0,0.0,0.0,0.0,0.0,0.0,0.0,0.0,0.0,0.0,0.0,0.0,0.0,0.0,0.0,0.0,-2.7997,-2.825,-2.9125,-3.0941,-3.1219,-3.1618,-3.2504,-3.2661,-3.302,-3.3788,-3.3836,-3.4198,-3.5054,-3.516,-3.5218,-3.5285,-3.5422,-3.5496,-3.5515,-3.5586,-3.5586,-3.5532,-3.5551,-3.5496,-3.5308,-3.451,-3.4068,-3.3854,-3.2138,-3.1362,-3.1221,-3.0398,-3.1091,-3.2689,-3.2842,-3.4013,-3.5636,-3.5608,-3.5581,-3.5415,-3.4494,-3.4148,-3.4109,-3.4109,-3.3017,-3.1846,-3.2743,-3.243,-3.1613,-3.0932,-3.1308,-3.2091,-3.2966,-3.3203,-3.3592,-3.5179,-3.4886,-3.4262,-3.4272,-3.2908,-3.1947,-3.2761,-3.1481,-3.0554,-3.1397,-3.2225,-3.2467,-3.1618,-3.2243,0.0,-3.1769,-3.0929,-3.0125,-2.941,-2.9974,-2.9751,-2.8049,-2.7856,-2.7451,-2.6616,-2.5773,-2.4562,-2.2915,-2.2833,-2.2043,-2.0361,-2.0346,-1.9585,-1.8013,0.0,0.0,0.0,0.0,0.0,0.0,0.0,0.0,0.0,0.0,0.0,0.0,0.0,0.0,0.0,0.0,0.0,0.0,0.0,0.0,0.0,-2.679,-2.7856,-2.8231,-2.8895,-2.9574,-3.0183,-3.0364,-3.0974,-3.2387,-3.2537,-3.3162,-3.4636,-3.465,-3.4745,-3.5079,-3.5063,-3.51,-3.5157,-3.5187,-3.5482,-3.608,-3.6102,-3.6127,-3.6165,-3.6796,-3.6802,-3.6217,-3.5312,-3.4898,-3.4775,-3.242,-3.2068,-3.3062,-3.1665,-3.2458,-3.445,-3.3276,-3.4293,-3.6329,-3.5791,-3.5173,-3.4448,-3.3615,-3.2921,-3.2399,-3.2428,-3.1746,-3.0946,-3.1212,-3.112,-3.1013,-3.1456,-3.1694,-3.2024,-3.29,-3.3122,-3.3388,-3.4414,-3.3986,-3.3334,-3.33,-3.241,-3.1501,-3.1065,-3.0532,-3.0645,-3.218,-3.2087,-3.1699,-3.1469,-3.115,0.0,-3.0719,-3.0525,-3.0317,-3.0125,-2.9205,-2.8424,-2.7936,-2.6737,-2.5914,-2.5672,-2.5431,-2.4807,-2.3717,-2.3717,-2.2949,-2.127,-2.1295,-2.1108,0.0,0.0,0.0,0.0,0.0,0.0,0.0,0.0,0.0,0.0,0.0,0.0,0.0,0.0,0.0,0.0,0.0,0.0,0.0,0.0,0.0,0.0,-2.7316,-2.8275,-2.8754,-2.9232,-2.9711,-3.0169,-3.041,-3.1184,-3.2883,-3.3105,-3.3682,-3.4997,-3.5001,-3.4955,-3.5001,-3.4955,-3.4936,-3.4973,-3.5333,-3.5723,-3.6169,-3.6559,-3.6633,-3.6354,-3.6894,-3.6763,-3.604,-3.5147,-3.4741,-3.4649,-3.2726,-3.2449,-3.3244,-3.2302,-3.302,0.0,0.0,0.0,0.0,0.0,-3.5207,-3.4674,-3.4212,-3.3735,-3.3334,-3.3374,-3.2835,-3.2154,-3.2174,-3.2164,-3.2198,-3.2396,-3.2658,-3.3001,-3.3505,-3.363,-3.3856,-3.4648,-3.3875,-3.294,-3.2904,-3.1904,-3.0841,-3.032,-3.0142,0.0,-3.1901,-3.2008,-3.1798,-3.1451,-3.1305,-3.1165,-3.0925,-3.0578,-3.0365,-3.0392,-2.9531,-2.8659,-2.7953,-2.6958,0.0,0.0,0.0,-2.4928,-2.4077,-2.3756,0.0,0.0,0.0,0.0,0.0,0.0,0.0,0.0,-2.0653,-2.0627,0.0,0.0,0.0,0.0,0.0,0.0,0.0,0.0,0.0,0.0,0.0,0.0,0.0,0.0,0.0,0.0,-2.7772,-2.8845,-2.927,-2.9312,-2.9624,-3.0495,-3.0818,-3.1629,-3.3348,-3.3715,-3.4187,-3.5035,-3.5011,-3.504,-3.5162,0.0,0.0,0.0,0.0,-3.6068,-3.6101,-3.6923,-3.7022,-3.6397,-3.6556,-3.6197,-3.5395,-3.4676,-3.4316,-3.42,-3.3091,-3.2665,-3.2788,-3.2702,-3.3173,-3.3974,-3.4218,-3.4736,-3.5332,-3.5332,-3.5275,-3.5205,-3.5194,0.0,0.0,-3.517,-3.4582,-3.3873,-3.3935,-3.3996,-3.3898,-3.3345,-3.3766,-3.4413,-3.4506,-3.454,-3.4726,-3.5436,-3.4282,-3.3026,-3.2903,-3.155,-3.03,-3.0216,-3.0147,-3.0331,-3.1069,-3.1811,-3.2094,-3.1466,-3.1954,-3.2187,-3.161,-3.0816,-3.0328,-3.0392,0.0,0.0,-2.817,-2.7869,-2.7099,-2.5538,-2.5447,-2.5086,-2.4272,-2.3651,-2.3262,-2.3143,-2.3139,-2.317,-2.3246,-2.3249,-2.3287,-2.3373,-2.3187,-2.31,0.0,0.0,0.0,0.0,0.0,0.0,0.0,0.0,0.0,0.0,0.0,0.0,0.0,0.0,0.0,-2.7031,-2.7985,-2.8767,-2.8968,-2.9134,-2.9427,-2.998,-3.0093,-3.0576,-3.1678,-3.2387,-3.3403,-3.4906,-3.4917,-3.5416,-3.6768,-3.5486,-3.4999,-3.5592,-3.5772,-3.6141,-3.673,-3.6951,-3.7032,-3.6963,0.0,0.0,-3.6102,-3.5938,-3.5879,-3.5728,-3.3555,-3.3367,-3.4551,-3.3887,-3.4138,-3.4937,-3.4985,-3.4741,-3.4359,-3.4311,-3.3882,-3.3322,-3.3372,-3.298,-3.2463,-3.2519,-3.195,-3.1235,-3.124,-3.1748,0.0,-3.2891,-3.371,-3.4543,-3.5198,-3.5403,-3.548,-3.5571,-3.4757,-3.375,-3.2973,-3.195,-3.0966,-3.0266,-3.011,-3.0331,-3.1069,-3.0766,-3.0612,-3.1151,-3.0871,-3.0588,-3.0502,-3.0388,-3.0328,-3.0392,-2.9822,-2.9307,-2.8986,-2.7662,-2.6713,-2.637,-2.6357,-2.5986,-2.5181,-2.5672,-2.534,-2.3994,-2.3973,-2.4003,-2.4064,-2.4066,-2.444,-2.5087,-2.3724,-2.3095,0.0,0.0,0.0,0.0,0.0,0.0,0.0,0.0,0.0,0.0,0.0,-2.3325,-2.5045,0.0,-2.7301,-2.7301,-2.8057,-2.8737,-2.8975,-2.9055,-2.9238,-2.9644,-3.0139,-3.0822,-3.1769,-3.2612,-3.3617,-3.4851,-3.485,-3.5169,-3.6,-3.5191,-3.4843,-3.5139,-3.5953,-3.655,-3.6858,-3.7287,-3.7324,-3.7,-3.7167,-3.6673,-3.56,-3.5665,-3.5701,-3.5625,-3.4342,-3.4276,-3.5028,-3.4651,-3.4753,-3.5143,-3.5143,-3.4917,-3.4611,-3.4568,-3.4327,-3.4014,-3.4072,-3.3602,-3.2967,-3.2995,-3.2706,-3.2366,-3.2381,-3.2987,-3.3735,-3.4183,-3.4637,-3.5098,-3.5506,-3.5614,-3.5633,-3.5566,-3.4828,-3.4031,-3.3554,-3.2709,-3.1901,-3.1436,-3.1348,-3.1453,-3.1752,-3.1109,-3.0709,-3.1187,-3.0966,-3.0638,-3.0285,-3.0305,-3.0365,-3.0392,-3.0069,-2.9674,-2.9242,-2.7639,-2.6641,-2.6646,-2.6274,-2.5876,-2.5472,-2.587,-2.5704,-2.4865,-2.4878,-2.4927,-2.4951,-2.4955,-2.517,-2.5578,-2.4734,-2.4358,0.0,0.0,0.0,0.0,0.0,0.0,0.0,-1.9364,-1.975,-2.2459,-2.3199,-2.3968,-2.5971,-2.7029,-2.7585,-2.7585,-2.8158,-2.87,-2.901,-2.9003,-2.9119,-2.9465,-3.0237,-3.1111,-3.204,-3.2929,-3.3838,-3.4841,-3.484,-3.4942,-3.527,-3.4896,-3.4688,-3.4727,-3.6045,-3.6677,-3.6527,-3.7205,-3.725,-3.6638,-3.6145,-3.5543,-3.4879,-3.5172,-3.5218,-3.5066,-3.5001,-3.4992,-3.5001,-3.5066,-3.5084,-3.5092,-3.5092,-3.5082,-3.5043,-3.4899,-3.4772,-3.4688,-3.4776,-3.4417,-3.391,-3.3949,-3.3943,-3.3949,-3.4006,-3.4604,-3.5264,-3.5303,-3.545,-3.5598,-3.5591,-3.5591,-3.5585,-3.5528,-3.4911,-3.4311,-3.4108,-3.3486,-3.2882,-3.2661,-3.2602,-3.2629,-3.2659,-3.1864,-3.1235,-3.1265,-3.1207,-3.0947,-3.0363,-3.0355,-3.0408,-3.0428,-3.0476,-3.01,-2.9065,-2.7735,-2.6804,-2.6476,-2.6004,-2.5662,-2.5515,-2.5639,-2.5666,-2.5495,-2.555,-2.5577,-2.5573,-2.559,-2.5604,-2.56,-2.5603,-2.5595,-1.4323,-1.4961,-1.5988,-1.6443,-1.7553,-1.8939,0.0,-2.0924,-2.1725,-2.4347,-2.5343,-2.61,-2.7366,-2.7977,-2.8293,-2.8293,-2.8399,-2.8625,-2.8875,-2.8917,-2.906,-2.9444,-2.9692,-3.0189,-3.1062,-3.1949,-3.3138,-3.4784,-3.4788,-3.5388,-3.6939,-3.5431,-3.4851,-3.5537,-3.5742,-3.5752,-3.5564,-3.5825,-3.5885,-3.5752,-3.5904,-3.5591,-3.4838,-3.5703,-3.5647,-3.4927,-3.4917,-3.4945,-3.5001,-3.5011,-3.5057,-3.5092,-3.5092,-3.5029,-3.4841,-3.4185,-3.3462,-3.2822,-3.2962,-3.2935,-3.2884,-3.3011,-3.3044,-3.3044,-3.305,-3.3653,-3.4334,-3.4268,-3.4912,-3.5591,-3.5522,-3.5554,-3.5579,-3.5527,-3.5364,-3.5026,-3.4186,-3.393,-3.3616,-3.2756,-3.2607,-3.282,-3.3523,-3.2325,-3.1263,-3.1214,-3.0658,-3.0254,-3.0305,-3.0352,-3.0409,-3.0481,-3.0554,-2.9926,-2.827,-2.7961,-2.7193,-2.5648,-2.6193,-2.6249,-2.553,-2.6196,-2.6231,-2.5515,-2.5503,-2.5517,-2.5502,-2.557,-2.5604,-2.5607,-2.5599,-2.5595,-1.5665,-1.6398,-1.7333,-1.8064,-1.9374,-2.0684,-2.132,-2.1881,-2.281,-2.4644,-2.5362,-2.6032,-2.7332,-2.7855,-2.8128,-2.8205,-2.834,-2.8497,-2.8644,-2.8767,-2.8945,-2.9225,-2.9797,-3.0548,-3.1534,-3.2457,-3.3485,-3.4684,-3.4737,-3.5028,-3.5746,-3.5042,-3.4741,-3.5061,-3.5536,-3.5752,-3.5577,-3.5668,-3.5691,-3.5649,-3.5334,-3.5057,-3.4817,-3.5248,-3.523,-3.4908,-3.4908,-3.5202,-3.5666,-3.5229,-3.5341,-3.5759,-3.5328,-3.5129,-3.5037,-3.4685,-3.4289,-3.392,-3.4088,-3.3818,-3.341,-3.3508,-3.3542,-3.3549,-3.3597,-3.418,-3.4839,-3.4848,-3.5159,-3.5482,-3.5508,-3.5521,-3.5515,-3.546,-3.5379,-3.522,-3.4841,-3.4725,-3.4571,-3.4192,-3.411,-3.3903,-3.3212,-3.2529,-3.174,-3.0765,-3.0359,-3.02,-3.0286,-3.0365,-3.0439,-3.0491,-3.0535,-3.0052,-2.8854,-2.8294,-2.7468,-2.6232,-2.606,-2.5848,-2.5515,-2.5812,-2.5839,-2.552,-2.5501,-2.5505,-2.5495,-2.5577,-2.5583,-2.5535,-2.557,-2.5601,-1.659,-1.7394,-1.8236,-1.9231,-2.047,-2.1544,-2.1921,-2.2481,-2.3333,-2.4723,-2.5143,-2.5662,-2.6992,-2.7387,-2.7611,-2.7961,-2.8356,-2.8573,-2.8463,-2.8788,-2.9028,-2.8994,-2.983,-3.0824,-3.1835,-3.2841,-3.3769,-3.463,-3.4676,-3.4676,-3.4687,-3.4666,-3.4623,-3.4561,-3.5169,-3.5424,-3.5299,-3.5366,-3.539,-3.5356,-3.4905,-3.4718,-3.4838,-3.4888,-3.4908,-3.4908,-3.4908,-3.5277,-3.5828,-3.5295,-3.5445,-3.5948,-3.5384,-3.5191,-3.52,-3.5147,-3.5038,-3.4983,-3.5147,-3.4797,-3.4268,-3.4308,-3.4324,-3.4332,-3.4389,-3.4829,-3.53,-3.5361,-3.5364,-3.5379,-3.5427,-3.5434,-3.542,-3.5383,-3.5335,-3.5285,-3.5277,-3.5226,-3.5201,-3.5193,-3.5196,-3.4721,-3.3225,-3.2762,-3.2168,-3.0765,-3.036,-3.0247,-3.0311,-3.0396,-3.0444,-3.0491,-3.053,-3.0105,-2.9028,-2.8385,-2.7559,-2.6406,-2.582,-2.5491,-2.5495,-2.5494,-2.5505,-2.5505,-2.5492,-2.5492,-2.5505,-2.5544,-2.5664,-2.5855,-2.567,-2.5735,-1.6532,-1.7393,-1.8219,-1.9167,-1.9979,-2.09,-2.2261,-2.2648,-2.3206,-2.492,-2.519,-2.5464,-2.6605,-2.6671,-2.6812,-2.7666,-2.8581,-2.897,-2.8394,-2.908,-2.9424,-2.8785,-2.9606,-3.0539,-3.1433,-3.2548,-3.3623,-3.462,-3.4645,-3.4634,-3.4706,-3.4591,-3.4506,-3.4506,-3.4469,-3.44,-3.4342,-3.4532,-3.4588,-3.4544,-3.4787,-3.4887,-3.4897,-3.4908,-3.4908,-3.4908,-3.4908,-3.4955,-3.5039,-3.5001,-3.5094,-3.521,-3.5129,-3.5138,-3.52,-3.52,-3.5147,-3.5092,-3.5183,-3.5181,-3.5151,-3.5155,-3.5171,-3.5171,-3.5171,-3.5242,-3.5312,-3.5293,-3.5304,-3.5289,-3.5315,-3.5315,-3.53,-3.53,-3.5293,-3.5277,-3.5218,-3.5209,-3.5193,-3.5189,-3.5196,-3.4907,-3.4026,-3.3211,-3.242,-3.1592,-3.0803,-3.0311,-3.0392,-3.0461,-3.049,-3.0491,-3.0559,-2.9907,-2.8183,-2.8068,-2.7341,-2.556,-2.548,-2.5499,-2.5495,-2.5499,-2.5499,-2.5499,-2.5505,-2.5505,-2.5499,-2.5505,-2.5932,-2.6748,-2.5968,-2.6055,-1.6653,-1.7424,-1.817,-1.9149,-2.022,-2.1162,-2.1626,-2.2183,-2.2801,-2.361,-2.3845,-2.4278,-2.5514,-2.5936,-2.655,-2.7971,-2.8684,-2.9012,-2.8852,-2.9187,-2.9426,-2.9375,-3.0163,-3.1146,-3.2194,0.0,0.0,-3.4439,-3.4561,-3.4612,-3.4634,-3.4583,-3.478,-3.5219,-3.5215,-3.5203,-3.516,-3.5238,-3.5072,-3.4697,-3.484,-3.4907,-3.4897,-3.4888,-3.4878,-3.483,-3.483,-3.5142,-3.5616,-3.5097,-3.5268,-3.5808,-3.5248,-3.5075,-3.5138,-3.5138,-3.5129,-3.512,-3.5183,-3.5164,-3.5138,-3.5136,-3.5136,-3.5145,-3.5198,-3.5215,-3.5239,-3.5296,-3.53,-3.5297,-3.53,-3.5308,-3.5308,-3.5293,-3.5308,-3.5285,-3.5269,-3.522,-3.5206,-3.5204,-3.4737,-3.4061,-3.3249,-3.2443,-3.1632,-3.0822,-3.0478,-3.0323,-3.0398,-3.0421,-3.0431,-3.0439,-2.9973,-2.9192,-2.8025,-2.7473,-2.6655,-2.5479,-2.5453,-2.5491,-2.5495,-2.5494,-2.5494,-2.5499,-2.5506,-2.5751,-2.6308,-2.6335,-2.6792,-2.7598,-2.7319,-2.7372,-1.6984,-1.774,-1.8502,-1.9519,-2.032,-2.096,-2.1263,-2.1716,-2.2232,-2.2783,-2.2856,-2.3266,-2.4777,-2.521,-2.5884,-2.755,-2.863,-2.9193,-2.9019,-2.9594,-3.005,-3.0024,-3.0834,-3.1715,-3.254,-3.3161,0.0,-3.4348,-3.4484,-3.4539,-3.4602,-3.455,-3.4727,-3.5159,-3.5106,-3.5082,-3.5106,-3.5154,-3.5061,-3.4798,-3.484,-3.4859,-3.4868,-3.4868,-3.4848,-3.4798,-3.4798,-3.51,-3.5534,-3.5018,-3.5162,-3.5646,-3.5126,-3.4974,-3.5066,-3.5048,-3.5038,-3.5075,-3.5138,-3.5138,-3.5092,-3.5092,-3.5092,-3.5101,-3.5183,-3.5191,-3.5172,-3.5245,-3.5253,-3.5253,-3.5258,-3.5266,-3.5266,-3.5262,-3.5266,-3.5269,-3.5285,-3.5256,-3.5111,-3.4759,-3.4522,-3.3903,-3.2443,-3.1546,-3.087,-3.0375,-3.0305,-3.0316,-3.0379,-3.0404,-3.0396,-3.0392,-2.9935,-2.9151,-2.8,-2.745,-2.6653,-2.5466,-2.5468,-2.5507,-2.5507,-2.5503,-2.5483,-2.5457,-2.5457,-2.5874,-2.6704,-2.6749,-2.7357,-2.8455,-2.8143,-2.8206,-1.7468,-1.8275,-1.9122,-2.0104,-2.0204,-2.0303,-2.1129,-2.1281,-2.15,-2.2394,-2.2181,-2.2413,-2.4338,-2.4464,-2.484,-2.6521,-2.8389,-2.9448,-2.8928,-3.029,-3.1164,-3.0724,-3.1495,-3.2216,-3.2519,-3.3408,0.0,-3.4351,0.0,-3.4461,-3.4572,-3.4473,-3.4404,-3.4449,-3.4271,-3.4179,-3.4241,-3.4347,-3.4528,-3.4778,-3.4788,-3.4788,-3.4788,-3.4788,-3.4788,-3.4778,-3.4778,-3.4778,-3.4778,-3.4778,-3.4771,-3.4792,-3.479,-3.4859,-3.4983,-3.4917,-3.4936,-3.5001,-3.5066,-3.5084,-3.5084,-3.5084,-3.5084,-3.5092,-3.5183,-3.5147,-3.511,-3.5176,-3.5187,-3.52,-3.52,-3.52,-3.5189,-3.5193,-3.5182,-3.5209,-3.5277,-3.5253,-3.4928,-3.3987,-3.445,-3.4219,-3.1743,-3.0691,-3.0227,-3.0286,-3.0305,-3.0316,-3.0379,-3.0404,-3.0396,-3.0386,-3.0353,-2.966,-2.8033,-2.7923,-2.7204,-2.5507,-2.5468,-2.5488,-2.5488,-2.5488,-2.5476,-2.5455,-2.5451,-2.5906,-2.6814,-2.6813,-2.7685,-2.9336,-2.8507,-2.8605,-1.7408,-1.8058,-1.8811,-1.9369,-1.9697,-1.9985,-2.0365,-2.0375,-2.0454,-2.0891,-2.0919,-2.1299,-2.275,-2.3605,-2.4629,-2.6354,-2.7826,-2.8949,-2.9525,-3.0039,-3.0633,-3.1332,-3.1685,-3.2223,-3.3103,-3.3454,-3.3766,0.0,-3.4328,-3.4473,-3.4461,-3.4427,-3.4572,-3.4975,-3.496,-3.4934,-3.4942,-3.4586,-3.4461,-3.4591,-3.4676,-3.4737,-3.4737,-3.4737,-3.4666,-3.4591,-3.4591,-3.4539,-3.4506,-3.4506,-3.4561,-3.4647,-3.4655,-3.4728,-3.4849,-3.4839,-3.4868,-3.4926,-3.4888,-3.4879,-3.487,-3.4927,-3.4955,-3.4965,-3.503,-3.5029,-3.5038,-3.511,-3.5138,-3.5129,-3.5129,-3.5129,-3.5119,-3.5124,-3.5134,-3.5117,-3.5149,-3.5143,-3.488,-3.4039,-3.3061,-3.2176,-3.1568,-3.0748,-3.0215,-3.0286,-3.0298,-3.0316,-3.0379,-3.0367,-3.0322,-3.0328,-2.979,-2.9002,-2.7926,-2.7345,-2.6553,-2.5468,-2.5412,-2.5429,-2.5429,-2.5432,-2.5695,-2.6285,-2.6294,-2.701,-2.8494,-2.8442,-2.8997,-3.0103,-2.9885,-2.9935,-1.7658,-1.8431,-1.9273,-1.9316,-1.9719,-2.0085,-1.9985,-1.9695,-1.9498,-1.9742,-1.9596,-1.992,-2.1454,-2.2639,-2.3951,-2.5665,-2.7539,-2.899,-2.959,-3.04,-3.1211,-3.1994,-3.2175,-3.2555,-3.3371,-3.3481,-3.3633,0.0,-3.4136,-3.4257,-3.4305,-3.4257,-3.434,-3.4629,-3.4589,-3.4634,-3.4707,-3.4408,-3.4328,-3.4461,-3.4528,-3.4561,-3.4561,-3.4561,-3.4506,-3.4397,0.0,-3.4427,-3.4351,-3.4393,-3.445,-3.4555,-3.497,-3.4961,-3.4764,-3.5143,-3.508,-3.4817,-3.4768,-3.4739,-3.474,-3.4819,-3.4877,-3.4907,-3.4946,-3.4955,-3.4983,-3.5075,-3.5075,-3.5066,-3.5066,-3.5029,-3.5029,-3.51,-3.5073,-3.5065,-3.5132,-3.5117,-3.4854,-3.4023,-3.2538,-3.1419,-3.1496,-3.0769,-3.0215,-3.0298,-3.0304,-3.031,-3.0348,-3.0348,-3.0342,-3.031,-2.9913,-2.9169,-2.7959,-2.7459,-2.6704,-2.5474,-2.5395,-2.5563,-2.5949,-2.5942,-2.6309,-2.7119,-2.7127,-2.7752,-2.9008,-2.9032,-2.9504,-3.0367,-3.0394,-3.0422,-1.8157,-1.9099,-1.9957,-1.9649,-2.0,-2.0294,-1.9759,-1.9109,-1.8672,-1.8753,-1.8383,-1.8593,-2.0366,-2.165,-2.2981,-2.4663,-2.7197,-2.9058,-2.9368,-3.0837,-3.2092,-3.2505,-3.269,-3.2932,-3.3375,-3.3452,-3.3545,-3.3802,-3.3829,-3.3921,-3.4136,-3.4036,-3.3947,-3.3868,-3.3834,-3.3881,-3.4074,-3.4086,-3.4185,-3.4363,-3.4374,-3.4386,-3.4386,-3.4386,-3.434,-3.4293,-3.434,0.0,-3.4269,-3.4328,-3.4381,-3.4468,-3.5415,-3.536,-3.4854,-3.5735,-3.5542,-3.4846,-3.4846,-3.4739,-3.4623,-3.4747,-3.4809,-3.4877,-3.4898,-3.4898,-3.4908,-3.5039,-3.5039,-3.4992,-3.4983,-3.4936,-3.4927,-3.5057,-3.502,-3.5029,-3.5143,-3.5041,-3.4712,-3.3959,-3.2523,-3.1431,-3.1496,-3.0783,-3.0228,-3.0298,-3.0304,-3.0304,-3.0292,-3.0361,-3.0367,-3.0304,-3.0342,-2.9744,-2.8192,-2.7969,-2.7233,-2.5659,-2.5446,-2.5763,-2.6646,-2.6622,-2.7019,-2.7933,-2.7952,-2.8312,-2.907,-2.9181,-2.9589,-3.0292,-3.0352,-3.0375,-1.9047,-1.9418,-1.9747,-1.9943,-2.0041,-1.9851,-1.8936,-1.8534,-1.8214,-1.7636,-1.7677,-1.8214,-1.9353,-2.0639,-2.2085,-2.3836,-2.5832,-2.7675,-2.9179,-3.0282,-3.1306,-3.2335,-3.2557,-3.2721,-3.2979,-3.3101,-3.3271,0.0,-3.3495,-3.3605,-3.3873,-3.386,-3.3788,-3.3739,-3.378,-3.3842,-3.3934,-3.3985,-3.4086,-3.4233,-3.4293,-3.434,-3.4404,-3.434,-3.4281,-3.4209,-3.4173,0.0,-3.4061,-3.4124,-3.4185,-3.4338,-3.5333,-3.5624,-3.561,-3.655,-3.634,-3.5615,-3.5608,-3.5169,-3.4623,-3.4687,-3.4687,-3.4676,-3.4849,-3.4859,-3.4839,-3.4917,-3.4936,-3.4917,-3.4907,-3.4908,-3.4917,-3.4927,-3.4927,-3.4927,-3.4955,-3.4459,-3.3997,-3.3906,-3.2585,-3.1496,-3.1569,-3.0861,-3.0292,-3.0304,-3.0304,-3.0286,-3.0221,-3.0273,-3.0298,-3.0305,-3.0311,-2.9926,-2.8966,-2.8285,-2.7474,-2.6458,-2.5726,-2.5673,-2.6493,-2.6575,-2.7261,-2.8676,-2.8708,-2.9129,-2.9975,-2.9942,-3.002,-3.0215,-3.0299,-3.0299,-1.9719,-2.0083,-2.0175,-1.9733,-1.9996,-1.9953,-1.8429,-1.7864,-1.7495,-1.681,-1.6671,-1.7089,-1.8468,-1.9814,-2.1419,-2.3506,-2.5481,-2.7352,-2.9093,-3.0143,-3.1115,-3.2162,-3.2439,-3.264,-3.2884,-3.2995,-3.3104,-3.3226,-3.3241,-3.336,-3.3633,-3.3671,-3.3698,-3.3698,-3.3766,-3.3842,-3.3947,-3.3985,-3.4049,-3.4148,-3.4185,-3.4209,-3.4245,-3.4173,-3.4124,-3.4099,-3.4023,0.0,-3.3947,-3.4023,-3.4086,-3.4253,-3.5261,-3.5645,-3.5751,-3.6669,-3.6742,-3.6318,-3.5902,-3.5502,-3.5106,-3.4711,-3.4602,-3.4623,-3.4758,-3.4809,-3.4848,-3.4817,-3.4849,-3.4889,-3.4849,-3.4868,-3.4898,-3.4898,-3.4927,-3.4945,-3.4945,-3.4381,-3.3726,-3.3304,-3.229,-3.1374,-3.0988,-3.0554,-3.026,-3.0279,-3.0273,-3.0235,-3.0195,-3.0221,-3.0241,-3.0241,-3.0273,-2.9953,-2.9122,-2.8685,-2.8121,-2.7289,-2.6823,-2.6965,-2.7767,-2.7801,-2.8339,-2.9499,-2.951,-2.9706,-3.0042,-3.0087,-3.013,-3.0206,-3.0221,-3.0227,-2.0069,-2.0446,-2.0436,-1.9586,-1.9789,-1.9705,-1.7889,-1.7135,-1.6675,-1.6059,-1.5724,-1.607,-1.7807,-1.909,-2.0677,-2.3162,-2.5196,-2.708,-2.8801,-2.9952,-3.1026,-3.2056,-3.2318,-3.254,-3.282,-3.2916,0.0,-3.307,-3.3119,-3.3226,-3.3452,-3.3534,-3.3605,-3.3675,-3.3753,-3.3873,-3.3972,-3.4011,-3.4061,-3.4124,-3.4111,-3.4099,-3.4099,-3.4023,-3.3985,-3.3972,-3.3908,0.0,0.0,-3.3947,-3.3998,-3.416,-3.5355,-3.5833,-3.5944,-3.7019,-3.7306,-3.7051,-3.6416,-3.598,-3.5569,-3.4936,-3.4656,-3.4591,-3.4666,-3.4758,-3.4788,-3.4697,-3.478,-3.485,-3.4788,-3.4838,-3.4907,-3.4908,-3.4946,-3.4974,-3.5001,-3.4407,-3.3628,-3.2762,-3.1989,-3.1245,-3.042,-3.026,-3.0221,-3.0267,-3.0221,-3.0194,-3.018,-3.0187,-3.0187,-3.0187,-3.026,-3.0018,-2.9315,-2.9104,-2.8715,-2.8076,-2.786,-2.8096,-2.8906,-2.8891,-2.9244,-3.0076,-3.0095,-3.0053,-2.9961,-3.0072,-3.0157,-3.0199,-3.02,-3.0207,-1.9897,-1.993,-1.9833,-1.9899,-1.9218,-1.821,-1.6978,-1.6344,-1.5817,-1.5161,-1.519,-1.5859,-1.7603,-1.8423,-1.9712,-2.236,-2.4265,-2.6084,-2.7964,-2.9486,-3.0865,-3.1968,-3.2179,-3.2336,-3.2606,-3.2786,-3.2932,-3.2995,-3.3168,-3.3292,-3.3325,-3.3437,-3.3506,-3.3524,-3.3698,-3.3847,-3.3908,-3.4036,-3.4124,-3.4185,-3.4136,-3.4099,-3.4099,-3.3972,-3.3908,-3.3908,-3.3847,0.0,0.0,-3.3873,-3.3868,-3.4007,-3.5871,-3.6549,-3.6708,-3.8518,-3.8624,-3.7888,-3.7813,-3.6839,-3.559,-3.5528,-3.5004,-3.4461,-3.4645,-3.4623,-3.4539,-3.4602,-3.4697,-3.4788,-3.4655,-3.4758,-3.4897,-3.4897,-3.4907,-3.4936,-3.4983,-3.4381,-3.3568,-3.2754,-3.1992,-3.1228,-3.0367,-3.0241,-3.0266,-3.0213,-3.0199,-3.019,-3.0125,-3.0113,-3.0116,-3.0116,-3.0226,-3.0235,-3.0106,-2.9417,-2.8931,-2.8814,-2.801,-2.7899,-2.8681,-2.8711,-2.9144,-3.0076,-3.0095,-3.0121,-3.0168,-3.0173,-3.0199,-3.0207,-3.0207,-3.0194,-1.9897,-1.9778,-1.9542,-1.9341,-1.8693,-1.781,-1.6682,-1.612,-1.5712,-1.5198,-1.5268,-1.5965,-1.776,-1.8483,-1.982,-2.2867,-2.4083,-2.5597,-2.8321,-2.9243,-3.0207,-3.1791,-3.2073,-3.2266,-3.2573,0.0,-3.293,-3.3057,-3.3135,-3.3214,-3.331,-3.3422,-3.3509,-3.3509,-3.3619,-3.3726,-3.3829,-3.3934,-3.3998,-3.4023,-3.4036,-3.4023,-3.3972,-3.3881,-3.3855,-3.3895,-3.3793,0.0,0.0,-3.382,-3.4173,-3.4733,-3.5573,-3.6478,-3.7409,-3.8213,-3.8556,-3.8584,-3.8101,-3.7525,-3.6905,-3.646,-3.5789,-3.5053,-3.4634,-3.4506,-3.4495,-3.442,-3.4594,-3.4758,-3.4591,-3.4727,-3.4897,-3.4897,-3.4898,-3.4917,-3.4983,-3.3956,-3.2936,-3.2654,-3.155,-3.055,-3.0202,-3.0164,-3.0164,-3.013,-3.0113,-3.0083,-3.0095,-3.0061,-3.0068,-3.0091,-3.0157,-3.0145,-3.0087,-2.9752,-2.9509,-2.945,-2.9085,-2.9047,-2.9409,-2.9428,-2.9588,-2.9972,-3.0022,-3.0026,-3.0023,-3.0106,-3.0135,-3.0145,-3.0173,-3.0199,-1.9625,-1.9418,-1.9104,-1.8859,-1.8092,-1.7191,-1.6487,-1.5892,-1.5405,-1.5171,-1.5298,-1.601,-1.7822,-1.8544,-1.9866,-2.2965,-2.39,-2.5295,-2.8337,-2.9004,-2.9864,-3.1649,-3.2037,-3.2266,-3.2523,-3.2968,-3.3321,-3.3445,-3.3458,-3.3522,-3.3589,-3.3508,-3.3452,-3.3466,-3.3549,-3.3643,-3.378,-3.3873,-3.3908,-3.3934,-3.3959,-3.3947,-3.3895,-3.3815,-3.3802,-3.3847,-3.3739,0.0,0.0,-3.3739,-3.4261,-3.5119,-3.5522,-3.6532,-3.7799,-3.809,-3.8563,-3.8948,-3.8136,-3.7678,-3.7357,-3.6593,-3.5801,-3.5045,-3.4479,-3.4351,-3.4386,-3.434,-3.4517,-3.4687,-3.4591,-3.4676,-3.4827,-3.4848,-3.484,-3.486,-3.4945,-3.3654,-3.2495,-3.2572,-3.1256,-3.0083,-3.0072,-3.0083,-3.0095,-3.0061,-3.003,-3.0014,-3.0041,-3.0014,-3.0014,-3.0041,-3.0011,-2.9996,-2.9975,-2.9943,-2.9849,-2.9746,-2.9728,-2.9727,-2.9753,-2.9725,-2.9751,-2.9839,-2.9899,-2.9932,-2.9956,-3.0046,-3.0091,-3.0101,-3.015,-3.019,-1.8946,-1.8665,-1.846,-1.8743,-1.7362,-1.6018,-1.6322,-1.5508,-1.4746,-1.4871,-1.5117,-1.5874,-1.776,-1.8438,-1.9586,-2.2278,-2.3616,-2.5159,-2.7657,-2.8819,-2.9988,-3.161,-3.2091,-3.2318,-3.2388,-3.3418,-3.4145,-3.4271,-3.4348,0.0,-3.4287,-3.3661,-3.3322,-3.3393,-3.352,-3.3629,-3.3698,-3.3829,-3.3934,-3.3998,-3.3934,-3.3895,-3.3895,-3.3815,-3.3766,-3.3698,0.0,0.0,0.0,-3.3577,-3.4075,-3.4907,-3.5889,-3.6877,-3.7802,-3.8596,-3.8935,-3.8868,-3.8001,-3.7193,-3.638,-3.5581,-3.4783,-3.4099,-3.4111,-3.4148,-3.4233,-3.4351,-3.445,-3.4528,-3.4666,-3.4655,-3.4623,-3.4676,-3.4697,-3.4739,-3.4879,-3.3581,-3.2433,-3.2564,-3.1256,-3.008,-3.0014,-3.0065,-3.0057,-2.9929,-2.9959,-2.9975,-2.9912,-2.9959,-2.9975,-2.9912,-2.9842,-2.9825,-2.9904,-2.9904,-2.9799,-2.9617,-2.954,-2.9472,-2.9412,-2.9353,-2.9435,-2.9708,-2.9689,-2.983,-3.0095,-3.0095,-3.0091,-3.0101,-3.0091,-3.014,-1.8018,-1.7489,-1.6961,-1.7169,-1.6083,-1.5042,-1.5484,-1.502,-1.459,-1.4904,-1.5148,-1.5859,-1.7697,-1.8392,-1.9699,-2.2818,-2.3785,-2.5028,-2.7503,-2.8627,-2.9622,-3.0761,-3.223,-3.3424,0.0,0.0,-3.4127,-3.454,-3.4006,-3.3653,-3.3683,-3.3538,-3.3393,-3.3322,-3.3382,-3.3466,-3.3633,-3.3726,-3.3807,-3.3855,-3.3881,-3.3868,-3.3815,-3.3766,-3.3995,0.0,0.0,0.0,0.0,-3.3814,-3.4061,-3.4892,-3.5911,-3.6427,-3.6717,-3.7708,-3.7714,-3.7197,-3.6953,-3.6708,-3.6468,-3.6191,-3.5576,-3.4936,-3.4969,-3.4587,-3.4148,-3.4245,-3.4305,-3.4386,-3.4528,-3.4623,-3.4666,-3.4687,-3.4737,-3.4778,-3.481,-3.3516,-3.2354,-3.2445,-3.1073,-2.9901,-2.9918,-2.991,-2.9885,-2.9834,-2.9851,-2.9859,-2.9834,-2.9851,-2.9815,-2.9708,-2.9681,-2.9654,-2.9626,-2.9541,-2.9434,-2.9328,-2.9307,-2.931,-2.9332,-2.9397,-2.9504,-2.9636,-2.9718,-2.979,-2.9827,-2.9868,-2.9951,-3.0026,-3.0091,-2.9815,-1.6782,-1.65,-1.6029,-1.6074,-1.5317,-1.4642,-1.4996,-1.4704,-1.4431,-1.4842,-1.5102,-1.5828,-1.7697,-1.8422,-1.9824,-2.3145,-2.3967,-2.5161,-2.7857,-2.8814,-2.9831,-3.1479,-3.3036,0.0,0.0,-3.4742,-3.4624,-3.5087,-3.4192,-3.3679,-3.3768,-3.3478,-3.3271,-3.3229,-3.3307,-3.3408,-3.3563,-3.3605,-3.3675,-3.3726,-3.3775,-3.3793,-3.3726,-3.3739,-3.3945,0.0,0.0,0.0,0.0,-3.4036,-3.4295,-3.4812,-3.5447,-3.5853,-3.6175,-3.6828,-3.6728,-3.625,-3.5951,-3.5855,-3.5818,-3.5533,-3.515,-3.4766,-3.4818,-3.4512,-3.4136,-3.4124,-3.4209,-3.4328,-3.442,-3.4539,-3.4634,-3.4655,-3.4687,-3.4737,-3.4758,-3.3457,-3.227,-3.2345,-3.0977,-2.9808,-2.9815,-2.9816,-2.979,-2.9774,-2.9782,-2.9799,-2.9763,-2.9745,-2.9681,-2.9561,-2.9494,-2.9415,-2.9351,-2.9301,-2.9238,-2.9167,-2.9429,-2.9599,-2.9647,-2.9718,-2.9948,-3.0352,-2.9869,-2.9776,-3.0085,-2.9924,-2.9885,-2.9964,-3.0068,-2.982,0.0,-1.5538,-1.5554,-1.539,-1.4954,-1.4638,-1.4795,-1.454,0.0,-1.4714,-1.5052,-1.5841,-1.7744,-1.8561,-2.0028,-2.326,-2.418,-2.5527,-2.8501,-2.9262,-3.0525,-3.3301,-3.4268,0.0,-3.557,-3.5413,-3.5409,-3.575,-3.4751,-3.4151,-3.4292,-3.3468,-3.3026,-3.3086,-3.3289,-3.3422,-3.3509,-3.3509,-3.3534,-3.3605,-3.3657,-3.3657,-3.3605,-3.3726,-3.3707,0.0,0.0,0.0,0.0,-3.4301,-3.4634,-3.4687,-3.4687,-3.5192,-3.5912,-3.5896,-3.5908,-3.5802,-3.4998,-3.4714,-3.46,-3.3927,-3.3793,-3.3895,-3.3881,-3.4023,-3.4148,-3.4023,-3.4136,-3.4293,-3.4381,-3.445,-3.4506,-3.4591,-3.4602,-3.4612,-3.4676,-3.3378,-3.2212,-3.2288,-3.094,-2.9763,-2.9717,-2.9754,-2.9764,-2.9692,-2.9793,-2.9848,-2.9766,-2.9748,-2.9739,-2.964,-2.9469,-2.9329,-2.9262,-2.9259,-2.9244,-2.9181,-2.9866,-3.0271,-3.0271,-3.0228,-3.0637,-3.1567,-3.0139,-2.9828,-3.0723,-3.0141,-2.9893,-2.9897,-3.003,-3.0057,-1.3672,0.0,-1.458,-1.4689,-1.4626,-1.4463,0.0,-1.4587,-1.491,-1.4751,-1.5394,-1.6368,-1.7694,-1.9343,-2.1215,-2.344,-2.4613,-2.5915,-2.7824,-2.9418,-3.1304,-3.3778,-3.4436,-3.5274,-3.6753,-3.5687,-3.5101,-3.554,-3.4101,-3.3248,-3.3324,-3.3113,-3.2977,-3.2948,-3.3086,-3.3286,-3.3509,-3.3509,-3.3534,-3.3605,-3.3619,-3.3619,-3.3605,-3.3577,-3.3851,0.0,0.0,0.0,-3.5058,-3.4625,-3.4524,-3.4619,-3.4691,-3.4418,-3.4113,-3.483,-3.4666,-3.4091,-3.3937,-3.3879,-3.3842,-3.3674,-3.3712,-3.3802,-3.3766,-3.382,-3.3895,-3.3908,-3.3998,-3.4099,-3.4221,-3.4328,-3.445,-3.4506,-3.4484,-3.4484,-3.4602,-3.3314,-3.2141,-3.2212,-3.0866,-2.971,-2.9699,-2.97,-2.9701,-2.9626,-3.0161,-3.0516,-3.0407,-3.0955,-3.1261,-3.1048,-3.099,-3.0894,-3.0728,-3.0192,-2.988,-2.9874,-3.0613,-3.1052,-3.1052,-3.0546,-3.0661,-3.1513,-3.0664,-3.0403,-3.0766,-3.0077,-2.98,-2.9901,-2.9983,-2.968,-1.2978,-1.3463,-1.3941,-1.3972,-1.4275,-1.4441,-1.4047,-1.4428,-1.4818,-1.4653,-1.5336,-1.6456,-1.8101,-1.9812,-2.1681,-2.3899,-2.5162,-2.6623,-2.8729,-3.0588,-3.2414,-3.4349,-3.5042,-3.5895,0.0,-3.5917,-3.5066,-3.5372,-3.3758,-3.2818,-3.2945,-3.2882,-3.2866,-3.2948,-3.3026,-3.3165,-3.3411,-3.3437,-3.3481,-3.3506,-3.3534,-3.3534,-3.3506,-3.3534,-3.3898,0.0,0.0,0.0,-3.5539,-3.5434,-3.5017,-3.4481,-3.4537,-3.4066,-3.3421,-3.3953,-3.3858,-3.3466,-3.3509,-3.352,-3.3549,-3.3549,-3.3615,-3.3712,-3.3698,-3.3698,-3.3739,-3.3855,-3.3972,-3.4074,-3.4173,-3.4281,-3.4363,-3.4439,-3.445,-3.4473,-3.4539,-3.3262,-3.2231,-3.2669,-3.1372,-3.0339,-3.0734,-3.079,-3.0769,-3.071,-3.0984,-3.1182,-3.1109,-3.1436,-3.1616,-3.147,-3.1408,-3.1314,-3.1217,-3.1157,-3.1013,-3.0667,-3.1386,-3.1837,-3.1889,-3.1544,-3.1225,-3.0949,-3.0988,-3.0728,-3.0155,-2.9861,-2.9747,-2.987,-2.9916,-2.9728,-1.2791,-1.3257,-1.3693,-1.3591,-1.4154,-1.4646,-1.4341,-1.4515,-1.4721,-1.4697,-1.5368,-1.6593,-1.8619,-2.0234,-2.2066,-2.4552,-2.6039,-2.7716,-3.0119,-3.1779,-3.3286,-3.4746,-3.5383,0.0,-3.7396,-3.5883,-3.4906,-3.5169,-3.3541,-3.2622,-3.282,-3.2655,-3.269,-3.2916,-3.2948,-3.306,-3.3232,-3.3352,-3.3378,-3.3396,-3.3437,-3.3437,-3.3364,-3.3477,-3.3836,-3.4434,0.0,0.0,-3.5725,-3.6287,-3.5695,-3.4483,-3.4402,-3.3929,-3.3277,-3.3367,-3.3364,-3.3396,-3.3523,-3.3498,-3.3452,-3.3593,-3.3615,-3.3591,-3.3643,-3.3643,-3.3657,-3.3847,-3.3972,-3.4086,-3.4161,-3.4233,-3.4293,-3.4363,-3.4427,-3.4461,-3.4495,-3.3334,-3.2491,-3.3248,-3.2102,-3.1228,-3.1967,-3.2069,-3.2048,-3.1974,-3.1909,-3.1874,-3.1832,-3.179,-3.175,-3.1724,-3.1634,-3.1604,-3.1719,-3.237,-3.2534,-3.1887,-3.231,-3.2579,-3.2601,-3.2614,-3.1954,-3.053,-3.1112,-3.082,-2.9609,-2.9673,-2.9738,-2.9825,-2.9864,-2.9888,-1.2597,-1.3392,-1.4304,-1.4327,-1.4839,-1.5459,-1.5847,-1.5852,-1.573,-1.5619,-1.6424,-1.7528,-1.8773,-2.1117,-2.3487,-2.5419,-2.7848,-2.9702,0.0,0.0,-3.266,-3.4292,0.0,-3.4706,-3.6972,-3.4932,-3.3806,-3.4582,0.0,-3.2318,-3.2474,-3.2457,-3.2491,-3.2557,-3.274,-3.287,-3.2963,-3.3259,-3.3367,-3.3325,-3.3322,-3.3259,-3.315,-3.3162,-3.3594,-3.4357,0.0,-3.5836,-3.6516,-3.6485,-3.6018,-3.524,-3.4573,-3.3818,-3.315,-3.3277,-3.3325,-3.3397,-3.4032,-3.3767,-3.327,-3.4014,-3.3873,-3.3437,-3.3506,-3.3629,-3.378,-3.382,-3.3868,-3.3959,-3.4086,-3.4173,-3.4233,-3.4293,-3.4281,-3.4293,-3.4461,-3.3721,-3.3093,-3.335,-3.2582,-3.1953,-3.2071,-3.2019,-3.1907,-3.1842,-3.2337,-3.2656,-3.2476,-3.3031,-3.3373,-3.3199,-3.3213,-3.3468,-3.4117,-3.4381,-3.4467,-3.4352,-3.3771,-3.3168,-3.2619,-3.2647,-3.2281,-3.1413,-3.0859,-3.0576,-3.0579,-2.9983,-2.9755,-2.9872,-2.9907,-2.9899,-1.265,-1.3226,-1.4085,-1.5277,-1.6091,-1.661,-1.6648,-1.6802,-1.6826,-1.6508,-1.719,-1.83,-1.9858,-2.1774,-2.4071,-2.6961,-2.9014,-3.0416,-3.0883,-3.1596,-3.2684,0.0,0.0,-3.4175,-3.6145,-3.4412,-3.3305,0.0,0.0,0.0,-3.2232,-3.2232,-3.2319,-3.2489,-3.2623,-3.2771,-3.2948,-3.3135,-3.3211,-3.3198,-3.3198,-3.3165,-3.3101,-3.3101,-3.3753,-3.4905,0.0,-3.6004,-3.7184,-3.7041,-3.6595,-3.5913,-3.5175,-3.4435,-3.371,-3.3424,-3.3262,-3.3306,-3.4081,-3.3797,-3.3227,-3.4065,-3.4101,-3.3877,-3.4045,-3.4098,-3.4167,-3.4338,-3.4204,-3.4023,-3.4086,-3.4148,-3.4209,-3.4245,-3.4245,-3.4281,-3.4363,-3.3751,-3.3362,-3.388,-3.3299,-3.2826,-3.3209,-3.3209,-3.3118,-3.3006,-3.3185,-3.3487,-3.3947,-3.4188,-3.4521,-3.4964,-3.5048,-3.5219,-3.5624,-3.5707,-3.5523,-3.5083,-3.4234,-3.3426,-3.2671,-3.2672,-3.2109,-3.0875,-3.0547,-3.0265,-3.0002,-2.9785,-2.9756,-2.9849,-2.9872,-2.9899,-1.2785,-1.3213,-1.4128,-1.6196,-1.7033,-1.7419,-1.7632,-1.7789,-1.7848,-1.7693,-1.8054,-1.9001,-2.1017,-2.2988,-2.5275,-2.8237,-2.981,-3.0852,-3.1435,-3.1819,-3.2559,-3.401,-3.3431,-3.3533,-3.5105,-3.3734,-3.2843,0.0,0.0,0.0,-3.2055,-3.2073,-3.2197,-3.2387,-3.2506,-3.2657,-3.287,-3.2979,-3.3057,-3.3088,-3.3088,-3.3055,-3.3055,-3.3055,-3.3779,-3.5039,-3.4971,-3.5721,-3.7005,-3.7092,-3.6719,-3.6025,-3.5506,-3.4751,-3.3898,-3.3417,-3.3168,-3.3214,-3.4185,-3.3974,-3.3456,-3.4424,-3.459,-3.4446,-3.4688,-3.4576,-3.4426,-3.4702,-3.4403,-3.3998,-3.4036,-3.4086,-3.4136,-3.4148,-3.4209,-3.4257,-3.4269,-3.3843,-3.3669,-3.4342,-3.3923,-3.3624,-3.4169,-3.4209,-3.4124,-3.4023,-3.4039,-3.4325,-3.5091,-3.5188,-3.5465,-3.6221,-3.6338,-3.6477,-3.6795,-3.6597,-3.6187,-3.5591,-3.4531,-3.3583,-3.2735,-3.2526,-3.174,-3.0276,-3.0143,-2.9843,-2.9353,-2.9569,-2.9729,-2.9825,-2.9883,-2.9891,-1.2873,-1.3669,-1.5035,-1.6884,-1.7148,-1.7427,-1.9266,-1.9036,-1.8673,-1.9438,-1.9248,-1.9636,-2.1883,-2.5332,-2.8042,-2.8688,-3.0272,-3.1372,-3.1249,0.0,-3.1827,-3.2576,-3.1937,-3.2115,-3.3856,-3.2616,0.0,0.0,0.0,0.0,-3.1912,-3.202,-3.2108,-3.2126,-3.2301,-3.2422,-3.244,-3.2691,-3.2886,-3.3013,-3.3013,-3.2979,-3.2916,-3.2916,-3.3298,-3.3999,-3.4119,-3.4549,-3.5244,-3.6043,-3.5865,-3.5102,-3.5049,-3.4195,-3.3003,-3.3031,-3.3028,-3.321,-3.463,-3.4564,-3.4088,-3.5581,-3.5599,-3.5047,-3.5199,-3.4813,-3.4337,-3.4395,-3.4047,-3.3671,-3.3855,-3.3908,-3.3934,-3.3998,-3.4074,-3.4136,-3.4197,-3.4201,-3.426,-3.4386,-3.4314,-3.4225,-3.4203,-3.4099,-3.4011,-3.3998,-3.4629,-3.5123,-3.5178,-3.5841,-3.6292,-3.6309,-3.6422,-3.6837,-3.7732,-3.7047,-3.6589,-3.6599,-3.5013,-3.3685,-3.2735,-3.2035,-3.1277,-3.0397,-2.9602,-2.9288,-2.9482,-2.9578,-2.971,-2.9895,-2.9899,-2.9874,-1.3501,-1.4,-1.5031,-1.7423,-1.81,-1.8749,-2.0802,-2.0956,-2.0869,-2.1528,-2.1448,-2.1905,-2.4108,-2.6594,-2.8608,-2.9456,-3.0779,-3.1576,-3.1249,-3.1481,-3.185,-3.2329,-3.1693,-3.1718,-3.2898,0.0,0.0,0.0,0.0,0.0,-3.1653,-3.1746,-3.1838,-3.191,-3.2143,-3.2319,-3.2406,-3.2591,-3.2688,-3.2753,-3.2854,-3.2868,-3.29,-3.277,-3.3165,-3.3911,-3.3911,-3.4321,-3.5031,-3.5368,-3.5563,-3.5686,-3.5722,-3.4498,-3.2845,-3.3925,-3.3962,-3.3732,-3.5331,-3.5349,-3.4817,-3.5811,-3.5952,-3.5633,-3.519,-3.4869,-3.4634,-3.4413,-3.3805,-3.3298,-3.3684,-3.3847,-3.3908,-3.3985,-3.4049,-3.4111,-3.4136,-3.4185,-3.4245,-3.4269,-3.4221,-3.4161,-3.4086,-3.4036,-3.3972,-3.3881,-3.4631,-3.5408,-3.5947,-3.6745,-3.7484,-3.8039,-3.8266,-3.8225,-3.7926,-3.7216,-3.6502,-3.5877,-3.4228,-3.2915,-3.2053,-3.1229,-3.0429,-2.968,-2.9366,-2.9336,-2.956,-2.9626,-2.9729,-2.9834,-2.9851,-2.9806,-1.394,-1.4315,-1.5302,-1.8231,-1.9294,-2.0252,-2.2751,-2.2769,-2.2437,-2.3117,-2.3546,-2.422,-2.5552,-2.7415,-2.9051,0.0,-3.095,-3.1521,-3.1151,-3.1404,-3.1632,-3.1726,-3.1375,-3.1334,-3.1881,0.0,0.0,0.0,0.0,0.0,0.0,-3.1521,-3.1596,-3.1707,-3.1965,-3.2144,-3.2249,-3.2456,-3.2573,-3.2573,-3.2673,-3.2755,-3.2786,-3.2672,-3.2906,-3.3454,-3.3419,-3.3704,-3.4235,-3.473,-3.5366,-3.6001,-3.6111,-3.4978,-3.3439,-3.4606,-3.4659,-3.434,-3.574,-3.5846,-3.5491,-3.6104,-3.6314,-3.6225,-3.5717,-3.5419,-3.5137,-3.4666,-3.3963,-3.3364,-3.3455,-3.3615,-3.3766,-3.3834,-3.3921,-3.4011,-3.4011,-3.4074,-3.4136,-3.4136,-3.4099,-3.4049,-3.3985,-3.3947,-3.4018,-3.4214,-3.499,-3.5915,-3.6818,-3.7715,-3.8515,-3.9227,-3.9151,-3.8758,-3.8024,-3.6783,-3.5733,-3.5005,-3.3068,-3.1974,-3.1942,-3.1191,-3.042,-2.9628,-2.9413,-2.939,-2.9598,-2.9655,-2.9692,-2.9771,-2.9799,-2.9763,-1.4109,-1.4696,-1.6025,-1.9373,-2.0578,-2.1829,-2.524,-2.4367,-2.3096,-2.4046,-2.5439,-2.6383,-2.5917,-2.7902,-2.9671,-2.9885,-3.0685,-3.1215,-3.0952,-3.1072,-3.1015,-3.0551,-3.0733,-3.0834,-3.0712,0.0,0.0,0.0,0.0,0.0,0.0,-3.1406,-3.1498,-3.1498,-3.1747,-3.1894,-3.1894,-3.2301,-3.2507,-3.2507,-3.2556,-3.2606,-3.2606,-3.2606,-3.2556,-3.2489,-3.259,-3.2541,-3.2511,-3.4129,-3.5183,-3.5811,-3.5941,-3.5522,-3.4817,-3.4889,-3.4907,-3.4995,-3.5752,-3.5996,-3.6082,-3.6624,-3.6809,-3.6811,-3.695,-3.652,-3.5858,-3.5172,-3.4551,-3.3917,-3.3192,-3.3196,-3.3408,-3.3495,-3.3643,-3.3807,-3.3807,-3.3895,-3.3998,-3.3998,-3.3998,-3.3972,-3.3908,-3.386,-3.4127,-3.5059,-3.5897,-3.6786,-3.7787,-3.8635,-3.9264,-3.9482,-3.8658,-3.8078,-3.8078,-3.5678,-3.421,-3.4185,-3.1691,-3.095,-3.2612,-3.2087,-3.137,-3.0506,-2.9718,-2.9394,-2.9598,-2.9598,-2.9636,-2.9708,-2.9763,-2.9763,-1.4371,-1.5357,-1.691,-1.9997,-2.1827,-2.3604,-2.6407,-2.6193,-2.5661,-2.6616,-2.7287,-2.7837,-2.8322,-2.9154,0.0,-3.0555,-3.1024,-3.1159,-3.0814,-3.0935,-3.0895,-3.0485,-3.0547,-3.0651,0.0,0.0,0.0,0.0,0.0,0.0,0.0,-3.123,-3.1308,-3.1351,-3.1711,-3.1894,-3.1894,-3.2249,-3.2422,-3.2422,-3.2457,-3.2506,-3.2606,-3.2557,-3.2523,-3.2525,-3.3019,-3.2862,-3.2389,-3.3948,-3.4719,-3.5015,-3.6234,-3.5886,-3.4866,-3.5957,-3.601,-3.5641,-3.649,-3.6752,-3.6728,-3.6781,-3.6851,-3.6803,-3.6028,-3.5465,-3.4936,-3.4163,-3.3476,-3.2976,-3.2875,-3.2948,-3.3119,-3.3419,-3.3643,-3.3793,-3.3739,-3.3807,-3.386,-3.3807,-3.3753,-3.3698,-3.3633,-3.4188,-3.4729,-3.494,-3.6408,-3.7838,-3.8893,-3.8145,-3.779,-3.8509,-3.7779,-3.6963,-3.6253,-3.5014,-3.3913,-3.3051,-3.1869,-3.1096,-3.095,-3.033,-2.9843,-2.9591,-2.9431,-2.9443,-2.9598,-2.9598,-2.9898,-3.0461,-2.9898,-2.9926,-1.5721,-1.6952,-1.8724,-2.2339,-2.4316,-2.6136,-2.9078,-2.8545,-2.7558,-2.8045,-2.8458,-2.8923,-2.9447,-2.9919,0.0,-3.0928,-3.1018,-3.0978,-3.0733,-3.0794,-3.0753,-3.0438,-3.0506,-3.0472,0.0,0.0,0.0,0.0,0.0,0.0,0.0,-3.1015,-3.1134,-3.1176,-3.1562,-3.1766,-3.1766,-3.2108,-3.2284,-3.2284,-3.2319,-3.2353,-3.2404,-3.2439,-3.2456,-3.2491,-3.2827,-3.3019,-3.3138,-3.4081,-3.4833,-3.5518,-3.654,-3.6406,-3.5742,-3.6656,-3.6691,-3.6338,-3.6814,-3.695,-3.6891,-3.6731,-3.6748,-3.6664,-3.5992,-3.564,-3.5276,-3.4173,-3.3634,-3.3265,-3.28,-3.2773,-3.2932,-3.3253,-3.3459,-3.3605,-3.3619,-3.3643,-3.3671,-3.3633,-3.3633,-3.3633,-3.3549,-3.4021,-3.4526,-3.4893,-3.6316,-3.7596,-3.8288,-3.7448,-3.6988,-3.753,-3.6808,-3.5932,-3.5051,-3.387,-3.2736,-3.1678,-3.128,-3.0801,-3.0186,-2.9871,-2.988,-3.0235,-3.0044,-3.0175,-3.06,-3.0272,-3.0347,-3.0777,-3.0001,-2.9869,-1.7543,-1.9097,-2.1178,-2.5622,-2.7593,-2.9316,-3.2581,-3.126,-2.9259,-2.8927,-2.9388,-2.9819,-2.9692,-3.0343,-3.0892,-3.0935,-3.0794,-3.0671,-3.0671,-3.0671,-3.0589,-3.0422,-3.0497,-3.0264,0.0,0.0,0.0,0.0,0.0,0.0,0.0,-3.0895,-3.1015,-3.1035,-3.1389,-3.1598,-3.1617,-3.1947,-3.209,-3.209,-3.2161,-3.2161,-3.2108,-3.2319,-3.2441,-3.2476,-3.2267,-3.3068,-3.4492,-3.4422,-3.5351,-3.6771,-3.6788,-3.6869,-3.6968,-3.6968,-3.6968,-3.6948,-3.6829,-3.6768,-3.6728,-3.6564,-3.6502,-3.6482,-3.6482,-3.655,-3.6304,-3.4805,-3.4486,-3.4285,-3.286,-3.2623,-3.2838,-3.3039,-3.3198,-3.3322,-3.3452,-3.3462,-3.3495,-3.3495,-3.3577,-3.3629,-3.3591,-3.3589,-3.3945,-3.4958,-3.5837,-3.6467,-3.6673,-3.6551,-3.6489,-3.6563,-3.5799,-3.4976,-3.4222,-3.2539,-3.1194,-3.044,-3.0353,-3.0287,-3.0222,-3.0485,-3.0991,-3.1767,-3.1208,-3.1283,-3.2088,-3.136,-3.0967,-3.0909,-3.0217,-2.9823,-1.7061,-1.9977,-2.3386,-2.6835,-3.0249,-3.3057,-3.4146,-3.3931,-3.3116,-3.1763,-3.1601,-3.1433,-3.0476,-3.0551,-3.0692,-3.0547,-3.0547,-3.0526,-3.0464,-3.0464,-3.0459,-3.0417,-2.9922,0.0,0.0,0.0,0.0,0.0,0.0,0.0,-3.0935,-3.0975,-3.1075,-3.1218,-3.1485,-3.1635,-3.1763,-3.1983,-3.209,0.0,-3.2108,-3.2108,-3.2108,-3.2319,-3.2687,-3.3141,-3.2494,-3.3345,-3.5141,-3.4629,-3.5253,-3.6585,-3.6684,-3.6725,-3.6766,-3.6766,-3.6705,-3.6626,-3.6684,-3.6561,-3.6356,-3.6461,-3.6423,-3.6343,-3.6343,-3.6131,-3.5704,-3.4683,-3.4101,-3.3582,-3.2786,-3.2606,-3.2705,-3.2963,-3.3152,-3.3277,-3.3211,-3.3274,-3.3337,-3.3337,-3.3367,-3.3382,-3.3367,-3.396,-3.4809,-3.5933,-3.5745,-3.5784,-3.6593,-3.5458,-3.4851,-3.5601,-3.4851,-3.3955,-3.3111,-3.2194,-3.15,-3.1108,-3.0636,-3.0639,-3.1182,-3.1409,-3.157,-3.1638,-3.1667,-3.1776,-3.2024,-3.1787,-3.1734,-3.1817,-3.1599,-3.1136,-1.838,-2.1646,-2.5554,-2.9919,-3.2908,-3.4969,-3.581,-3.572,-3.5186,-3.4179,-3.321,-3.2318,-3.1584,-3.1089,-3.0616,-3.0103,-3.0253,-3.0306,-2.9856,-3.0039,-3.01,-2.9819,-2.9494,0.0,0.0,0.0,0.0,0.0,0.0,-3.0671,-3.0855,-3.0932,-3.1035,-3.1252,-3.1445,-3.1596,-3.1709,-3.1874,-3.1964,-3.1964,-3.1893,-3.1839,-3.1819,-3.2126,-3.2353,-3.2519,-3.2157,-3.3038,-3.4648,-3.4234,-3.5036,-3.6502,-3.6502,-3.6544,-3.6602,-3.6602,-3.6544,-3.6502,-3.6502,-3.644,-3.6335,-3.6356,-3.6314,-3.6255,-3.6255,-3.6101,-3.5708,-3.4621,-3.4128,-3.3701,-3.2755,-3.2539,-3.2655,-3.29,-3.306,-3.3152,-3.3198,-3.3262,-3.331,-3.331,-3.3322,-3.3352,-3.3352,-3.3811,-3.4385,-3.4962,-3.4724,-3.4683,-3.5209,-3.4468,-3.4092,-3.4534,-3.3834,-3.2992,-3.2188,-3.1808,-3.136,-3.0815,-3.1255,-3.1679,-3.1978,-3.2515,-3.2649,-3.2277,-3.2411,-3.2706,-3.3153,-3.275,-3.2614,-3.2652,-3.1823,-3.1165,-1.9914,-2.3545,-2.7808,-3.2837,-3.4916,-3.5981,-3.7059,-3.6773,-3.6238,-3.6159,-3.4375,-3.279,-3.2531,-3.1581,-3.054,-2.9669,-2.9964,-3.0028,-2.9206,-2.9505,-2.9609,-2.9153,-2.8956,0.0,0.0,0.0,0.0,0.0,0.0,-3.0879,-3.1141,-3.126,-3.1422,-3.1659,-3.1835,-3.197,-3.2049,-3.2023,-3.2008,-3.199,-3.1723,-3.1559,-3.1464,-3.1802,-3.1802,-3.156,-3.1709,-3.2567,-3.3839,-3.3782,-3.4816,-3.644,-3.6339,-3.636,-3.644,-3.6419,-3.6419,-3.6402,-3.6318,-3.6318,-3.6356,-3.6247,-3.6182,-3.614,-3.6161,-3.6187,-3.5924,-3.4552,-3.4291,-3.4113,-3.2757,-3.2629,-3.2831,-3.2886,-3.3071,-3.3237,-3.3234,-3.3247,-3.3247,-3.3262,-3.3352,-3.3411,-3.3364,-3.3495,-3.3577,-3.3577,-3.3633,-3.3671,-3.3671,-3.3726,-3.3739,-3.3684,-3.314,-3.2478,-3.1721,-3.166,-3.136,-3.0632,-3.1949,-3.274,-3.2732,-3.3506,-3.3697,-3.3201,-3.3229,-3.3622,-3.4374,-3.3754,-3.3414,-3.3259,-3.1984,-3.1148,-1.9729,-2.4979,-3.0422,-3.2696,-3.4867,-3.6537,-3.6819,-3.6716,-3.6719,0.0,-3.5151,-3.2981,-3.242,-3.1364,-3.0257,-2.9325,-2.9624,-2.9751,-2.9185,-2.9023,-2.8993,-2.9103,-2.7994,0.0,0.0,0.0,0.0,0.0,-3.0968,-3.2173,-3.3001,-3.3056,-3.3205,-3.3531,-3.3568,-3.367,-3.3848,-3.3244,-3.2877,-3.2748,-3.1963,-3.1466,-3.1249,-3.1351,-3.1372,-3.1353,-3.1542,-3.2395,-3.3652,-3.3937,-3.4912,-3.6247,-3.6208,-3.6208,-3.6247,-3.6122,-3.6062,-3.6084,-3.6187,-3.6079,-3.5927,-3.6122,-3.6036,-3.5883,-3.5975,-3.6148,-3.5969,-3.4438,-3.4239,-3.4173,-3.2826,-3.3085,-3.3588,-3.3108,-3.3562,-3.3932,-3.3203,-3.3044,-3.306,-3.3119,-3.3256,-3.3382,-3.3322,-3.3382,-3.3452,-3.3491,-3.352,-3.3549,-3.3619,-3.3633,-3.3615,-3.3601,-3.3542,-3.3141,-3.2356,-3.2283,-3.2233,-3.2123,-3.242,-3.2939,-3.3592,-3.3917,-3.4031,-3.3944,-3.3895,-3.4025,-3.4305,-3.4164,-3.379,-3.3209,-3.3631,-3.2713,-2.2803,-2.6739,-3.0339,-3.2445,-3.4171,-3.544,-3.5972,-3.5671,-3.5515,-3.6252,-3.4516,-3.2948,-3.3235,-3.1958,-3.0373,-2.894,-2.9202,-2.9307,-2.8531,-2.8351,-2.8331,-2.8433,-2.7503,0.0,0.0,0.0,0.0,0.0,-3.0359,-3.1596,-3.2626,-3.2635,-3.2963,-3.3717,-3.3778,-3.3902,-3.4138,-3.3337,-3.2674,-3.2113,-3.1639,-3.1312,-3.1092,-3.0998,-3.0998,-3.1095,-3.1291,-3.2179,-3.3494,-3.3635,-3.4706,-3.6182,-3.6036,-3.6014,-3.6079,-3.5949,-3.5905,-3.5905,-3.5949,-3.601,-3.6014,-3.5993,-3.5993,-3.6014,-3.5927,-3.5997,-3.5946,-3.4946,-3.4506,-3.4145,-3.3283,-3.3123,-3.3131,-3.2925,-3.32,-3.3407,-3.3019,-3.3011,-3.3055,-3.3086,-3.318,-3.3259,-3.3292,-3.3259,-3.3274,-3.3364,-3.3408,-3.3437,-3.3437,-3.352,-3.3577,-3.3509,-3.3124,-3.2706,-3.2314,-3.2296,-3.2296,-3.2338,-3.2867,-3.3319,-3.3666,-3.386,-3.4168,-3.4718,-3.4314,-3.4173,-3.4293,-3.4269,-3.4106,-3.3881,-3.3678,-3.3022,-2.4086,-2.6647,-2.8798,-3.0843,-3.2309,-3.3546,-3.4665,-3.4413,-3.4255,0.0,-3.3989,-3.2943,-3.3571,-3.2181,-3.0342,-2.8553,-2.8873,-2.9021,-2.8114,-2.7939,-2.7939,-2.7939,-2.7303,0.0,0.0,0.0,0.0,0.0,-3.0181,-3.1337,-3.2303,-3.2517,-3.3014,-3.3904,-3.4178,-3.4446,-3.4645,-3.3579,-3.264,-3.1829,-3.1453,-3.1157,-3.0955,-3.0753,-3.0692,-3.0773,-3.0992,-3.1918,-3.3288,-3.3368,-3.4478,-3.6079,-3.5883,-3.5839,-3.5888,-3.5795,-3.5751,-3.5773,-3.5839,-3.5949,-3.6075,-3.5949,-3.5993,-3.6058,-3.5905,-3.5932,-3.5908,-3.5318,-3.4683,-3.4133,-3.3823,-3.3494,-3.3188,-3.3094,-3.3315,-3.3432,-3.3005,-3.2993,-3.307,-3.307,-3.3086,-3.3135,-3.3216,-3.315,-3.3117,-3.3229,-3.3289,-3.3319,-3.3292,-3.3422,-3.3477,-3.3408,-3.2911,-3.2548,-3.2477,-3.2477,-3.2491,-3.2506,-3.3164,-3.3549,-3.3577,-3.3913,-3.4361,-3.4865,-3.4598,-3.4519,-3.4604,-3.4369,-3.4269,-3.4316,-3.3596,-3.317,-2.0921,-2.3157,-2.585,-2.6861,-2.8782,-3.0929,-3.2886,-3.3191,-3.3524,-3.5166,-3.4197,-3.2963,-3.2646,-3.1393,-2.986,-2.8129,-2.876,-2.9171,-2.8316,-2.8066,-2.799,-2.799,-2.7446,0.0,0.0,0.0,0.0,0.0,-3.1461,-3.2316,-3.3007,-3.3891,-3.4512,-3.4814,-3.5642,-3.6109,-3.618,-3.4511,-3.3337,-3.272,-3.1689,-3.1092,-3.0892,-3.063,-3.0485,-3.0438,-3.063,-3.1566,-3.2961,-3.3267,-3.4355,-3.5817,-3.5795,-3.5728,-3.5622,-3.5622,-3.5622,-3.5644,-3.5888,-3.5927,-3.5861,-3.6101,-3.6014,-3.5839,-3.5971,-3.6079,-3.6032,-3.5221,-3.4628,-3.4237,-3.4395,-3.4656,-3.4694,-3.4001,-3.4579,-3.4839,-3.3335,-3.2995,-3.3013,-3.3013,-3.3057,-3.307,-3.3044,-3.3073,-3.3101,-3.3101,-3.3101,-3.3165,-3.3277,-3.3307,-3.3337,-3.3378,-3.3375,-3.3309,-3.3253,-3.3238,-3.319,-3.3063,-3.3268,-3.3437,-3.3491,-3.4434,-3.4642,-3.3987,-3.4808,-3.5314,-3.5436,-3.4538,-3.4111,-3.4111,-3.4012,-3.3549,-2.1661,-2.3145,-2.4737,-2.5711,-2.7363,-2.9074,-3.0496,-3.1159,-3.1652,-3.2301,-3.234,-3.2082,-3.1462,-3.1067,-3.0231,-2.8357,-2.8761,-2.9136,-2.8657,-2.8395,-2.8259,-2.8259,-2.7459,0.0,0.0,0.0,0.0,0.0,0.0,-3.1698,-3.2542,-3.33,-3.4011,-3.4618,-3.5492,-3.577,-3.5385,-3.4435,-3.3522,-3.2652,-3.1664,-3.1112,-3.0955,-3.0733,-3.0547,-3.0417,-3.0526,-3.1418,-3.2785,-3.2988,-3.4117,-3.5684,-3.5633,-3.5594,-3.56,-3.56,-3.5571,-3.5566,-3.5689,-3.5822,-3.5927,-3.5822,-3.5866,-3.5927,-3.5778,-3.5778,-3.5793,-3.5655,-3.5204,-3.4803,-3.5124,-3.4985,-3.4605,-3.402,-3.375,-3.348,-3.3041,-3.2932,-3.2932,-3.2932,-3.2963,-3.2945,-3.2932,-3.2963,-3.2961,-3.2961,-3.3011,-3.3073,-3.315,-3.3247,-3.3277,-3.3211,-3.3211,-3.3165,-3.306,-3.3026,-3.3026,-3.3042,-3.315,-3.3271,-3.3422,-3.3864,-3.4229,-3.4532,-3.4439,-3.4452,-3.4537,-3.4247,-3.4074,-3.4036,-3.4061,-3.3913,-2.1404,-2.2337,-2.3406,-2.3973,-2.5208,-2.6643,-2.8176,-2.9187,-2.9873,-3.0205,-3.0897,-3.1231,-3.0446,-3.0427,-3.0068,-2.8653,-2.8955,-2.9264,-2.8939,-2.8697,-2.8546,-2.8529,-2.7904,0.0,0.0,0.0,0.0,0.0,0.0,0.0,-3.1803,-3.2521,-3.3402,-3.4472,-3.536,-3.5645,-3.5305,-3.4651,-3.388,-3.3029,-3.204,-3.1368,-3.0995,-3.0753,-3.0701,-3.0802,-3.0785,-3.1505,-3.2702,-3.2835,-3.3935,-3.5503,-3.5498,-3.5475,-3.5441,-3.5554,-3.5526,-3.5452,-3.5667,-3.5822,-3.591,-3.5822,-3.5844,-3.5927,-3.5778,-3.5711,-3.5711,-3.5975,-3.5553,-3.5146,-3.5737,-3.5236,-3.4513,-3.4323,-3.3401,-3.2655,-3.282,-3.2884,-3.29,-3.29,-3.3146,-3.3325,-3.3311,-3.3309,-3.3341,-3.3343,-3.3142,-3.3042,-3.315,-3.3168,-3.3137,-3.307,-3.3039,-3.2977,-3.285,-3.2882,-3.2948,-3.2963,-3.3277,-3.3561,-3.3791,-3.4403,-3.4779,-3.4859,-3.4701,-3.4366,-3.3855,-3.3972,-3.4011,-3.3972,-3.3985,-3.4036,0.0,0.0,0.0,-2.1464,-2.2197,-2.3592,-2.5981,0.0,-2.8322,-2.9155,-3.0069,-3.0474,-2.9639,-2.9444,-2.9301,-2.8951,-2.9346,-2.9539,-2.9174,-2.8938,-2.8827,-2.8829,-2.8736,0.0,0.0,0.0,0.0,0.0,-3.0389,-3.0912,-3.0912,-3.1664,-3.2845,-3.4438,-3.5326,-3.5854,-3.6097,-3.5164,-3.4413,-3.3888,-3.2811,-3.1861,-3.0995,-3.0688,-3.094,-3.1615,-3.1413,-3.1868,-3.2735,-3.2862,-3.3862,-3.5314,-3.5446,-3.5337,-3.5135,-3.5487,-3.5481,-3.536,-3.5822,-3.5905,-3.5839,-3.6096,-3.601,-3.5817,-3.5954,-3.5905,-3.5839,-3.6118,-3.5616,-3.5266,-3.6233,-3.5536,-3.4614,-3.4906,-3.3809,-3.271,-3.2826,-3.2905,-3.2969,-3.2936,-3.3623,-3.4193,-3.4114,-3.4162,-3.4191,-3.4175,-3.3496,-3.3075,-3.3262,-3.3075,-3.2948,-3.3008,-3.2945,-3.285,-3.2718,-3.29,-3.2999,-3.2936,-3.375,-3.4341,-3.4622,-3.6125,-3.6295,-3.4845,-3.5574,-3.5192,-3.3642,-3.3807,-3.3895,-3.3895,-3.3829,-3.3926,-2.0968,0.0,0.0,0.0,0.0,0.0,0.0,0.0,-2.5951,-2.7199,-2.8285,-2.9038,-2.9176,-2.9351,-2.9383,-2.9169,-2.9114,-2.9164,-2.923,-2.949,-2.9642,-2.9604,-2.898,-2.85,0.0,0.0,0.0,0.0,-3.0572,-3.1035,-3.1176,-3.1867,-3.2946,-3.4438,-3.4839,-3.5278,-3.5888,-3.5198,-3.4448,-3.3659,-3.2828,-3.1941,-3.1012,-3.1452,-3.1696,-3.1777,-3.2144,-3.2767,-3.3475,-3.3429,-3.4153,-3.5291,-3.5337,-3.5377,-3.5423,-3.5549,-3.5526,-3.5469,-3.5661,-3.5734,-3.5795,-3.5756,-3.5711,-3.5667,-3.5711,-3.5639,-3.5633,-3.5971,-3.5904,-3.5869,-3.6471,-3.6035,-3.5355,-3.494,-3.4694,-3.4403,-3.3849,-3.4284,-3.4598,-3.396,-3.4048,-3.4207,-3.4241,-3.4225,-3.401,-3.3468,-3.3169,-3.3075,-3.3262,-3.3232,-3.3201,-3.3232,-3.3201,-3.3122,-3.293,-3.35,-3.384,-3.3758,-3.4591,-3.5137,-3.5249,-3.5762,-3.5878,-3.5538,-3.5175,-3.4788,-3.4393,-3.4019,-3.3834,-3.3815,-3.3908,-3.4394,-2.1341,-2.1396,-2.1566,-2.1439,0.0,0.0,-2.3293,-2.4032,-2.4716,0.0,-2.653,-2.7313,-2.7662,-2.781,-2.7945,-2.8167,-2.8076,-2.836,-2.94,-2.9676,-2.985,-3.0119,-2.9303,-2.8716,0.0,-2.9003,-2.9429,-2.9943,-3.0532,-3.109,-3.1573,-3.232,-3.3267,-3.4373,-3.4854,-3.527,-3.5711,-3.5419,-3.4861,-3.4049,-3.3305,-3.2456,-3.1547,-3.1928,-3.2173,-3.2333,-3.2918,-3.3551,-3.4183,-3.4072,-3.4478,-3.5135,-3.5245,-3.5314,-3.5337,-3.5532,-3.5549,-3.5514,-3.5639,-3.5728,-3.5795,-3.5706,-3.5644,-3.56,-3.56,-3.5571,-3.5611,-3.591,-3.6105,-3.6276,-3.6602,-3.5987,-3.5303,-3.5291,-3.4995,-3.4688,-3.4563,-3.4968,-3.5264,-3.4813,-3.5042,-3.5292,-3.5294,-3.5292,-3.5146,-3.4713,-3.4339,-3.4173,-3.4315,-3.4253,-3.4031,-3.3676,-3.3575,-3.3353,-3.287,-3.3648,-3.4147,-3.4097,-3.5235,-3.5927,-3.6043,-3.6433,-3.6535,-3.6208,-3.5756,-3.5211,-3.457,-3.3974,-3.3698,-3.3766,-3.3921,-3.4358,-2.1446,-2.1595,-2.1906,-2.1489,0.0,0.0,-2.2635,-2.3436,-2.4106,0.0,-2.5009,-2.5612,-2.5714,-2.5667,-2.584,-2.6521,-2.6745,-2.7546,-2.9591,-2.9522,-2.9557,-3.0381,-2.9513,-2.8818,-2.8753,-2.9362,-2.9801,-2.9847,-3.0396,-3.1095,-3.1846,-3.2736,-3.3524,-3.4184,-3.5009,-3.5515,-3.56,-3.5728,-3.5421,-3.4678,-3.4032,-3.3226,-3.231,-3.2339,-3.2563,-3.3038,-3.3649,-3.4216,-3.4715,-3.4715,-3.4804,-3.4947,-3.5198,-3.5245,-3.5182,-3.5487,-3.5571,-3.5537,-3.5723,-3.5773,-3.5773,-3.5773,-3.5689,-3.56,-3.56,-3.5622,-3.5689,-3.5954,-3.6276,-3.6544,-3.6664,-3.5797,-3.5057,-3.58,-3.5119,-3.4479,-3.5101,-3.5366,-3.554,-3.5725,-3.6312,-3.6759,-3.6711,-3.6744,-3.6775,-3.6702,-3.6051,-3.5596,-3.5659,-3.5375,-3.487,-3.409,-3.3885,-3.35,-3.2709,-3.3622,-3.424,-3.4222,-3.5789,-3.6787,-3.6936,-3.7622,-3.7658,-3.6954,-3.6847,-3.6055,-3.4524,-3.3854,-3.3577,-3.3684,-3.3895,-3.4129,-2.2595,-2.3132,-2.3629,0.0,0.0,0.0,-2.269,-2.2586,-2.2769,0.0,-2.4509,-2.4918,-2.5256,-2.5473,-2.5606,-2.5581,-2.6795,-2.8206,-2.9546,-2.9037,-2.8956,-3.0111,-2.8874,0.0,-2.8887,-2.8943,-2.9263,-3.0063,-3.0729,-3.1139,-3.1194,-3.1875,-3.2677,-3.355,-3.4211,-3.4885,-3.5583,-3.5728,-3.5377,-3.4532,-3.4499,-3.3718,-3.2344,-3.3402,-3.3559,-3.3071,-3.418,-3.4767,-3.4875,-3.4875,-3.4947,-3.5065,-3.5245,-3.5367,-3.5509,-3.5577,-3.56,-3.5594,-3.5622,-3.5644,-3.5644,-3.5644,-3.5622,-3.56,-3.56,-3.5684,-3.5839,-3.6152,-3.6423,-3.6684,-3.6748,-3.6661,-3.641,-3.5953,-3.6358,-3.6738,-3.6185,-3.6738,-3.7379,-3.7431,-3.7001,-3.6678,-3.6762,-3.6745,-3.6546,-3.6063,-3.5288,-3.4767,-3.4826,-3.4189,-3.3659,-3.3557,-3.3322,-3.3108,-3.2934,-3.4203,-3.5007,-3.5059,-3.6594,-3.7577,-3.7749,-3.7929,-3.7929,-3.7766,-3.7136,-3.631,-3.529,-3.4182,-3.3661,-3.3633,-3.3868,-3.4419,0.0,0.0,0.0,-2.2804,0.0,0.0,0.0,-2.2743,-2.2574,-2.3223,-2.3249,-2.331,-2.3858,-2.3737,-2.3829,-2.4624,-2.5476,-2.6557,-2.7995,-2.835,-2.8781,-2.9691,-2.8589,0.0,-2.8925,-2.9185,-2.965,-3.0487,-3.0499,-3.07,-3.1258,-3.1738,-3.2542,-3.3758,-3.4194,-3.4795,-3.5583,-3.5667,-3.5458,-3.4992,-3.4735,-3.4134,-3.327,-3.3977,-3.4002,-3.3551,-3.4489,-3.4875,-3.4804,-3.4804,-3.4923,-3.5128,-3.5314,-3.5671,-3.6055,-3.5712,-3.5594,-3.5566,-3.5566,-3.5566,-3.5566,-3.5566,-3.5616,-3.5689,-3.5689,-3.5866,-3.6105,-3.6402,-3.6626,-3.6766,-3.6788,-3.6648,-3.6485,-3.6468,-3.6657,-3.686,-3.686,-3.7236,-3.7631,-3.7721,-3.7345,-3.7077,-3.7305,-3.7356,-3.7246,-3.6933,-3.657,-3.6206,-3.5838,-3.5408,-3.4801,-3.3942,-3.3792,-3.3521,-3.2999,-3.4396,-3.5307,-3.5342,-3.6879,-3.7863,-3.7984,-3.8053,-3.8054,-3.7933,-3.7158,-3.648,-3.5948,-3.5181,-3.4594,-3.4207,-3.4472,-3.4897,0.0,0.0,0.0,0.0,0.0,-2.3654,0.0,0.0,0.0,-2.2661,-2.2319,0.0,0.0,0.0,0.0,0.0,0.0,0.0,0.0,-2.7123,0.0,-2.8681,-2.7913,0.0,-2.8485,-2.9274,-2.9919,-3.0403,-2.9961,-3.0112,-3.1127,-3.1641,-3.2531,-3.3918,-3.4224,-3.4773,-3.5577,-3.5571,-3.5526,-3.5492,-3.4941,-3.4482,-3.4197,-3.4348,-3.4264,-3.4027,-3.4608,-3.4811,-3.4739,-3.478,-3.5006,-3.5358,-3.5427,-3.5845,-3.6352,-3.5797,-3.5549,-3.5492,-3.5514,-3.5514,-3.5514,-3.556,-3.5678,-3.5839,-3.5861,-3.6084,-3.636,-3.6544,-3.6708,-3.6809,-3.6809,-3.6492,-3.633,-3.6948,-3.6688,-3.6499,-3.7194,-3.7317,-3.7353,-3.7521,-3.7466,-3.7503,-3.7793,-3.7933,-3.8002,-3.8001,-3.7978,-3.7683,-3.6868,-3.6616,-3.5901,-3.4297,-3.4186,-3.3872,-3.2985,-3.4446,-3.5393,-3.5393,-3.6966,-3.7933,-3.8036,-3.8122,-3.8089,-3.7934,-3.727,-3.6859,-3.6701,-3.6463,-3.5872,-3.5001,-3.5265,-3.5371,0.0,0.0,0.0,0.0,-2.4299,0.0,0.0,0.0,-2.3966,-2.2757,0.0,0.0,0.0,0.0,0.0,0.0,0.0,0.0,-2.389,-2.47,-2.5581,-2.6291,-2.601,0.0,0.0,-2.8264,-2.8998,-2.8798,-2.9293,-2.9616,-2.9648,-3.086,-3.2,-3.3017,-3.3707,-3.4538,-3.5498,-3.5383,-3.5383,-3.5492,-3.5299,-3.4845,-3.4214,-3.4625,-3.4529,-3.4027,-3.4513,-3.478,-3.4899,-3.4994,-3.5518,-3.6178,-3.5566,-3.5463,-3.5695,-3.5633,-3.5549,-3.5514,-3.5571,-3.5566,-3.5537,-3.5723,-3.5861,-3.5997,-3.6122,-3.6212,-3.6301,-3.6343,-3.6568,-3.6809,-3.6809,-3.6838,-3.6921,-3.6992,-3.6997,-3.7004,-3.711,-3.7222,-3.7297,-3.7334,-3.7373,-3.7467,-3.7703,-3.7828,-3.7933,-3.7984,-3.7508,-3.685,-3.6055,-3.5268,-3.4442,-3.3584,-3.3294,-3.3118,-3.2997,-3.4463,-3.5393,-3.5408,-3.6984,-3.7986,-3.8157,-3.8088,-3.8001,-3.7984,-3.7843,-3.779,-3.7823,-3.7834,-3.7104,-3.5685,-3.5952,-3.574,0.0,0.0,0.0,0.0,0.0,0.0,-2.4007,0.0,-2.3975,0.0,0.0,0.0,0.0,0.0,0.0,0.0,-2.2449,0.0,0.0,0.0,-2.3303,0.0,0.0,0.0,0.0,0.0,0.0,0.0,-2.8085,-2.85,-2.9202,-2.991,-3.1031,-3.268,-3.3206,-3.408,-3.536,-3.5331,-3.5291,-3.5268,-3.5291,-3.5071,-3.4609,-3.4814,-3.4757,-3.4515,-3.4648,-3.478,-3.4899,-3.497,-3.5248,-3.5616,-3.5385,-3.5658,-3.6139,-3.5695,-3.5475,-3.5383,-3.5464,-3.5509,-3.5616,-3.5927,-3.6058,-3.6144,-3.6314,-3.6381,-3.6423,-3.6523,-3.6667,-3.6809,-3.6809,-3.6908,-3.7007,-3.7007,-3.7343,-3.7699,-3.7776,-3.8146,-3.836,-3.8019,-3.7952,-3.7869,-3.7593,-3.7739,-3.7881,-3.7827,-3.7282,-3.6589,-3.5714,-3.4972,-3.4163,-3.3255,-3.3168,-3.3106,-3.2948,-3.4446,-3.5393,-3.5409,-3.7017,-3.8054,-3.8241,-3.8138,-3.8069,-3.8069,-3.7533,-3.7499,-3.7951,-3.7115,-3.6588,-3.6387,-3.6182,-3.5717,-2.347,0.0,0.0,0.0,0.0,0.0,0.0,0.0,0.0,0.0,0.0,0.0,0.0,0.0,0.0,0.0,0.0,-2.0928,0.0,0.0,0.0,0.0,0.0,0.0,0.0,0.0,0.0,0.0,0.0,-2.7427,-2.8731,-2.9156,-3.0278,-3.2226,-3.2741,-3.3612,-3.4927,-3.5144,-3.5198,-3.5088,-3.5198,-3.5111,-3.4899,-3.4811,-3.4811,-3.4851,-3.4691,-3.4715,-3.4851,-3.4899,-3.497,-3.5105,-3.5198,-3.5633,-3.6128,-3.57,-3.5452,-3.536,-3.5464,-3.5622,-3.58,-3.6118,-3.6208,-3.6251,-3.6335,-3.6402,-3.6444,-3.6541,-3.6664,-3.6768,-3.6809,-3.7046,-3.7231,-3.7042,-3.7547,-3.8055,-3.7945,-3.833,-3.8538,-3.8098,-3.807,-3.7952,-3.7481,-3.7667,-3.7756,-3.747,-3.7053,-3.64,-3.5361,-3.4781,-3.4083,-3.3131,-3.3152,-3.3242,-3.3269,-3.4391,-3.5299,-3.5747,-3.678,-3.7652,-3.8272,-3.7987,-3.781,-3.7794,-3.7131,-3.6956,-3.7286,-3.6184,-3.5836,-3.6177,-3.602,-3.5619,0.0,0.0,0.0,-2.4643,0.0,0.0,0.0,0.0,-2.42,0.0,0.0,0.0,0.0,0.0,0.0,-2.0947,0.0,0.0,0.0,0.0,0.0,0.0,0.0,0.0,0.0,0.0,-2.4414,0.0,-2.5594,0.0,-2.7961,-2.8849,-2.998,-3.1484,-3.2288,-3.315,-3.4028,-3.4762,-3.5088,-3.5088,-3.5088,-3.5018,-3.4899,-3.4618,-3.457,-3.4691,-3.457,-3.457,-3.4732,-3.4851,-3.497,-3.5088,-3.5088,-3.5128,-3.5168,-3.5481,-3.5549,-3.5514,-3.5723,-3.5949,-3.6182,-3.6204,-3.6233,-3.6259,-3.6084,-3.6152,-3.628,-3.6229,-3.6457,-3.6722,-3.6788,-3.7385,-3.781,-3.7143,-3.7521,-3.7828,-3.718,-3.706,-3.7077,-3.7042,-3.7198,-3.7351,-3.7392,-3.7559,-3.7488,-3.6839,-3.673,-3.6188,-3.472,-3.4405,-3.4,-3.3191,-3.3101,-3.3394,-3.4103,-3.4275,-3.5037,-3.6648,-3.6141,-3.653,-3.8218,-3.7544,-3.7112,-3.7031,-3.6877,-3.6466,-3.5762,-3.5593,-3.5181,-3.4591,-3.5483,-3.5484,0.0,0.0,-2.4647,-2.4711,0.0,0.0,0.0,0.0,0.0,0.0,0.0,0.0,0.0,0.0,-2.0544,-2.002,-1.9443,0.0,0.0,0.0,0.0,0.0,0.0,0.0,0.0,0.0,0.0,0.0,-2.4678,0.0,0.0,-2.8262,-2.9612,-3.1435,-3.1803,-3.2354,-3.3128,-3.3858,-3.424,-3.424,-3.4738,-3.4947,-3.4899,-3.4618,-3.457,-3.4691,-3.4546,-3.4521,-3.457,-3.4715,-3.4787,-3.4835,-3.4923,-3.5081,-3.5245,-3.5344,-3.5383,-3.5406,-3.5817,-3.6058,-3.6225,-3.6255,-3.6255,-3.6229,-3.6144,-3.6122,-3.6127,-3.6233,-3.6419,-3.6585,-3.6705,-3.7362,-3.7804,-3.7061,-3.7828,-3.8545,-3.788,-3.8207,-3.8496,-3.7948,-3.8019,-3.7854,-3.6843,-3.6774,-3.6791,-3.6645,-3.6211,-3.5509,-3.4388,-3.3729,-3.3265,-3.2997,-3.2932,-3.3189,-3.3941,-3.5041,-3.5983,-3.6692,-3.6575,-3.7065,-3.8298,-3.7093,-3.6591,-3.7057,-3.5897,-3.5367,-3.5573,-3.4463,-3.4054,-3.4305,-3.4228,-3.4063,-2.4614,-2.4602,0.0,-2.4566,-2.4253,0.0,-2.359,0.0,-2.2923,0.0,0.0,0.0,0.0,0.0,0.0,-1.9053,-1.8437,0.0,0.0,-1.749,0.0,0.0,0.0,0.0,0.0,0.0,-2.1803,-2.2508,-2.3572,0.0,0.0,0.0,-2.9211,-3.1104,-3.1444,-3.1946,-3.2702,-3.3538,-3.4054,-3.4273,-3.4785,-3.5018,-3.497,-3.4691,-3.4618,-3.4691,-3.4546,-3.4521,-3.457,-3.4618,-3.4691,-3.4763,-3.4811,-3.4994,-3.5245,-3.5354,-3.5406,-3.5503,-3.5839,-3.6058,-3.6187,-3.6191,-3.6212,-3.6229,-3.6225,-3.6165,-3.6152,-3.6381,-3.6464,-3.6544,-3.6705,-3.7283,-3.7666,-3.6963,-3.7749,-3.8468,-3.7825,-3.8192,-3.8483,-3.7972,-3.7829,-3.7502,-3.6506,-3.6185,-3.6003,-3.5787,-3.5285,-3.4625,-3.3775,-3.3157,-3.2786,-3.2786,-3.2805,-3.3002,-3.3499,-3.4829,-3.5681,-3.5851,-3.5979,-3.6533,-3.7507,-3.6526,-3.6045,-3.6204,-3.5033,-3.4508,-3.4643,-3.3589,-3.3308,-3.3761,-3.3371,-3.3232]},{"header":{"parameterUnit":"m.s-1","parameterCategory":1,"la1":30.6,"la2":29.2853,"lo1":-89.7004,"lo2":-87.6739,"dy":0.0162,"dx":0.0183,"nx":112,"ny":82,"refTime":"2025-04-22T06:00:00:Z","depth":0,"parameterNumber":3,"parameterNumberName":"V-component_of_WINDS"},"data":[0.0,0.0,0.0,0.0,0.0,0.0,0.0,0.0,0.0,0.0,0.0,0.0,0.0,0.0,0.0,0.0,0.0,0.0,0.0,0.0,0.0,0.0,0.0,0.0,0.0,0.0,0.0,0.0,0.0,0.0,0.0,0.0,0.0,0.0,0.0,0.0,0.0,0.0,0.0,0.0,0.0,0.0,0.0,0.0,0.0,0.0,0.0,0.0,0.0,0.0,0.0,0.0,0.0,0.0,0.0,0.0,0.0,0.0,0.0,0.0,0.0,0.0,0.0,0.0,0.0,0.0,0.0,0.0,0.0,0.0,0.0,0.0,0.0,0.0,0.0,0.0,0.0,0.0,0.0,0.0,0.0,0.0,0.0,0.0,0.0,0.0,0.0,0.0,0.0,0.0,0.2364,0.2203,0.2081,0.1935,0.168,0.2024,0.2442,0.2908,0.0,0.0,0.0,0.0,0.0,0.0,0.0,0.0,0.0,0.0,0.0,0.0,0.0,0.0,0.0,0.0,0.0,0.0,0.0,0.0,0.0,0.0,0.0,0.0,0.0,0.0,0.0,0.0,0.0,0.0,0.0,0.0,0.0,0.0,0.0,0.0,0.0,0.0,0.0,0.0,0.0,0.0,0.0,0.0,0.0,0.0,0.0,0.0,0.0,0.0,0.0,0.0,0.0,0.0,0.0,0.0,0.0,0.0,0.0,0.0,0.0,0.0,0.0,0.0,0.0,0.0,0.0,0.0,0.0,0.0,0.0,0.0,0.0,0.0,0.0,0.0,0.0,0.0,0.0,0.0,0.0,0.0,0.0,0.0,0.0,0.0,0.0,0.0,0.0,0.0,0.0,0.0,0.0,0.0,0.0,0.0,0.0,0.0,0.0,0.0,0.0,0.0,0.0,0.0,0.2075,0.2102,0.2144,0.2205,0.2344,0.2481,0.2829,0.3518,0.0,0.0,0.0,0.0,0.0,0.0,0.0,0.0,0.0,0.0,0.0,0.0,0.0,0.0,0.0,0.0,0.0,0.0,0.0,0.0,0.0,0.0,0.0,0.0,0.0,0.0,0.0,0.0,0.0,0.0,0.0,0.0,0.0,0.0,0.0,0.0,0.0,0.0,0.0,0.0,0.0,0.0,0.0,0.0,0.0,0.0,0.0,0.0,0.0,0.0,0.0,0.0,0.0,0.0,0.0,0.0,0.0,0.0,0.0,0.0,0.0,0.0,0.0,0.0,0.0,0.0,0.0,0.0,0.0,0.0,0.0,0.0,0.0,0.0,0.0,0.0,0.0,0.0,0.0,0.0,0.0,0.0,0.0,0.0,0.0,0.0,0.0,0.0,0.0,0.0,0.0,0.0,0.0,0.0,0.0,0.0,0.0,0.0,0.0,0.0,0.0,0.0,0.0,0.2056,0.2123,0.2202,0.2513,0.2675,0.2556,0.2835,0.3217,0.3681,0.3873,0.0,0.0,0.0,0.0,0.0,0.0,0.0,0.0,0.0,0.0,0.0,0.0,0.0,0.0,0.0,0.0,0.0,0.0,0.0,0.0,0.0,0.0,0.0,0.0,0.0,0.0,0.0,0.0,0.0,0.0,0.0,0.0,0.0,0.0,0.0,0.0,0.0,0.0,0.0,0.0,0.0,0.0,0.0,0.0,0.0,0.0,0.0,0.0,0.0,0.0,0.0,0.0,0.0,0.0,0.0,0.0,0.0,0.0,0.0,0.0,0.0,0.0,0.0,0.0,0.0,0.0,0.0,0.0,0.0,0.0,0.0,0.0,0.0,0.0,0.0,0.0,0.0,0.0,0.0,0.0,0.0,0.0,0.0,0.0,0.0,0.0,0.0,0.0,0.0,0.0,0.0,0.0,0.0,0.0,0.0,0.0,0.0,0.0,0.0,0.0,0.0,0.0,0.2096,0.2255,0.2394,0.2836,0.303,0.2841,0.3128,0.3465,0.3809,0.4102,0.0,0.0,0.0,0.0,0.0,0.0,0.0,0.0,0.0,0.0,0.0,0.0,0.0,0.0,0.0,0.0,0.0,0.0,0.0,0.0,0.0,0.0,0.0,0.0,0.0,0.0,0.0,0.0,0.0,0.0,0.0,0.0,0.0,0.0,0.0,0.0,0.0,0.0,0.0,0.0,0.0,0.0,0.0,0.0,0.0,0.0,0.0,0.0,0.0,0.0,0.0,0.0,0.0,0.0,0.0,0.0,0.0,0.0,0.0,0.0,0.0,0.0,0.0,0.0,0.0,0.0,0.0,0.0,0.0,0.0,0.0,0.0,0.0,0.0,0.0,0.0,0.0,0.0,0.0,0.0,0.0,0.0,0.0,0.0,0.0,0.0,0.0,0.0,0.0,0.0,0.0,0.0,0.0,0.0,0.0,0.0,0.0,0.0,0.0,0.0,0.0,0.0,0.1898,0.2326,0.2629,0.275,0.3025,0.348,0.3222,0.3383,0.4198,0.4327,0.0,0.0,0.0,0.0,0.0,0.0,0.0,0.0,0.0,0.0,0.0,0.0,0.0,0.0,0.0,0.0,0.0,0.0,0.0,0.0,0.0,0.0,0.0,0.0,0.0,0.0,0.0,0.0,0.0,0.0,0.0,0.0,0.0,0.0,0.0,0.0,0.0,0.0,0.0,0.0,0.0,0.0,0.0,0.0,0.0,0.0,0.0,0.0,0.0,0.0,0.0,0.0,0.0,0.0,0.0,0.0,0.0,0.0,0.0,0.0,0.0,0.0,0.0,0.0,0.0,0.0,0.0,0.0,0.0,0.0,0.0,0.0,0.0,0.0,0.0,0.0,0.0,0.0,0.0,0.0,0.0,0.0,0.0,0.0,0.0,0.0,0.0,0.0,0.0,0.0,0.0,0.0,0.0,0.0,0.0,0.0,0.0,0.0,0.0,0.0,0.0,0.0,0.2153,0.2576,0.0,0.3207,0.3493,0.3697,0.367,0.3785,0.4154,0.0,0.0,0.0,0.0,0.0,0.0,0.0,0.0,0.0,0.0,0.0,0.0,0.0,0.0,0.0,0.0,0.0,0.0,0.0,0.0,0.0,0.0,0.0,0.0,0.0,0.0,0.0,0.0,0.0,0.0,0.0,0.0,0.0,0.0,0.0,0.0,0.0,0.0,0.0,0.0,0.0,0.0,0.0,0.0,0.0,0.0,0.0,0.0,0.0,0.0,0.0,0.0,0.0,0.0,0.0,0.0,0.0,0.0,0.0,0.0,0.0,0.0,0.0,0.0,0.0,0.0,0.0,0.0,0.0,0.0,0.0,0.0,0.0,0.0,0.0,0.0,0.0,0.0,0.0,0.0,0.0,0.0,0.0,0.0,0.0,0.0,0.0,0.0,0.0,0.0,0.0,0.0,0.0,0.0,0.0,0.0,0.0,0.0,0.0,0.0,0.0,0.0,0.1877,0.2293,0.2711,0.0,0.3438,0.3716,0.3916,0.3889,0.3941,0.4059,0.0,0.0,0.0,0.0,0.0,0.0,0.0,0.0,0.0,0.0,0.0,0.0,0.0,0.0,0.0,0.0,0.0,0.0,0.0,0.0,0.0,0.0,0.0,0.0,0.0,0.0,0.0,0.0,0.0,0.0,0.0,0.0,0.0,0.0,0.0,0.0,0.0,0.0,0.0,0.0,0.0,0.0,0.0,0.0,0.0,0.0,0.0,0.0,0.0,0.0,0.0,0.0,0.0,0.0,0.0,0.0,0.0,0.0,0.0,0.0,0.0,0.0,0.0,0.0,0.0,0.0,0.0,0.0,0.0,0.0,0.0,0.0,0.0,0.0,0.0,0.0,0.0,0.0,0.0,0.0,0.0,0.0,0.0,0.0,0.0,0.0,0.0,0.0,0.0,0.0,0.0,0.0,0.0,0.0,0.0,0.0,0.0,0.0,0.0,0.0,0.0,0.0,0.1994,0.2313,0.2778,0.3442,0.3375,0.3529,0.4133,0.3837,0.3723,0.0,0.0,0.0,0.0,0.0,0.0,0.0,0.0,0.0,0.0,0.0,0.0,0.0,0.0,0.0,0.0,0.0,0.0,0.0,0.0,0.0,0.0,0.0,0.0,0.0,0.0,0.0,0.0,0.0,0.0,0.0,0.0,0.0,0.0,0.0,0.0,0.0,0.0,0.0,0.0,0.0,0.0,0.0,0.0,0.0,0.0,0.0,0.0,0.0,0.0,0.0,0.0,0.0,0.0,0.0,0.0,0.0,0.0,0.0,0.0,0.0,0.0,0.0,0.0,0.0,0.0,0.0,0.0,0.0,0.0,0.0,0.0,0.0,0.0,0.0,0.0,0.0,0.0,0.0,0.0,0.0,0.0,0.0,0.0,0.0,0.0,0.0,0.0,0.0,0.0,0.0,0.0,0.0,0.0,0.0,0.0,0.0,0.0,0.0,0.0,0.0,0.0,0.0,0.2299,0.2715,0.3166,0.3654,0.3505,0.3606,0.4158,0.3747,0.3507,0.3639,0.0,0.0,0.0,0.0,0.0,0.0,0.0,0.0,0.0,0.0,0.0,0.0,0.0,0.0,0.0,0.0,0.0,0.0,0.0,0.0,0.0,0.0,0.0,0.0,0.0,0.0,0.0,0.0,0.0,0.0,0.0,0.0,0.0,0.0,0.0,0.0,0.0,0.0,0.0,0.0,0.0,0.0,0.0,0.0,0.0,0.0,0.0,0.0,0.0,0.0,0.0,0.0,0.0,0.0,0.0,0.0,0.0,0.0,0.0,0.0,0.0,0.0,0.0,0.0,0.0,0.0,0.0,0.0,0.0,0.0,0.0,0.0,0.0,0.0,0.0,0.0,0.0,0.0,0.0,0.0,0.0,0.0,0.0,0.0,0.0,0.0,0.0,0.0,0.0,0.0,0.0,0.0,0.0,0.0,0.0,0.0,0.0,0.0,0.0,0.0,0.0,0.0,0.273,0.3082,0.3484,0.3754,0.3711,0.3746,0.4012,0.3773,0.3504,0.3301,0.0,0.0,0.0,0.0,0.0,0.0,0.0,0.0,0.0,0.0,0.0,0.0,0.0,0.0,0.0,0.0,0.0,0.0,0.0,0.0,0.0,0.0,0.0,0.0,0.0,0.0,0.0,0.0,0.0,0.0,0.0,0.0,0.0,0.0,0.0,0.0,0.0,0.0,0.0,0.0,0.0,0.0,0.0,0.0,0.0,0.0,0.0,0.0,0.0,0.0,0.0,0.0,0.0,0.0,0.0,0.0,0.0,0.0,0.0,0.0,0.0,0.0,0.0,0.0,0.0,0.0,0.0,0.0,0.0,0.0,0.0,0.0,0.0,0.0,0.0,0.0,0.0,0.0,0.0,0.0,0.0,0.0,0.0,0.0,0.0,0.0,0.0,0.0,0.0,0.0,0.0,0.0,0.0,0.0,0.0,0.0,0.0,0.0,0.0,0.0,0.0,0.0,0.3211,0.344,0.3649,0.3813,0.3885,0.3906,0.3835,0.3807,0.3582,0.3058,0.0,0.0,0.0,0.0,0.0,0.0,0.0,0.0,0.0,0.0,0.0,0.0,0.0,0.0,0.0,0.0,0.0,0.0,0.0,0.0,0.0,0.0,0.0,0.0,0.0,0.0,0.0,0.0,0.0,0.0,0.0,0.0,0.0,0.0,0.0,0.0,0.0,0.0,0.0,0.0,0.0,0.0,0.0,0.0,0.0,0.0,0.0,0.0,0.0,0.0,0.0,0.0,0.0,0.0,0.0,0.0,0.0,0.0,0.0,0.0,0.5788,0.0,0.0,0.0,0.0,0.0,0.0,0.0,0.0,0.0,0.0,0.0,0.0,0.0,0.0,0.0,0.0,0.0,0.0,0.0,0.0,0.0,0.0,0.0,0.0,0.0,0.0,0.0,0.0,0.0,0.0,0.0,0.0,0.0,0.0,0.0,0.0,0.0,0.0,0.0,0.0,0.0,0.3265,0.3365,0.3582,0.3915,0.3687,0.3662,0.4022,0.3521,0.3237,0.3309,0.3146,0.0,0.0,0.0,0.0,0.0,0.0,0.0,0.0,0.0,0.0,0.0,0.0,0.0,0.0,0.0,0.0,0.0,0.0,0.0,0.0,0.0,0.0,0.0,0.0,0.0,0.0,0.0,0.0,0.0,0.0,0.0,0.0,0.0,0.0,0.0,0.0,0.0,0.0,0.0,0.0,0.0,0.0,0.0,0.0,0.0,0.0,0.0,0.0,0.0,0.0,0.0,0.0,0.0,0.0,0.0,0.0,0.0,0.0,0.0,0.0,0.6752,0.0,0.0,0.0,0.0,0.0,0.0,0.0,0.0,0.0,0.0,0.0,0.0,0.0,0.0,0.0,0.0,0.0,0.0,0.0,0.0,0.0,0.0,0.0,0.0,0.0,0.0,0.0,0.0,0.0,0.0,0.0,0.0,0.0,0.0,0.0,0.0,0.0,0.0,0.0,0.0,0.349,0.368,0.3868,0.399,0.3914,0.3878,0.4039,0.367,0.3369,0.3229,0.3089,0.0,0.0,0.0,0.0,0.0,0.0,0.0,0.0,0.0,0.0,0.0,0.0,0.0,0.0,0.0,0.0,0.0,0.0,0.0,0.0,0.0,0.0,0.0,0.0,0.0,0.0,0.0,0.0,0.0,0.0,0.0,0.0,0.0,0.0,0.0,0.0,0.0,0.0,0.0,0.0,0.0,0.0,0.0,0.0,0.0,0.0,0.0,0.0,0.0,0.0,0.0,0.0,0.0,0.3933,0.4204,0.4342,0.4951,0.5701,0.6493,0.6852,0.7028,0.7076,0.7421,0.0,0.0,0.0,0.0,0.0,0.0,0.0,0.0,0.0,0.0,0.0,0.0,0.0,0.0,0.0,0.0,0.0,0.0,0.0,0.0,0.0,0.0,0.0,0.0,0.2587,0.276,0.0,0.0,0.0,0.0,0.0,0.0,0.0,0.0,0.0,0.0,0.0,0.0,0.379,0.4035,0.4176,0.4059,0.4164,0.4164,0.4061,0.3935,0.365,0.3138,0.3098,0.2935,0.0,0.0,0.0,0.0,0.0,0.0,0.0,0.0,0.0,0.0,0.0,0.0,0.0,0.0,0.0,0.0,0.0,0.0,0.0,0.0,0.0,0.0,0.0,0.0,0.0,0.0,0.0,0.0,0.0,0.0,0.0,0.0,0.6365,0.5617,0.0,0.0,0.0,0.0,0.0,0.0,0.0,0.0,0.0,0.0,0.0,0.0,0.0,0.3392,0.3418,0.3793,0.3858,0.3675,0.4413,0.4892,0.5163,0.5884,0.6574,0.7196,0.7631,0.0,0.8069,0.7544,0.0,0.0,0.0,0.0,0.0,0.0,0.0,0.0,0.0,0.0,0.0,0.0,0.0,0.0,0.0,0.0,0.0,0.0,0.0,0.0,0.0,0.0,0.2875,0.2762,0.2884,0.3097,0.0,0.3231,0.311,0.2928,0.3014,0.0,0.0,0.0,0.0,0.0,0.0,0.0,0.4091,0.4024,0.4018,0.4223,0.4028,0.3961,0.4233,0.3883,0.3641,0.3602,0.3497,0.3324,0.3099,0.3029,0.0,0.0,0.0,0.0,0.0,0.0,0.0,0.0,0.0,0.0,0.0,0.0,0.0,0.0,0.0,0.0,0.0,0.0,0.0,0.0,0.0,0.0,0.0,0.0,0.0,0.0,0.0,0.0,0.0,0.6749,0.6531,0.6182,0.6098,0.5979,0.0,0.0,0.0,0.0,0.0,0.0,0.0,0.0,0.0,0.367,0.3407,0.3572,0.4108,0.4042,0.4159,0.4433,0.4856,0.5202,0.5437,0.6227,0.6704,0.6988,0.763,0.7806,0.7658,0.7582,0.751,0.7362,0.0,0.0,0.0,0.0,0.4723,0.4436,0.4513,0.4644,0.0,0.4993,0.0,0.0,0.0,0.0,0.0,0.0,0.0,0.0,0.0,0.0,0.3162,0.3204,0.342,0.3653,0.3658,0.3814,0.3803,0.0,0.3516,0.3701,0.3838,0.0,0.0,0.0,0.0,0.4228,0.4142,0.4145,0.4142,0.4125,0.4195,0.4228,0.4131,0.4094,0.394,0.3725,0.3587,0.3455,0.3329,0.326,0.3287,0.0,0.0,0.0,0.0,0.0,0.0,0.0,0.0,0.0,0.0,0.0,0.0,0.0,0.0,0.0,0.0,0.0,0.0,0.0,0.0,0.0,0.0,0.0,0.0,0.0,0.0,0.0,0.0,0.6889,0.6774,0.6649,0.6365,0.6267,0.0,0.0,0.0,0.0,0.0,0.0,0.4789,0.4393,0.4129,0.3968,0.3669,0.3858,0.4585,0.4369,0.453,0.5004,0.5368,0.5622,0.5802,0.6605,0.702,0.7102,0.7584,0.764,0.7386,0.7617,0.7573,0.7335,0.6639,0.6008,0.5507,0.5182,0.4896,0.4673,0.4839,0.4998,0.5147,0.5405,0.0,0.5119,0.4797,0.0,0.0,0.0,0.0,0.3563,0.323,0.3231,0.341,0.3684,0.3909,0.4032,0.4045,0.4224,0.4274,0.0,0.3945,0.4148,0.4343,0.0,0.0,0.0,0.0,0.4612,0.4267,0.4322,0.4287,0.4056,0.4276,0.4348,0.4053,0.417,0.413,0.385,0.3735,0.3625,0.3517,0.3471,0.345,0.3481,0.0,0.0,0.0,0.0,0.0,0.0,0.0,0.0,0.0,0.0,0.0,0.0,0.0,0.0,0.0,0.0,0.0,0.0,0.0,0.0,0.0,0.0,0.0,0.0,0.0,0.0,0.0,0.0,0.0,0.6478,0.646,0.0,0.0,0.0,0.0,0.616,0.6137,0.6047,0.5836,0.5639,0.5224,0.4671,0.4452,0.4325,0.433,0.4817,0.5025,0.5024,0.6034,0.6538,0.6577,0.7387,0.7861,0.8038,0.7883,0.7787,0.7783,0.7724,0.7465,0.7065,0.6661,0.6044,0.5393,0.5255,0.5025,0.4818,0.5104,0.5379,0.5683,0.5765,0.5382,0.4908,0.474,0.4473,0.0,0.0,0.3587,0.3729,0.3515,0.3449,0.3559,0.4287,0.4133,0.3962,0.4529,0.4412,0.413,0.0,0.4105,0.4486,0.4795,0.0,0.5178,0.5154,0.511,0.4957,0.4609,0.4579,0.4449,0.414,0.4063,0.4051,0.4105,0.3926,0.3938,0.4161,0.4154,0.4047,0.3802,0.3658,0.3535,0.3416,0.3425,0.0,0.0,0.0,0.0,0.0,0.0,0.0,0.0,0.0,0.0,0.0,0.0,0.0,0.0,0.0,0.0,0.0,0.0,0.0,0.0,0.0,0.0,0.0,0.0,0.0,0.0,0.0,0.0,0.713,0.6876,0.0,0.7071,0.689,0.674,0.6672,0.6489,0.6227,0.5863,0.5698,0.5406,0.4984,0.4799,0.4857,0.5136,0.4944,0.5082,0.5589,0.598,0.6251,0.6451,0.7257,0.7438,0.7154,0.7619,0.7687,0.7491,0.7418,0.7359,0.7315,0.693,0.6465,0.5997,0.5616,0.5407,0.5316,0.5333,0.552,0.5766,0.5707,0.5332,0.4862,0.4697,0.4397,0.4061,0.3636,0.3657,0.3744,0.3553,0.3603,0.383,0.4318,0.4349,0.4338,0.4634,0.4657,0.4648,0.4574,0.4711,0.4919,0.5121,0.549,0.5675,0.5384,0.5386,0.5233,0.4662,0.4599,0.4511,0.4238,0.433,0.4352,0.4243,0.4293,0.4314,0.4332,0.4335,0.4298,0.4197,0.3968,0.3804,0.3657,0.3703,0.3609,0.0,0.0,0.0,0.0,0.0,0.0,0.0,0.0,0.0,0.0,0.0,0.0,0.0,0.0,0.0,0.0,0.0,0.0,0.0,0.0,0.0,0.0,0.0,0.0,0.0,0.7971,0.7718,0.7631,0.7218,0.7088,0.7449,0.727,0.7112,0.7197,0.7044,0.6848,0.6573,0.6353,0.6104,0.5831,0.5453,0.5384,0.5712,0.5246,0.5362,0.6022,0.6022,0.6215,0.6525,0.7004,0.7078,0.6929,0.7336,0.7489,0.7453,0.7286,0.7306,0.7455,0.6841,0.6421,0.607,0.5668,0.5479,0.55,0.5591,0.5704,0.5864,0.5769,0.5364,0.4901,0.4683,0.4433,0.4131,0.3705,0.3735,0.3891,0.3758,0.3851,0.4077,0.4585,0.4686,0.4731,0.4913,0.5012,0.5116,0.5173,0.5224,0.5344,0.5607,0.5974,0.6164,0.5798,0.5711,0.545,0.483,0.4785,0.4643,0.4375,0.4528,0.4589,0.4339,0.447,0.4513,0.4461,0.4493,0.4449,0.4333,0.4149,0.3924,0.3678,0.3619,0.3341,0.2806,0.0,0.0,0.0,0.0,0.0,0.0,0.0,0.0,0.0,0.0,0.0,0.0,0.0,0.0,0.0,0.0,0.0,0.0,0.0,0.0,0.0,0.0,0.0,0.9334,0.8603,0.8043,0.7822,0.7423,0.7263,0.7504,0.7166,0.7169,0.7762,0.7812,0.7895,0.8093,0.7714,0.7446,0.7219,0.6405,0.598,0.5983,0.5796,0.5915,0.6345,0.6349,0.6539,0.6903,0.6708,0.6931,0.7467,0.7088,0.7241,0.7748,0.7333,0.7285,0.7397,0.6384,0.5845,0.5604,0.5401,0.5318,0.5372,0.5811,0.5983,0.5976,0.5976,0.5525,0.4937,0.4748,0.4594,0.4373,0.3695,0.3844,0.4189,0.4121,0.4114,0.4311,0.5101,0.5214,0.5159,0.5352,0.547,0.5525,0.5519,0.5586,0.5766,0.6245,0.6483,0.6569,0.6433,0.6085,0.0,0.5174,0.5106,0.494,0.4461,0.4647,0.4679,0.4442,0.4412,0.4471,0.4603,0.4661,0.4552,0.4221,0.4129,0.3887,0.3407,0.3132,0.2665,0.2013,0.0,0.0,0.0,0.0,0.0,0.0,0.0,0.0,0.0,0.0,0.0,0.0,0.0,0.0,0.0,0.0,0.0,0.0,0.0,0.0,0.0,1.0217,0.9864,0.8732,0.8354,0.8028,0.7631,0.722,0.7187,0.7663,0.7624,0.7694,0.7996,0.8279,0.8301,0.7897,0.8055,0.7983,0.7633,0.7399,0.7421,0.771,0.7509,0.7391,0.7399,0.7528,0.7404,0.704,0.7184,0.7259,0.7273,0.7076,0.722,0.7519,0.6875,0.6899,0.7205,0.6506,0.6279,0.6324,0.5749,0.5532,0.561,0.5625,0.5509,0.5313,0.5136,0.4815,0.4487,0.4421,0.4374,0.429,0.4072,0.4208,0.4394,0.4331,0.4434,0.4655,0.5066,0.5155,0.528,0.561,0.5715,0.5803,0.6109,0.6281,0.6409,0.6511,0.6674,0.681,0.6761,0.6479,0.0,0.552,0.5382,0.5209,0.494,0.4756,0.4693,0.4769,0.4594,0.454,0.4671,0.4685,0.4626,0.4503,0.4289,0.3918,0.3416,0.2993,0.2615,0.0,0.0,0.0,0.0,0.0,0.0,0.0,0.0,0.0,0.0,0.0,0.0,0.0,0.0,0.0,0.0,0.0,0.0,0.0,0.0,0.0,0.0,1.0588,1.0256,0.8894,0.8728,0.8625,0.8296,0.7688,0.7487,0.7857,0.7681,0.7699,0.808,0.8403,0.8513,0.8322,0.8513,0.8589,0.8437,0.836,0.8494,0.8809,0.8608,0.8373,0.8101,0.8011,0.7689,0.7128,0.7111,0.7147,0.7207,0.7143,0.7305,0.7599,0.7161,0.7169,0.0,0.0,0.0,0.0,0.0,0.5931,0.5919,0.5725,0.5494,0.528,0.5025,0.4797,0.4591,0.445,0.452,0.4561,0.4265,0.4372,0.4601,0.4523,0.4614,0.4833,0.5217,0.5365,0.5512,0.5839,0.5985,0.6135,0.6341,0.6613,0.0,0.7072,0.7133,0.7086,0.6937,0.669,0.6305,0.5697,0.5529,0.5388,0.512,0.4942,0.4828,0.4897,0.4693,0.0,0.0,0.0,0.4508,0.4272,0.3949,0.0,0.0,0.0,0.0,0.0,0.0,0.0,0.0,0.1128,0.0856,0.0,0.0,0.0,0.0,0.0,0.0,0.0,0.0,0.0,0.0,0.0,0.0,0.0,0.0,0.0,0.0,1.0765,1.0856,0.9652,0.9524,0.9447,0.9142,0.8366,0.7886,0.7929,0.7552,0.7501,0.8089,0.8365,0.8655,0.9053,0.0,0.0,0.0,0.0,0.937,0.9631,0.942,0.9102,0.8696,0.8272,0.7818,0.7362,0.6976,0.6982,0.7347,0.7298,0.7504,0.7834,0.7776,0.7735,0.7649,0.6574,0.6242,0.6349,0.6349,0.6339,0.6287,0.6008,0.0,0.0,0.5295,0.513,0.4987,0.4694,0.4816,0.4953,0.439,0.4483,0.4798,0.4696,0.4739,0.4958,0.5494,0.566,0.5823,0.6061,0.6276,0.644,0.6457,0.6683,0.7107,0.771,0.7637,0.7373,0.7048,0.6829,0.6475,0.5752,0.5642,0.5484,0.512,0.0,0.0,0.4904,0.4695,0.4565,0.4532,0.4487,0.4282,0.3817,0.3482,0.3166,0.2867,0.2739,0.2461,0.2085,0.206,0.1833,0.1455,0.1291,0.1084,0.0,0.0,0.0,0.0,0.0,0.0,0.0,0.0,0.0,0.0,0.0,0.0,0.0,0.0,0.0,1.1196,1.1236,1.1115,1.0579,1.0174,0.942,0.8173,0.7748,0.7588,0.7605,0.7663,0.7865,0.83,0.8827,0.9242,0.9552,0.9509,0.9665,1.008,1.0089,1.0363,1.0924,1.0727,1.0444,1.0034,0.0,0.0,0.8418,0.8173,0.8078,0.8125,0.7554,0.7588,0.8016,0.759,0.7451,0.7546,0.7317,0.695,0.6562,0.6708,0.6663,0.6477,0.5997,0.563,0.5287,0.4932,0.4775,0.4668,0.4634,0.4674,0.0,0.4952,0.4888,0.4855,0.5104,0.5054,0.5065,0.5515,0.5777,0.5989,0.6223,0.6464,0.6688,0.6779,0.6848,0.7107,0.771,0.7635,0.7526,0.7623,0.7198,0.6676,0.6136,0.5804,0.5484,0.512,0.4857,0.474,0.4883,0.4629,0.45,0.465,0.4499,0.4232,0.3819,0.3837,0.3674,0.3292,0.3156,0.2921,0.2556,0.2344,0.2111,0.1864,0.1477,0.1185,0.0,0.0,0.0,0.0,0.0,0.0,0.0,0.0,0.0,0.0,0.0,1.1566,1.1118,0.0,1.1309,1.1309,1.1371,1.1247,1.0618,1.0396,0.9748,0.8361,0.8111,0.7971,0.781,0.798,0.8226,0.8528,0.8932,0.9259,0.9478,0.9553,0.9786,1.0242,1.0522,1.0913,1.1445,1.1444,1.1189,1.0697,1.0176,0.9527,0.867,0.8398,0.8242,0.8225,0.7968,0.7992,0.8208,0.7841,0.7744,0.7791,0.7791,0.7541,0.7199,0.7308,0.7218,0.6998,0.6507,0.6038,0.5591,0.53,0.5253,0.5271,0.5056,0.5225,0.5494,0.5414,0.5292,0.5245,0.5425,0.5362,0.5365,0.5673,0.5945,0.6192,0.6408,0.6655,0.689,0.7005,0.7129,0.737,0.788,0.7792,0.7621,0.7559,0.722,0.6722,0.6127,0.5719,0.5388,0.512,0.4796,0.4667,0.4893,0.4532,0.4339,0.4429,0.4161,0.3925,0.3722,0.3693,0.3613,0.3412,0.3165,0.2923,0.2705,0.2485,0.2285,0.2097,0.1865,0.165,0.0,0.0,0.0,0.0,0.0,0.0,0.0,1.2605,1.2401,1.2739,1.2531,1.2114,1.1631,1.1403,1.1285,1.1285,1.1484,1.1341,1.0523,1.0485,1.0098,0.8903,0.8635,0.8482,0.8174,0.8325,0.8554,0.8727,0.897,0.9199,0.9409,0.9596,0.9906,1.0328,1.0762,1.1169,1.1649,1.1642,1.1433,1.1027,1.0279,0.9524,0.8818,0.8444,0.8252,0.8217,0.8403,0.8441,0.8403,0.8217,0.814,0.8102,0.8102,0.8059,0.797,0.7897,0.7749,0.7492,0.7075,0.6573,0.6094,0.5872,0.5909,0.5986,0.5653,0.5868,0.6178,0.5829,0.5654,0.5598,0.5637,0.5637,0.5676,0.5906,0.6156,0.6398,0.663,0.6851,0.7064,0.7166,0.734,0.7571,0.7954,0.7834,0.7607,0.7398,0.7133,0.6684,0.5936,0.5557,0.5259,0.5024,0.4725,0.4599,0.4766,0.4424,0.4185,0.4134,0.3857,0.3635,0.3557,0.3518,0.3464,0.3413,0.3137,0.2914,0.2772,0.2605,0.2465,0.2296,0.2268,0.2127,1.3621,1.3006,1.2718,1.2223,1.2724,1.354,0.0,1.4314,1.4277,1.492,1.4265,1.3478,1.3126,1.2456,1.1973,1.1973,1.1872,1.1529,1.0832,1.0776,1.0326,0.9107,0.869,0.8443,0.8287,0.8523,0.8763,0.8955,0.9322,0.9648,0.9898,1.0076,1.0323,1.0822,1.0885,1.1187,1.177,1.1081,1.0886,1.1187,1.0126,0.9495,0.9213,0.8985,0.8805,0.8627,0.8665,0.8551,0.8403,0.8365,0.8255,0.8102,0.8102,0.8289,0.8566,0.8207,0.7956,0.7691,0.7157,0.6813,0.6578,0.623,0.6162,0.6162,0.6126,0.6086,0.6054,0.6197,0.5921,0.5637,0.5825,0.575,0.5715,0.6145,0.6395,0.661,0.6839,0.7019,0.7184,0.7187,0.7229,0.7351,0.7778,0.75,0.7325,0.753,0.7078,0.6465,0.5719,0.5352,0.502,0.4691,0.4464,0.4306,0.4288,0.4241,0.4094,0.3862,0.3915,0.3806,0.3446,0.3623,0.3657,0.3416,0.3357,0.3246,0.3047,0.28,0.2663,0.2635,0.2521,0.2352,1.3951,1.3729,1.3757,1.3674,1.4303,1.5028,1.5348,1.5536,1.5604,1.5624,1.5051,1.4393,1.3814,1.31,1.2597,1.2521,1.2212,1.184,1.1428,1.1115,1.0643,0.9849,0.961,0.9303,0.8856,0.8963,0.9129,0.9334,0.9511,0.9632,0.9745,0.98,1.0003,1.0302,1.0484,1.0718,1.109,1.0862,1.0784,1.0857,1.0132,0.9599,0.9289,0.8952,0.8784,0.8703,0.8703,0.8736,0.8728,0.8376,0.824,0.8256,0.8034,0.803,0.8169,0.8127,0.8192,0.8222,0.7674,0.7265,0.7025,0.6741,0.6672,0.6635,0.6493,0.6566,0.6654,0.6498,0.6318,0.6177,0.6141,0.6064,0.6103,0.6412,0.6637,0.6846,0.7049,0.7223,0.7388,0.7385,0.7484,0.7516,0.7477,0.7398,0.7255,0.6961,0.6626,0.6247,0.5818,0.5388,0.4957,0.4625,0.4597,0.4525,0.4345,0.426,0.4105,0.392,0.3749,0.3575,0.3416,0.3398,0.3344,0.3218,0.3216,0.3188,0.3102,0.2914,0.2858,0.2938,0.28,0.2691,1.4138,1.4211,1.4473,1.469,1.5251,1.5869,1.6147,1.6408,1.6528,1.6364,1.5711,1.5003,1.4427,1.3617,1.3022,1.2964,1.2662,1.2313,1.1972,1.1595,1.1143,1.0624,1.049,1.0239,0.9771,0.9611,0.9564,0.9604,0.9657,0.9657,0.962,0.9695,0.9846,0.9992,1.0209,1.0451,1.0666,1.0644,1.0567,1.0473,0.9926,0.9506,0.9213,0.8861,0.8703,0.8703,0.8703,0.8755,0.8808,0.8351,0.8224,0.8217,0.7966,0.7842,0.7804,0.7953,0.825,0.8479,0.7953,0.7635,0.7401,0.7214,0.7139,0.7102,0.6918,0.7007,0.7142,0.6834,0.6714,0.6637,0.6486,0.6447,0.6525,0.6718,0.6868,0.7019,0.7257,0.7407,0.7522,0.7561,0.7642,0.7618,0.7328,0.7338,0.7131,0.6504,0.6246,0.6017,0.5789,0.5326,0.4924,0.4625,0.4631,0.4566,0.4371,0.4179,0.4027,0.3946,0.3629,0.3441,0.3413,0.3272,0.3188,0.3188,0.313,0.313,0.3188,0.3023,0.3009,0.306,0.2953,0.2904,1.3964,1.4242,1.4557,1.4741,1.5158,1.5785,1.6737,1.6873,1.6938,1.7531,1.6437,1.5338,1.5206,1.4032,1.315,1.327,1.3252,1.3012,1.2383,1.2269,1.2,1.1339,1.1106,1.1002,1.1054,1.0497,0.9999,0.9642,0.9771,0.9809,0.9625,0.996,1.018,1.018,1.0374,1.0599,1.0787,1.0229,1.004,1.0191,0.9402,0.9022,0.8984,0.8784,0.8703,0.8703,0.8703,0.8594,0.8412,0.8403,0.8183,0.7846,0.803,0.7991,0.7804,0.7804,0.7953,0.8102,0.788,0.7799,0.7753,0.7553,0.7476,0.7476,0.7476,0.733,0.7184,0.718,0.7022,0.6899,0.6865,0.6865,0.6942,0.7142,0.718,0.7257,0.7446,0.7484,0.7561,0.7761,0.7642,0.7499,0.7504,0.7211,0.6891,0.6463,0.6127,0.5789,0.5462,0.5063,0.4761,0.4625,0.4431,0.4303,0.4212,0.3914,0.3751,0.3791,0.3666,0.3527,0.3413,0.3385,0.3385,0.3385,0.3188,0.3188,0.3385,0.3188,0.3069,0.2988,0.293,0.2853,1.3789,1.4204,1.4681,1.4827,1.555,1.6312,1.6669,1.6906,1.7027,1.688,1.6236,1.5653,1.5368,1.4525,1.3968,1.4367,1.399,1.3529,1.3225,1.2957,1.2604,1.2018,1.1996,1.1839,1.148,0.0,0.0,1.0201,0.9992,0.9884,0.9809,0.9916,1.022,1.0726,1.0808,1.0847,1.0918,1.0731,1.0264,0.9582,0.9051,0.8865,0.8984,0.8941,0.898,0.9089,0.9089,0.9129,0.9169,0.8913,0.8712,0.8556,0.8381,0.8178,0.7991,0.7991,0.803,0.8068,0.788,0.7876,0.7991,0.791,0.791,0.7872,0.7723,0.7646,0.7531,0.7261,0.7142,0.7061,0.6942,0.6903,0.6903,0.698,0.7103,0.7219,0.7296,0.7526,0.7684,0.7603,0.7542,0.7434,0.7219,0.697,0.6652,0.6131,0.5855,0.562,0.5428,0.5296,0.5126,0.4957,0.4781,0.4591,0.4345,0.4075,0.3865,0.3808,0.3577,0.3441,0.3413,0.3272,0.3272,0.3385,0.333,0.3419,0.3668,0.3467,0.3438,0.3603,0.3475,0.3361,1.4094,1.4559,1.5016,1.5147,1.5804,1.6412,1.65,1.6776,1.6906,1.6591,1.6153,1.5767,1.5633,1.4887,1.4459,1.4997,1.4666,1.4238,1.388,1.3761,1.3419,1.2745,1.2732,1.2533,1.1844,1.1136,0.0,1.0501,1.0255,1.0067,0.9922,1.003,1.0328,1.0791,1.1027,1.1103,1.1027,1.0873,1.0302,0.9284,0.9051,0.8975,0.9099,0.9099,0.9175,0.9284,0.9284,0.9364,0.948,0.9219,0.9053,0.897,0.8799,0.8518,0.8217,0.8293,0.825,0.8178,0.7991,0.7991,0.8102,0.8102,0.8102,0.8063,0.788,0.7842,0.7838,0.7411,0.7373,0.7373,0.7253,0.7215,0.7215,0.7134,0.7215,0.7296,0.7219,0.7454,0.7663,0.7626,0.7614,0.7516,0.7155,0.6777,0.6386,0.5973,0.5719,0.555,0.5425,0.5395,0.5326,0.512,0.5009,0.4845,0.4497,0.4225,0.4013,0.3891,0.3608,0.3471,0.3471,0.3357,0.3355,0.3549,0.3549,0.3665,0.3931,0.3759,0.3784,0.3967,0.3799,0.362,1.4854,1.5199,1.5553,1.5636,1.5856,1.6078,1.6323,1.6477,1.6609,1.6723,1.619,1.5731,1.5919,1.5176,1.4668,1.5158,1.5294,1.5126,1.4423,1.4529,1.4367,1.3439,1.3328,1.3016,1.2239,1.1913,0.0,1.0625,0.0,1.0331,0.9954,1.0293,1.0519,1.0573,1.1135,1.1353,1.1167,1.0706,1.0105,0.9359,0.9322,0.9322,0.9322,0.9322,0.9322,0.9359,0.9359,0.9359,0.9359,0.9359,0.9236,0.9079,0.9241,0.8975,0.8479,0.8665,0.8589,0.8403,0.8217,0.814,0.814,0.814,0.814,0.8102,0.788,0.7953,0.8025,0.7638,0.768,0.7804,0.7804,0.7804,0.7761,0.7561,0.7518,0.7484,0.7257,0.7373,0.7584,0.7768,0.7756,0.7625,0.7328,0.6664,0.6115,0.5921,0.5719,0.555,0.5425,0.5395,0.5326,0.5153,0.5113,0.4997,0.466,0.436,0.4157,0.4011,0.3749,0.361,0.361,0.361,0.3694,0.3833,0.386,0.3987,0.4247,0.4127,0.4107,0.4156,0.388,0.3734,1.5133,1.5457,1.5715,1.5338,1.5773,1.6256,1.6126,1.6207,1.6234,1.5958,1.5728,1.551,1.5345,1.5038,1.4945,1.5369,1.5266,1.507,1.4801,1.4732,1.4488,1.395,1.3777,1.3512,1.3165,1.2967,1.2415,0.0,1.07,1.0293,1.0331,1.0443,1.0901,1.1745,1.191,1.1986,1.1904,1.0988,1.0331,0.996,0.9657,0.9511,0.9511,0.9511,0.9695,0.996,0.996,1.0067,1.018,1.018,0.9992,0.969,0.9733,0.9468,0.9094,0.9132,0.9018,0.887,0.8941,0.8899,0.8775,0.8789,0.8756,0.8718,0.8369,0.8289,0.825,0.8025,0.7991,0.803,0.803,0.803,0.7987,0.7787,0.7829,0.7906,0.7672,0.7791,0.7893,0.7624,0.7254,0.6913,0.6674,0.6396,0.6079,0.5716,0.565,0.555,0.5425,0.5491,0.5517,0.5484,0.5387,0.5244,0.505,0.4515,0.4146,0.4005,0.3855,0.3744,0.3744,0.3858,0.407,0.4458,0.4518,0.4732,0.5088,0.5047,0.5048,0.5071,0.4834,0.4641,1.5795,1.6307,1.668,1.5994,1.6364,1.6779,1.6256,1.6056,1.5895,1.5528,1.5207,1.4977,1.5057,1.4913,1.4966,1.5459,1.5581,1.5536,1.5362,1.5365,1.518,1.4665,1.4409,1.4029,1.3441,1.3273,1.2826,0.0,1.1298,1.0925,1.0775,1.0925,1.1365,1.2093,1.2206,1.2137,1.1866,1.1221,1.07,1.0331,1.0105,0.9992,0.9992,0.9992,1.018,1.0475,0.0,1.0443,1.0625,1.0556,1.0368,1.0154,1.0193,0.9942,0.9559,0.9581,0.9441,0.9289,0.9397,0.943,0.9349,0.9208,0.9061,0.8946,0.8632,0.8513,0.8479,0.8178,0.8178,0.8217,0.8217,0.8289,0.8289,0.7983,0.8097,0.8136,0.7748,0.7906,0.8007,0.7699,0.7176,0.6714,0.6444,0.6295,0.6079,0.565,0.5617,0.5583,0.5488,0.5488,0.5521,0.5583,0.5477,0.5308,0.5087,0.4657,0.4319,0.4092,0.3965,0.3906,0.3965,0.4138,0.4432,0.4904,0.4967,0.5238,0.5737,0.5512,0.5435,0.5491,0.5223,0.5057,1.6784,1.7463,1.797,1.7081,1.7271,1.7409,1.647,1.5999,1.5668,1.5356,1.482,1.4493,1.4899,1.481,1.4853,1.5448,1.5861,1.6065,1.5904,1.6138,1.6044,1.5374,1.507,1.4533,1.3484,1.3346,1.3003,1.2261,1.2187,1.1929,1.1298,1.1595,1.1855,1.2077,1.2231,1.204,1.1484,1.1446,1.1149,1.0588,1.055,1.0513,1.0513,1.0513,1.0663,1.0812,1.0663,0.0,1.0887,1.07,1.0594,1.0579,1.0617,1.039,1.0035,1.0078,0.9898,0.9705,0.9705,0.9797,0.9846,0.9473,0.9246,0.9061,0.8822,0.8742,0.8703,0.8331,0.8331,0.8441,0.8479,0.8589,0.8627,0.8255,0.8327,0.8289,0.7791,0.7889,0.8014,0.7801,0.7247,0.6753,0.6444,0.6228,0.6013,0.565,0.5617,0.5617,0.5683,0.5524,0.5491,0.5617,0.5521,0.5312,0.5003,0.4806,0.4588,0.4294,0.4144,0.4138,0.431,0.4455,0.4795,0.5335,0.5338,0.5632,0.6212,0.5771,0.5618,0.5683,0.5352,0.5219,1.8233,1.8467,1.8374,1.7839,1.7848,1.7679,1.6352,1.6041,1.5903,1.5466,1.5031,1.475,1.4883,1.4654,1.4618,1.5112,1.5369,1.5618,1.5884,1.6144,1.6167,1.5727,1.5355,1.4955,1.4425,1.4093,1.3739,0.0,1.3236,1.29,1.212,1.2157,1.2298,1.2489,1.2378,1.215,1.1892,1.1744,1.1446,1.0999,1.0812,1.0663,1.0519,1.0663,1.085,1.1074,1.1186,0.0,1.1521,1.1335,1.1149,1.0992,1.0887,1.0806,1.0717,1.0567,1.0377,1.0213,1.0379,1.0209,0.9846,0.962,0.962,0.9657,0.9094,0.9056,0.9132,0.8908,0.8751,0.8665,0.8865,0.8784,0.8665,0.8627,0.8627,0.8627,0.8513,0.8154,0.781,0.7594,0.6963,0.6444,0.6279,0.5929,0.5683,0.5617,0.5617,0.5716,0.6046,0.5782,0.565,0.5822,0.5686,0.5513,0.5336,0.4924,0.469,0.4606,0.4478,0.4556,0.485,0.4836,0.5206,0.5997,0.6037,0.6125,0.6371,0.6433,0.6347,0.6079,0.5855,0.5855,1.9084,1.9522,1.9568,1.8645,1.8565,1.8323,1.6777,1.612,1.5684,1.5102,1.4492,1.4181,1.4526,1.4264,1.4244,1.5084,1.531,1.5554,1.6002,1.6196,1.6197,1.5991,1.5603,1.5177,1.4641,1.4389,1.4137,1.3848,1.3811,1.3521,1.2826,1.2673,1.2599,1.2599,1.2415,1.215,1.1855,1.1744,1.1558,1.126,1.1149,1.1074,1.0962,1.1186,1.1335,1.1409,1.1632,0.0,1.1855,1.1632,1.1446,1.1254,1.1118,1.1068,1.1058,1.0992,1.0884,1.0801,1.0763,1.06,1.0357,1.0035,0.9922,0.9846,0.9435,0.9246,0.9175,0.9289,0.9013,0.878,0.9094,0.9018,0.8822,0.8742,0.8627,0.8551,0.8551,0.8056,0.7593,0.7421,0.6937,0.6454,0.6094,0.5974,0.5848,0.5646,0.5782,0.598,0.6178,0.6046,0.5947,0.605,0.5885,0.5687,0.5562,0.5349,0.518,0.5058,0.5002,0.5089,0.5366,0.5498,0.5894,0.654,0.6576,0.6688,0.697,0.6773,0.6576,0.6317,0.6148,0.6115,1.9593,2.0268,2.0526,1.9415,1.9068,1.8618,1.7013,1.6048,1.528,1.4651,1.3973,1.3664,1.4259,1.3965,1.3947,1.497,1.529,1.5556,1.6005,1.6263,1.6324,1.6158,1.585,1.539,1.4784,1.4569,0.0,1.4165,1.4101,1.3848,1.3346,1.3083,1.29,1.2716,1.2452,1.212,1.1781,1.1669,1.1521,1.1335,1.1372,1.1409,1.1409,1.1632,1.1744,1.1781,1.1966,0.0,0.0,1.1855,1.1706,1.1596,1.1402,1.1384,1.1419,1.1451,1.145,1.1416,1.122,1.1043,1.0917,1.0515,1.0224,0.996,0.9695,0.9435,0.9322,0.9582,0.9279,0.8932,0.9322,0.9213,0.8946,0.8784,0.8632,0.8518,0.8403,0.7944,0.7494,0.7338,0.6945,0.6499,0.6051,0.6053,0.6046,0.5815,0.6046,0.628,0.6346,0.6313,0.6313,0.6313,0.6053,0.5869,0.5798,0.5756,0.5712,0.5617,0.5605,0.5716,0.5947,0.6207,0.6517,0.6909,0.6913,0.7007,0.7228,0.6839,0.6548,0.635,0.6247,0.6214,1.9767,2.0148,2.0271,1.9986,1.9009,1.7778,1.6467,1.5577,1.4912,1.4356,1.398,1.3938,1.4479,1.4041,1.3834,1.4555,1.5089,1.5442,1.5541,1.626,1.6628,1.6332,1.6132,1.5815,1.5204,1.4812,1.4533,1.4389,1.4036,1.379,1.3761,1.3382,1.3156,1.3163,1.2599,1.2194,1.1966,1.1595,1.1335,1.1149,1.1298,1.1409,1.1409,1.1781,1.1966,1.1966,1.2194,0.0,0.0,1.212,1.2077,1.221,1.1959,1.1964,1.2104,1.196,1.1947,1.1946,1.1922,1.1571,1.1179,1.1117,1.0827,1.0331,0.9771,0.9846,1.0067,0.9922,0.9582,0.9322,0.9733,0.9435,0.8984,0.8984,0.8946,0.8832,0.8479,0.8056,0.7673,0.7374,0.6837,0.6389,0.6213,0.605,0.602,0.6284,0.635,0.6486,0.6782,0.6745,0.6642,0.6642,0.6218,0.598,0.6125,0.5985,0.6018,0.6289,0.6306,0.6441,0.6786,0.6827,0.6863,0.6909,0.6913,0.6712,0.6309,0.6379,0.635,0.6214,0.6214,0.628,1.9767,2.0215,2.0281,1.9768,1.8899,1.7849,1.6574,1.5669,1.491,1.4173,1.3808,1.3787,1.4318,1.3865,1.3782,1.485,1.5012,1.5229,1.5942,1.6335,1.6529,1.6505,1.6342,1.5956,1.5275,0.0,1.4489,1.4245,1.4065,1.3928,1.3797,1.3419,1.32,1.32,1.2863,1.2526,1.2187,1.1892,1.1706,1.1632,1.1595,1.1632,1.1781,1.204,1.2114,1.2003,1.2342,0.0,0.0,1.2268,1.2269,1.2385,1.1989,1.2117,1.2472,1.2278,1.2295,1.2397,1.2242,1.2057,1.1813,1.1539,1.1198,1.0801,1.03,1.018,1.0218,1.04,0.9879,0.9435,0.996,0.9549,0.8984,0.8984,0.8903,0.8746,0.8479,0.8074,0.7717,0.7464,0.7031,0.6668,0.6523,0.6515,0.6515,0.6576,0.6745,0.6876,0.6913,0.6975,0.6942,0.6843,0.6548,0.6511,0.6773,0.6835,0.7016,0.7343,0.7353,0.7343,0.7264,0.7269,0.7274,0.7265,0.7138,0.7036,0.6966,0.6778,0.6646,0.6511,0.6379,0.635,1.9625,2.002,2.0132,1.9529,1.8613,1.7609,1.6631,1.5651,1.4779,1.4116,1.3775,1.3734,1.424,1.3816,1.375,1.4914,1.4826,1.5012,1.6073,1.6243,1.6342,1.6651,1.6368,1.5956,1.5426,1.5024,1.4618,1.4283,1.4202,1.41,1.4042,1.3623,1.3346,1.3309,1.3046,1.2746,1.2378,1.212,1.1966,1.1892,1.1818,1.1855,1.2003,1.2224,1.2261,1.2194,1.2489,0.0,0.0,1.2489,1.2597,1.2696,1.2318,1.2445,1.2785,1.2652,1.2716,1.2796,1.2575,1.247,1.2319,1.189,1.1546,1.1218,1.0871,1.0625,1.0513,1.0663,1.0143,0.962,0.996,0.9657,0.9251,0.9175,0.9051,0.8894,0.8551,0.8157,0.7801,0.7557,0.718,0.6876,0.6839,0.6876,0.6913,0.6975,0.7106,0.7171,0.7143,0.7171,0.7171,0.7143,0.7101,0.7167,0.7335,0.7466,0.7754,0.8214,0.8279,0.8209,0.8042,0.8069,0.7972,0.7717,0.7559,0.7428,0.733,0.704,0.6843,0.6708,0.6581,0.6486,1.928,1.9498,1.9666,1.9451,1.8097,1.6733,1.6465,1.5373,1.4365,1.4235,1.3974,1.3921,1.4318,1.3957,1.381,1.4502,1.4543,1.482,1.5688,1.5851,1.6155,1.6807,1.6263,1.5806,1.5797,1.545,1.5024,1.4636,1.4403,0.0,1.4598,1.4072,1.3717,1.3492,1.3119,1.2783,1.2599,1.2187,1.1892,1.1706,1.1892,1.2003,1.2003,1.2224,1.2415,1.2599,0.0,0.0,0.0,1.2973,1.3038,1.3269,1.3151,1.3059,1.3016,1.329,1.3264,1.3099,1.3038,1.2806,1.2527,1.2208,1.1765,1.1409,1.1372,1.126,1.0999,1.0625,1.0368,1.0105,0.9695,0.9733,0.9846,0.9657,0.9582,0.943,0.8818,0.8373,0.7974,0.7593,0.718,0.6979,0.7171,0.7045,0.7077,0.7601,0.74,0.7335,0.7666,0.74,0.7335,0.7666,0.7857,0.7922,0.7699,0.7699,0.8019,0.8738,0.8926,0.9081,0.9274,0.9396,0.9069,0.8204,0.8199,0.7749,0.6913,0.6913,0.6843,0.6708,0.6843,0.6716,1.8658,1.8755,1.8631,1.8493,1.7475,1.6416,1.6,1.5252,1.4495,1.4144,1.3911,1.3938,1.4395,1.3986,1.3954,1.5031,1.4899,1.4964,1.5879,1.6155,1.6336,1.6615,1.6334,1.6077,0.0,0.0,1.5016,1.4043,1.3955,1.394,1.3866,1.355,1.3492,1.3717,1.3572,1.3309,1.2826,1.2526,1.2305,1.2114,1.204,1.2077,1.2224,1.2415,1.2753,0.0,0.0,0.0,0.0,1.3065,1.3075,1.3307,1.3204,1.3214,1.3273,1.3168,1.3032,1.2853,1.2724,1.2595,1.2512,1.2417,1.2163,1.1859,1.1701,1.1489,1.126,1.0962,1.0775,1.0513,1.0105,0.9846,0.9695,0.962,0.9511,0.9359,0.9165,0.8785,0.8443,0.8165,0.7855,0.7629,0.7563,0.7596,0.7694,0.7889,0.7824,0.7792,0.7889,0.7824,0.7884,0.8204,0.8301,0.8398,0.8565,0.8786,0.9139,0.96,0.9664,0.9594,0.946,0.9128,0.8844,0.8603,0.8242,0.8052,0.7992,0.7759,0.7433,0.7036,0.6843,0.6644,1.7839,1.7888,1.7763,1.7696,1.7011,1.6226,1.5872,1.526,1.4653,1.4208,1.396,1.3973,1.4395,1.3945,1.3946,1.521,1.494,1.4969,1.6164,1.6261,1.6239,1.63,1.6426,0.0,0.0,1.5605,1.51,1.4043,1.4119,1.408,1.3815,1.3696,1.3739,1.3891,1.3754,1.3455,1.301,1.29,1.2716,1.2526,1.2335,1.2342,1.2526,1.2489,1.2776,0.0,0.0,0.0,0.0,1.3407,1.3337,1.3407,1.3386,1.336,1.3391,1.3313,1.3187,1.3015,1.2864,1.2785,1.2772,1.2583,1.2318,1.2056,1.1904,1.1589,1.1298,1.1335,1.1074,1.07,1.04,1.0067,0.9809,0.9733,0.962,0.9511,0.9435,0.9082,0.876,0.8553,0.8228,0.7987,0.7884,0.7954,0.8052,0.8187,0.8084,0.8019,0.8079,0.8144,0.8301,0.8651,0.8877,0.9134,0.9466,0.9556,0.9748,1.0079,1.0277,1.0264,1.0064,0.9728,0.9587,0.9606,0.8918,0.8679,0.8876,0.8229,0.7694,0.7297,0.6942,0.6713,0.0,1.6994,1.7086,1.7129,1.6681,1.615,1.59,1.5389,0.0,1.4397,1.4129,1.4046,1.4369,1.3923,1.3894,1.5105,1.4781,1.4887,1.6455,1.622,1.5975,1.6107,1.6575,0.0,1.5374,1.549,1.5351,1.4489,1.4706,1.4717,1.4336,1.4379,1.4317,1.4129,1.3746,1.3419,1.32,1.32,1.3083,1.29,1.2709,1.2709,1.29,1.2526,1.2686,0.0,0.0,0.0,0.0,1.3902,1.3861,1.362,1.362,1.3509,1.3427,1.3689,1.3604,1.3386,1.3303,1.3282,1.3195,1.2769,1.2342,1.2003,1.204,1.1632,1.126,1.1632,1.1298,1.0812,1.0594,1.0368,1.018,0.996,0.9922,0.9884,0.9657,0.9296,0.8971,0.8765,0.8363,0.8079,0.8172,0.8112,0.8149,0.8479,0.8262,0.8138,0.829,0.8495,0.8738,0.9133,0.961,1.0027,1.0398,1.0111,1.0034,1.0334,1.0797,1.1055,1.1055,1.1002,1.0962,1.0908,1.0011,0.9512,0.9466,0.8324,0.7661,0.7489,0.7106,0.6905,1.6114,0.0,1.6699,1.6603,1.6423,1.6098,0.0,1.5372,1.5305,1.4527,1.445,1.4513,1.4553,1.4477,1.4581,1.5186,1.5046,1.5151,1.6105,1.6181,1.6426,1.7211,1.7076,1.6872,1.6846,1.6546,1.595,1.4995,1.4783,1.4543,1.4317,1.4312,1.4382,1.4497,1.4129,1.3702,1.32,1.32,1.3083,1.29,1.2863,1.2863,1.29,1.2973,1.3292,0.0,0.0,0.0,1.4477,1.4298,1.408,1.3899,1.3665,1.3558,1.348,1.3414,1.3351,1.3214,1.307,1.3005,1.2991,1.2884,1.2562,1.2261,1.2415,1.2268,1.2003,1.1966,1.1706,1.1409,1.1037,1.07,1.0368,1.018,1.0255,1.0255,0.9922,0.9592,0.9292,0.8971,0.8633,0.8344,0.8236,0.8306,0.8447,0.8705,0.8827,0.9003,0.9296,0.9575,0.9969,1.0615,1.0784,1.1054,1.1565,1.1213,1.0986,1.1058,1.137,1.1533,1.1533,1.1042,1.0895,1.1121,1.0409,0.9769,0.9259,0.8624,0.809,0.7629,0.7302,0.7057,1.5955,1.6009,1.6038,1.6037,1.6135,1.6039,1.5262,1.5574,1.5718,1.4653,1.4681,1.4882,1.4888,1.4828,1.4971,1.552,1.5571,1.5682,1.6213,1.6565,1.6874,1.7032,1.6949,1.6929,0.0,1.6606,1.6027,1.5289,1.503,1.474,1.4453,1.4597,1.4633,1.4497,1.4317,1.3992,1.3499,1.3382,1.3273,1.3156,1.3083,1.3083,1.3156,1.3083,1.3438,0.0,0.0,0.0,1.4948,1.4995,1.4729,1.4238,1.3998,1.3807,1.363,1.346,1.338,1.3309,1.32,1.3119,1.3046,1.3046,1.282,1.2562,1.2599,1.2599,1.2489,1.2114,1.1781,1.1484,1.1186,1.085,1.0588,1.0406,1.0368,1.0293,1.0067,0.9774,0.9471,0.9291,0.8996,0.8771,0.8813,0.8902,0.9041,0.9243,0.9547,0.9832,0.9996,1.0442,1.0886,1.1299,1.1471,1.1669,1.1983,1.1921,1.175,1.1504,1.1813,1.1943,1.1804,1.1442,1.1173,1.096,1.067,1.0095,0.9255,0.8739,0.8284,0.7829,0.7493,0.7274,1.608,1.58,1.558,1.5669,1.6033,1.6195,1.5548,1.5945,1.6101,1.4858,1.4873,1.5138,1.5212,1.5144,1.5307,1.602,1.6231,1.6367,1.6567,1.7031,1.7143,1.6527,1.6688,0.0,1.6846,1.64,1.6,1.5704,1.5463,1.5169,1.4784,1.5098,1.507,1.4569,1.4497,1.4289,1.3935,1.3645,1.3528,1.3535,1.3382,1.3382,1.3564,1.3229,1.3542,1.4351,0.0,0.0,1.521,1.5684,1.5428,1.4637,1.4426,1.4141,1.3826,1.3608,1.3564,1.3535,1.3587,1.3492,1.3346,1.336,1.3199,1.2936,1.2746,1.2746,1.2709,1.2194,1.1781,1.1446,1.1223,1.0999,1.0812,1.0588,1.0443,1.0331,1.0218,0.9874,0.9624,0.9612,0.9357,0.9213,0.9469,0.9537,0.9607,0.9852,1.0253,1.0549,1.0612,1.1218,1.1674,1.1743,1.1985,1.2171,1.2255,1.2466,1.2366,1.1922,1.2241,1.2302,1.1906,1.187,1.1512,1.0736,1.0789,1.0312,0.93,0.8754,0.8317,0.7922,0.7619,0.7521,1.6232,1.6246,1.6239,1.6193,1.6626,1.6908,1.641,1.6487,1.636,1.5315,1.5149,1.5203,1.527,1.5626,1.6067,1.6586,1.6982,1.7148,0.0,0.0,1.6866,1.7191,0.0,1.688,1.7486,1.7085,1.6809,1.6913,0.0,1.585,1.562,1.5655,1.5584,1.5355,1.5007,1.4721,1.4461,1.3819,1.3608,1.3761,1.3717,1.3819,1.4029,1.3949,1.413,1.4584,0.0,1.5397,1.5547,1.5817,1.5568,1.5004,1.4675,1.4355,1.4029,1.3826,1.3761,1.3791,1.4096,1.4073,1.3994,1.4089,1.3815,1.3382,1.3156,1.2783,1.2378,1.2268,1.2077,1.1818,1.1446,1.1186,1.0999,1.0812,1.085,1.0812,1.0331,1.0149,0.9999,0.9681,0.9381,0.9238,0.9462,0.9637,0.9869,1.0269,1.0702,1.1165,1.162,1.1981,1.2353,1.2869,1.2832,1.2931,1.331,1.3112,1.2887,1.2801,1.2795,1.2566,1.1913,1.1721,1.1352,1.0816,1.0625,1.0119,0.9203,0.8739,0.8182,0.7587,0.7526,0.7559,1.6191,1.608,1.599,1.6063,1.6554,1.6866,1.6218,1.6368,1.6427,1.5631,1.5614,1.5803,1.6009,1.6149,1.6389,1.6929,1.7048,1.7078,1.7163,1.6667,1.6519,0.0,0.0,1.69,1.7629,1.7298,1.7107,0.0,0.0,0.0,1.607,1.607,1.5894,1.5497,1.5213,1.4892,1.4497,1.4065,1.3884,1.3964,1.3964,1.3992,1.4093,1.4093,1.4458,1.5041,0.0,1.5795,1.6216,1.6444,1.6198,1.5662,1.5203,1.475,1.4309,1.393,1.3863,1.4009,1.4335,1.4303,1.4147,1.4372,1.4387,1.4163,1.3755,1.3518,1.3287,1.2839,1.2239,1.1632,1.1446,1.126,1.1074,1.0962,1.0962,1.085,1.0588,1.0319,1.012,0.9955,0.9785,0.9801,1.0153,1.0351,1.0641,1.1044,1.1548,1.1982,1.2146,1.257,1.2907,1.3116,1.306,1.2993,1.2966,1.2908,1.2842,1.2682,1.2502,1.2208,1.177,1.165,1.137,1.0933,1.063,1.0126,0.9352,0.8788,0.8252,0.7754,0.7587,0.7559,1.6109,1.5887,1.569,1.5675,1.6128,1.6458,1.5911,1.6087,1.6283,1.5931,1.5938,1.6157,1.6718,1.674,1.6769,1.7093,1.7038,1.7058,1.7335,1.683,1.6635,1.7142,1.6988,1.7132,1.779,1.7467,1.7234,0.0,0.0,0.0,1.6377,1.6342,1.6096,1.5709,1.5461,1.5141,1.4721,1.4425,1.4245,1.4173,1.4173,1.4201,1.4201,1.4201,1.4644,1.5418,1.5524,1.5951,1.6621,1.6855,1.6685,1.6181,1.5762,1.52,1.4564,1.4099,1.4036,1.4227,1.4687,1.4684,1.4504,1.4923,1.513,1.5067,1.4502,1.4366,1.4216,1.3582,1.2607,1.1706,1.1595,1.1446,1.1298,1.126,1.1074,1.0925,1.0887,1.0549,1.0253,1.0254,1.029,1.04,1.0815,1.1074,1.1335,1.1632,1.2179,1.2536,1.2426,1.2851,1.3172,1.3094,1.3002,1.2783,1.2401,1.2557,1.2548,1.2298,1.2017,1.1769,1.1592,1.1478,1.124,1.087,1.06,1.0094,0.9396,0.8829,0.8349,0.7922,0.7624,0.7591,1.6039,1.604,1.5809,1.5136,1.5339,1.576,1.6023,1.5903,1.5878,1.6274,1.5831,1.5724,1.6944,1.7451,1.7522,1.7025,1.7214,1.7569,1.7906,0.0,1.7596,1.8057,1.784,1.7802,1.8239,1.7617,0.0,0.0,0.0,0.0,1.6568,1.6403,1.6272,1.6237,1.5929,1.5726,1.5691,1.5114,1.4685,1.4397,1.4397,1.4425,1.4569,1.4569,1.4912,1.5494,1.5325,1.5654,1.6341,1.6473,1.6439,1.6275,1.625,1.5583,1.4565,1.4405,1.4361,1.4483,1.5328,1.5525,1.5535,1.6215,1.627,1.5926,1.5442,1.4957,1.4531,1.4291,1.354,1.2673,1.2114,1.1966,1.1892,1.1706,1.1484,1.1298,1.1111,1.0907,1.072,1.0513,1.0614,1.0832,1.1031,1.1409,1.1669,1.1706,1.2093,1.2395,1.2414,1.2648,1.2896,1.3081,1.2764,1.246,1.2305,1.2261,1.2154,1.1936,1.163,1.1475,1.1592,1.1109,1.0731,1.0466,1.0374,0.9906,0.9049,0.8867,0.8414,0.7731,0.7559,0.7657,1.5463,1.5278,1.4966,1.4267,1.4077,1.4322,1.5428,1.5613,1.5762,1.6444,1.642,1.6432,1.692,1.7394,1.7574,1.7221,1.7149,1.7323,1.7906,1.7495,1.7473,1.8338,1.8114,1.7991,1.8282,0.0,0.0,0.0,0.0,0.0,1.7141,1.6968,1.6795,1.67,1.6246,1.5938,1.5805,1.5328,1.5026,1.4883,1.4756,1.4677,1.4605,1.4848,1.5158,1.5499,1.5499,1.5822,1.6289,1.6352,1.6489,1.6593,1.6515,1.5858,1.5012,1.5327,1.5388,1.5373,1.5962,1.6017,1.5913,1.6556,1.6717,1.6522,1.6083,1.5799,1.5465,1.4652,1.4132,1.3622,1.2636,1.2194,1.1966,1.1744,1.1558,1.1372,1.1298,1.1149,1.0962,1.0887,1.1037,1.1223,1.1446,1.1595,1.1781,1.204,1.2263,1.2408,1.2465,1.2607,1.2679,1.2682,1.2111,1.1915,1.2277,1.1868,1.1728,1.2004,1.1577,1.1253,1.1115,1.0868,1.0552,1.0147,1.004,0.9638,0.8861,0.8705,0.8349,0.7889,0.7824,0.7917,1.5015,1.4631,1.4176,1.3583,1.3168,1.3246,1.4669,1.5106,1.5492,1.6528,1.7068,1.7236,1.6952,1.7381,1.7672,0.0,1.7244,1.7382,1.8076,1.7632,1.7624,1.8641,1.8389,1.8228,1.8453,0.0,0.0,0.0,0.0,0.0,0.0,1.7382,1.7245,1.7081,1.6551,1.6202,1.6035,1.5568,1.5275,1.5275,1.5106,1.4927,1.4812,1.5062,1.53,1.5511,1.5539,1.5761,1.6146,1.6333,1.6633,1.7027,1.6839,1.631,1.5682,1.6045,1.607,1.6013,1.6524,1.6573,1.6503,1.7173,1.7369,1.7327,1.6941,1.6704,1.6385,1.5344,1.4856,1.4421,1.339,1.282,1.2415,1.2231,1.1929,1.1669,1.1669,1.1484,1.1298,1.1298,1.1409,1.1558,1.1744,1.1855,1.2005,1.2326,1.2477,1.2498,1.2453,1.2482,1.2422,1.218,1.169,1.1573,1.2034,1.1553,1.1438,1.184,1.1467,1.1166,1.1077,1.074,1.04,1.0058,0.9841,0.9408,0.8802,0.8679,0.8409,0.8047,0.8019,0.8079,1.4803,1.4192,1.3596,1.3191,1.2734,1.2698,1.3847,1.4317,1.4963,1.6565,1.7606,1.7922,1.7073,1.7562,1.8005,1.7648,1.7672,1.7886,1.8414,1.8212,1.8269,1.8998,1.8741,1.8573,1.8774,0.0,0.0,0.0,0.0,0.0,0.0,1.7588,1.7505,1.7505,1.6925,1.6603,1.6603,1.5885,1.5505,1.5505,1.5311,1.5204,1.5204,1.5204,1.5311,1.5497,1.5284,1.5434,1.5857,1.637,1.697,1.7466,1.7288,1.6943,1.656,1.6408,1.6324,1.6412,1.7005,1.7218,1.7355,1.816,1.8402,1.8353,1.8072,1.7615,1.7055,1.6448,1.5791,1.5057,1.4475,1.392,1.3455,1.3236,1.2746,1.2305,1.2305,1.2003,1.1706,1.1706,1.1706,1.1781,1.1966,1.2157,1.2337,1.2458,1.2668,1.2667,1.2323,1.2367,1.2192,1.1742,1.1635,1.1596,1.1596,1.142,1.1322,1.1397,1.1145,1.1188,1.1588,1.0775,1.0268,1.0207,0.9728,0.9268,0.8802,0.8802,0.8603,0.8204,0.8079,0.8079,1.3198,1.2659,1.2314,1.2374,1.2507,1.2849,1.382,1.4706,1.5841,1.7575,1.7975,1.7991,1.7957,1.7953,0.0,1.8088,1.7867,1.7944,1.8607,1.8405,1.8472,1.9142,1.9042,1.8875,0.0,0.0,0.0,0.0,0.0,0.0,0.0,1.794,1.7803,1.7647,1.695,1.6603,1.6603,1.5991,1.5726,1.5726,1.5655,1.5461,1.5204,1.5355,1.5426,1.5513,1.5882,1.6028,1.606,1.6741,1.7121,1.7315,1.7624,1.7358,1.6864,1.7344,1.7369,1.7191,1.7454,1.7629,1.7814,1.8238,1.8273,1.8149,1.8258,1.7682,1.6898,1.6478,1.5923,1.5289,1.4852,1.4497,1.4101,1.3375,1.2746,1.2342,1.2489,1.2305,1.2157,1.2305,1.2452,1.2599,1.2826,1.274,1.2683,1.2847,1.2625,1.2294,1.1937,1.1844,1.1734,1.1453,1.137,1.1433,1.1736,1.125,1.1224,1.1867,1.1286,1.1012,1.1188,1.048,1.0094,1.0045,0.9598,0.9177,0.8802,0.8802,0.8821,0.8915,0.8679,0.8723,1.3017,1.2288,1.1757,1.2192,1.2591,1.3281,1.4776,1.566,1.6518,1.7738,1.7999,1.8029,1.8222,1.82,0.0,1.8263,1.8226,1.8293,1.8741,1.864,1.8707,1.9252,1.9108,1.8903,0.0,0.0,0.0,0.0,0.0,0.0,0.0,1.8269,1.8066,1.7954,1.7226,1.6846,1.6846,1.6272,1.6008,1.6008,1.5938,1.5823,1.563,1.5603,1.5611,1.5628,1.61,1.6417,1.6703,1.7132,1.7462,1.7708,1.802,1.7806,1.7385,1.7829,1.7846,1.7723,1.7906,1.8072,1.8193,1.8514,1.8523,1.843,1.8587,1.816,1.7492,1.6991,1.645,1.5911,1.5295,1.4935,1.4533,1.3731,1.3222,1.29,1.2863,1.2746,1.2673,1.2826,1.2826,1.2826,1.3046,1.3017,1.2952,1.2916,1.2593,1.2216,1.1843,1.1717,1.1618,1.1519,1.1473,1.1459,1.1516,1.1169,1.1112,1.153,1.1077,1.0907,1.1061,1.0432,1.0107,1.0153,0.9545,0.9189,0.9064,0.8931,0.8953,0.9153,0.8816,0.8848,1.3552,1.255,1.1709,1.2427,1.3014,1.3983,1.6289,1.6841,1.6978,1.7424,1.7833,1.8139,1.8196,1.8367,1.8516,1.8405,1.864,1.8841,1.8841,1.8841,1.8975,1.9241,1.9011,1.8682,0.0,0.0,0.0,0.0,0.0,0.0,0.0,1.8472,1.8269,1.8236,1.7579,1.7201,1.7166,1.6586,1.6307,1.6307,1.6167,1.6167,1.6272,1.5938,1.5822,1.5884,1.6044,1.6668,1.7574,1.7539,1.7867,1.8434,1.8442,1.8282,1.808,1.808,1.808,1.8121,1.8362,1.8482,1.8563,1.8882,1.9002,1.9042,1.9042,1.8825,1.8448,1.7734,1.7194,1.663,1.5718,1.5213,1.4792,1.4238,1.3964,1.3717,1.3346,1.3266,1.3236,1.3236,1.2973,1.2783,1.2936,1.3104,1.3158,1.2853,1.2603,1.2334,1.196,1.1832,1.1768,1.1792,1.1805,1.1618,1.1161,1.1085,1.097,1.0817,1.0711,1.0837,1.1187,1.0571,1.0294,1.0437,0.9616,0.9303,0.9543,0.9178,0.9063,0.9119,0.8772,0.8728,1.1589,1.1216,1.1217,1.2513,1.3785,1.5065,1.647,1.6687,1.6919,1.8108,1.8429,1.8561,1.8859,1.8813,1.8808,1.9042,1.9042,1.9075,1.9175,1.9175,1.9218,1.9285,1.8971,0.0,0.0,0.0,0.0,0.0,0.0,0.0,1.8405,1.8337,1.8168,1.7842,1.7407,1.7132,1.6978,1.6517,1.6307,0.0,1.6272,1.6272,1.6272,1.5938,1.6031,1.6434,1.6201,1.6899,1.8148,1.7692,1.8059,1.8843,1.8692,1.8612,1.8531,1.8531,1.8652,1.8763,1.8692,1.8931,1.928,1.9082,1.9112,1.9222,1.9222,1.8658,1.7947,1.7672,1.7048,1.6334,1.5463,1.5204,1.4991,1.4461,1.4072,1.3826,1.3884,1.3783,1.3681,1.3681,1.3608,1.3572,1.3608,1.3548,1.3362,1.2857,1.257,1.2278,1.189,1.1778,1.1746,1.1782,1.1746,1.165,1.1522,1.1007,1.0923,1.1438,1.0849,1.0662,1.1119,1.0585,1.041,1.0701,1.0175,0.9829,0.9753,0.9794,0.9702,0.9425,0.9473,0.9519,1.1681,1.1418,1.1511,1.3282,1.4394,1.5432,1.6651,1.6752,1.683,1.784,1.8079,1.8238,1.8651,1.868,1.867,1.872,1.8996,1.9168,1.9112,1.9368,1.9454,1.9134,1.888,0.0,0.0,0.0,0.0,0.0,0.0,1.8841,1.8539,1.8448,1.8236,1.7862,1.752,1.7245,1.7038,1.6726,1.6595,1.6595,1.6691,1.6751,1.683,1.6281,1.6351,1.6883,1.6606,1.7198,1.8374,1.8155,1.8434,1.9002,1.9002,1.8922,1.8851,1.8851,1.8922,1.9002,1.9002,1.9121,1.932,1.928,1.9359,1.9429,1.9429,1.9094,1.8539,1.7879,1.7342,1.6757,1.5755,1.5346,1.5098,1.4605,1.4289,1.4072,1.3964,1.3863,1.3797,1.3797,1.3717,1.3645,1.3645,1.3446,1.3156,1.2898,1.2639,1.241,1.2209,1.2079,1.2031,1.2187,1.194,1.1683,1.1438,1.1108,1.1028,1.133,1.103,1.1063,1.156,1.1275,1.1003,1.0761,1.0414,1.0195,1.0136,1.0052,0.9893,0.9633,0.954,0.9491,1.2173,1.2126,1.2308,1.4065,1.4866,1.5505,1.6548,1.6613,1.661,1.7102,1.7373,1.7665,1.8218,1.8463,1.8532,1.8271,1.8906,1.9314,1.8967,1.9437,1.9598,1.8977,1.867,0.0,0.0,0.0,0.0,0.0,0.0,1.9062,1.8897,1.8737,1.8463,1.8094,1.7783,1.7539,1.7311,1.7072,1.6974,1.7009,1.7135,1.7314,1.7486,1.6821,1.6821,1.727,1.7038,1.7545,1.8517,1.8581,1.8805,1.9121,1.9271,1.9231,1.9121,1.9161,1.9161,1.9152,1.9311,1.9311,1.928,1.9527,1.9645,1.9724,1.9685,1.9597,1.9303,1.8179,1.7708,1.7241,1.6065,1.5476,1.5135,1.4685,1.4508,1.4323,1.3979,1.3899,1.3899,1.3863,1.3645,1.3499,1.3564,1.3236,1.2973,1.2973,1.2826,1.2673,1.2673,1.2526,1.2489,1.2636,1.2308,1.1901,1.1467,1.1406,1.1375,1.1263,1.1353,1.1634,1.2116,1.1989,1.1562,1.0828,1.0677,1.0601,1.055,1.0239,1.0017,0.9852,0.955,0.9412,1.1219,1.2318,1.3545,1.4047,1.498,1.5745,1.5581,1.5774,1.6109,0.0,1.6766,1.7306,1.8296,1.8753,1.8953,1.8818,1.9469,1.9738,1.8998,1.921,1.9326,1.8945,1.8179,0.0,0.0,0.0,0.0,0.0,1.8654,1.9189,1.9246,1.9229,1.893,1.8348,1.8321,1.8091,1.7714,1.7352,1.7252,1.7413,1.7265,1.7442,1.7906,1.7647,1.7569,1.7604,1.7304,1.7819,1.8894,1.8378,1.871,1.9527,1.9557,1.9557,1.9527,1.9715,1.9784,1.9745,1.9597,1.9794,2.0069,1.9715,1.9872,2.0147,1.9942,1.9627,1.9176,1.8311,1.7682,1.6991,1.5833,1.5472,1.5219,1.4568,1.4506,1.4535,1.4351,1.4325,1.4289,1.4101,1.3775,1.3572,1.3717,1.3572,1.3346,1.3193,1.3119,1.3046,1.2863,1.2826,1.282,1.2856,1.2792,1.2639,1.2339,1.2311,1.2333,1.2291,1.2001,1.1948,1.2268,1.1761,1.1428,1.1317,1.1465,1.1261,1.0775,1.0895,1.0654,1.0153,1.0443,1.0236,1.1776,1.2718,1.3587,1.4234,1.477,1.5181,1.5177,1.5187,1.5304,1.5763,1.5912,1.6427,1.7951,1.8358,1.8431,1.826,1.8829,1.9169,1.875,1.881,1.8841,1.8686,1.8074,0.0,0.0,0.0,0.0,0.0,1.8604,1.9126,1.9075,1.9175,1.9079,1.8738,1.8627,1.836,1.7961,1.7679,1.751,1.7481,1.7492,1.7716,1.8178,1.8259,1.8259,1.8134,1.7794,1.8206,1.9095,1.8885,1.9089,1.9645,1.9872,1.9912,1.9794,2.0029,2.0108,2.0108,2.0029,1.996,1.9912,1.9951,1.9951,1.9912,2.0069,1.9902,1.9466,1.8728,1.8058,1.7351,1.6278,1.5666,1.5186,1.4788,1.4651,1.4569,1.4529,1.4353,1.4201,1.4129,1.3956,1.3819,1.379,1.3819,1.3783,1.3564,1.3455,1.3382,1.3382,1.3119,1.2973,1.32,1.3006,1.2842,1.277,1.2763,1.2763,1.2657,1.2534,1.2499,1.2629,1.2157,1.1932,1.1954,1.1565,1.1186,1.0812,1.0887,1.0754,1.0359,1.0619,1.0491,1.2009,1.2639,1.32,1.3894,1.43,1.4543,1.4759,1.4652,1.4673,0.0,1.5088,1.5405,1.7059,1.7518,1.7562,1.7326,1.7998,1.8533,1.8389,1.8405,1.8405,1.8405,1.7986,0.0,0.0,0.0,0.0,0.0,1.8631,1.9063,1.9123,1.9298,1.9301,1.9084,1.8994,1.8751,1.8421,1.8137,1.7861,1.7552,1.7705,1.7988,1.8371,1.8707,1.8808,1.8674,1.8347,1.8661,1.9413,1.9314,1.9457,1.9794,2.0147,2.0225,2.0098,2.0303,2.0381,2.0342,2.0225,2.0029,1.9843,2.0029,1.9951,1.9833,2.0108,2.002,1.97,1.9027,1.8393,1.7674,1.6818,1.6021,1.5388,1.5125,1.492,1.4754,1.4609,1.4346,1.4165,1.4165,1.4129,1.4065,1.3971,1.4029,1.4057,1.3891,1.3746,1.3674,1.379,1.3419,1.3229,1.3455,1.3172,1.3027,1.3204,1.3204,1.3169,1.3133,1.3064,1.3046,1.2973,1.2637,1.2379,1.2304,1.1702,1.1258,1.0994,1.096,1.0887,1.0738,1.0875,1.0858,1.0949,1.164,1.2538,1.2597,1.3421,1.4177,1.4001,1.4132,1.4446,1.4927,1.456,1.4461,1.544,1.6212,1.6552,1.624,1.7323,1.8184,1.8039,1.8139,1.8221,1.8221,1.7696,0.0,0.0,0.0,0.0,0.0,1.8857,1.9178,1.9735,1.9814,1.9675,1.9298,1.9453,1.9453,1.9237,1.8835,1.8336,1.7673,1.7883,1.8178,1.8516,1.8908,1.9142,1.9252,1.8908,1.9249,2.0001,1.9449,1.9635,2.0264,2.0303,2.042,2.0566,2.0566,2.0566,2.0527,2.0098,2.0069,2.0186,1.9754,1.9912,2.0225,1.999,1.9794,1.9513,1.9124,1.8412,1.7728,1.7289,1.667,1.604,1.5585,1.5396,1.5194,1.4538,1.4389,1.4397,1.4397,1.4245,1.4165,1.4325,1.4209,1.4093,1.4093,1.4093,1.3992,1.3826,1.3754,1.3681,1.3528,1.3484,1.3542,1.3731,1.3768,1.3833,1.4034,1.3695,1.3382,1.3193,1.2917,1.2523,1.2035,1.2113,1.1902,1.1471,1.1389,1.1372,1.1372,1.1545,1.1511,1.1639,1.2049,1.2367,1.2332,1.2905,1.3442,1.3181,1.3468,1.3804,1.3878,1.3936,1.3991,1.409,1.4985,1.5695,1.5678,1.6355,1.7034,1.7304,1.7657,1.7874,1.7874,1.7747,0.0,0.0,0.0,0.0,0.0,0.0,1.8765,1.9025,1.9469,1.9686,1.9686,1.9927,1.9828,1.9313,1.8648,1.8201,1.796,1.8006,1.8144,1.8371,1.8741,1.9042,1.9285,1.9075,1.949,2.0288,1.9919,2.0046,2.0498,2.0625,2.0654,2.0605,2.0605,2.0693,2.0741,2.045,2.0216,2.0069,2.0216,2.0137,2.0069,2.0294,2.0294,2.0148,1.9713,1.9114,1.8457,1.7752,1.7111,1.646,1.5683,1.5381,1.5126,1.4624,1.4533,1.4533,1.4533,1.4461,1.4453,1.4533,1.4461,1.4418,1.4418,1.4353,1.4209,1.4029,1.3899,1.3826,1.3884,1.3884,1.3992,1.4289,1.4317,1.4317,1.4281,1.4029,1.3739,1.3419,1.3042,1.2798,1.2654,1.228,1.1947,1.164,1.1459,1.1484,1.1595,1.1521,1.1471,1.1621,1.1783,1.1926,1.2018,1.2295,1.2601,1.2729,1.2957,1.3144,1.3212,1.3434,1.3499,1.3199,1.3866,1.4584,1.4876,1.5436,1.6055,1.675,1.72,1.745,1.744,1.7521,0.0,0.0,0.0,0.0,0.0,0.0,0.0,1.8547,1.9061,1.9528,1.9902,2.0159,2.0013,1.9419,1.8863,1.8443,1.8167,1.8174,1.8247,1.8303,1.8707,1.9091,1.9481,1.9471,1.983,2.0385,2.017,2.039,2.0809,2.0858,2.0896,2.0876,2.0683,2.077,2.0935,2.0489,2.0216,2.0059,2.0216,2.0177,2.0069,2.0294,2.0411,2.0411,1.9942,1.9454,1.8934,1.8356,1.7616,1.6787,1.5959,1.5486,1.5098,1.4784,1.4641,1.4605,1.4605,1.4628,1.4707,1.4787,1.4743,1.467,1.4715,1.454,1.4281,1.4029,1.4036,1.4109,1.4165,1.4238,1.4382,1.4669,1.4597,1.4497,1.4461,1.4426,1.4159,1.3653,1.3595,1.3438,1.312,1.2759,1.2423,1.2114,1.1781,1.1669,1.1781,1.1744,1.1595,0.0,0.0,0.0,1.1593,1.1586,1.1731,1.2672,0.0,1.2499,1.2981,1.3036,1.2935,1.2849,1.2956,1.3276,1.3887,1.4591,1.5418,1.6338,1.6792,1.6981,1.6939,1.7096,0.0,0.0,0.0,0.0,0.0,1.8441,1.8482,1.8482,1.8745,1.9203,1.9883,2.014,2.0079,1.9599,1.9592,1.9174,1.8304,1.8517,1.8487,1.8303,1.8852,1.9334,1.9803,2.0157,2.0351,2.0405,2.0237,2.0548,2.1167,2.0984,2.1128,2.1425,2.0799,2.0848,2.1089,2.0216,2.0108,2.0225,1.9803,1.996,2.0264,1.9981,2.0108,2.0225,1.9764,1.9338,1.8999,1.9012,1.8106,1.707,1.6463,1.5766,1.5166,1.496,1.4737,1.4593,1.4621,1.4707,1.4867,1.5144,1.4987,1.4822,1.486,1.4608,1.4253,1.3863,1.4253,1.4497,1.431,1.4453,1.4669,1.4867,1.4605,1.4477,1.4621,1.4807,1.4621,1.3944,1.455,1.4388,1.3376,1.3656,1.3509,1.2914,1.2305,1.2003,1.2003,1.2187,1.1972,1.1563,0.0,0.0,0.0,0.0,0.0,0.0,0.0,1.1724,1.2611,1.263,1.2664,1.3219,1.3068,1.3044,1.3563,1.4043,1.478,1.5954,1.6812,1.733,1.7394,1.7413,1.7337,0.0,0.0,0.0,0.0,1.8098,1.8236,1.7954,1.8398,1.9069,1.9883,1.9811,1.9908,2.0098,1.9611,1.9193,1.8802,1.8526,1.8348,1.8313,1.8758,1.9186,1.9616,2.0135,2.0575,2.0917,2.099,2.1083,2.1205,2.1128,2.1099,2.1022,2.0731,2.077,2.0945,2.0537,2.0372,2.0303,2.0333,2.0411,2.0489,2.0411,2.0576,2.0625,1.999,1.9748,1.9526,1.8935,1.8114,1.7244,1.6665,1.5994,1.5407,1.5115,1.4952,1.4865,1.4766,1.476,1.4785,1.4755,1.4793,1.47,1.4379,1.438,1.4253,1.3863,1.3935,1.4008,1.3935,1.4008,1.4145,1.4489,1.4697,1.4846,1.503,1.5175,1.5096,1.4781,1.4768,1.4587,1.4178,1.4033,1.3791,1.3461,1.2634,1.2231,1.2224,1.1966,1.1633,1.2136,1.1799,1.1527,1.1762,0.0,0.0,1.1933,1.1721,1.1558,0.0,1.2196,1.2268,1.2679,1.2637,1.2625,1.2985,1.3317,1.3986,1.5346,1.6239,1.6889,1.7127,1.7175,1.7169,0.0,1.7298,1.7422,1.755,1.8165,1.845,1.8321,1.8707,1.9255,1.9995,2.0022,2.0159,2.0411,1.9937,1.9573,1.9264,1.8795,1.855,1.8444,1.876,1.9189,1.9717,2.037,2.1016,2.1516,2.1654,2.1597,2.1425,2.1282,2.1167,2.1128,2.0722,2.0731,2.0867,2.0576,2.042,2.0303,2.0459,2.0527,2.0605,2.0605,2.0693,2.0664,2.0059,1.9706,1.939,1.8851,1.7992,1.7171,1.6927,1.6179,1.5535,1.5479,1.5386,1.5196,1.4957,1.492,1.4981,1.5027,1.4981,1.4874,1.4645,1.4576,1.4418,1.4126,1.4276,1.4402,1.4338,1.4425,1.4546,1.4721,1.4893,1.5069,1.5181,1.5458,1.5482,1.516,1.5138,1.4993,1.4813,1.4628,1.4361,1.3967,1.3084,1.2599,1.2415,1.1929,1.1496,1.2696,1.2125,1.1678,1.2034,0.0,0.0,1.1846,1.1781,1.166,0.0,1.1762,1.1807,1.182,1.1969,1.2152,1.2402,1.2614,1.3249,1.4713,1.545,1.6007,1.6495,1.6613,1.6764,1.7106,1.7382,1.7598,1.7713,1.8354,1.8822,1.9088,1.9235,1.9551,2.0086,2.0417,2.0556,2.0605,2.042,2.0091,1.962,1.9254,1.8894,1.8607,1.8907,1.9373,1.9949,2.0822,2.1537,2.2063,2.2063,2.1959,2.1731,2.1359,2.1282,2.1349,2.0799,2.0693,2.0829,2.0469,2.0342,2.0342,2.0342,2.045,2.0605,2.0605,2.0566,2.045,1.9981,1.939,1.8922,1.8732,1.7848,1.7051,1.722,1.6423,1.5713,1.5996,1.5885,1.5638,1.521,1.5227,1.532,1.5536,1.5408,1.5233,1.5203,1.4887,1.4608,1.4452,1.4834,1.5072,1.4956,1.5131,1.5223,1.5122,1.519,1.5245,1.5237,1.5701,1.5757,1.5252,1.5535,1.555,1.526,1.5262,1.498,1.4389,1.3549,1.2973,1.2636,1.2003,1.1502,1.4187,1.3796,1.3368,0.0,0.0,0.0,1.2033,1.1384,1.1013,0.0,1.1723,1.1587,1.242,1.2287,1.2145,1.2511,1.2781,1.3453,1.4933,1.5196,1.5681,1.6863,1.6629,0.0,1.6762,1.7092,1.728,1.7226,1.7831,1.8251,1.8466,1.8964,1.9296,1.9468,2.0001,2.0396,2.0595,2.042,2.0169,1.9837,1.9618,1.9174,1.8627,1.9528,1.9916,1.997,2.1151,2.1725,2.1845,2.1845,2.1731,2.154,2.1282,2.1041,2.076,2.0644,2.0605,2.0654,2.0566,2.0527,2.0527,2.0527,2.0566,2.0605,2.0605,2.0498,2.0225,1.9578,1.9112,1.8692,1.8523,1.8129,1.7709,1.7487,1.6954,1.6453,1.6395,1.6213,1.6011,1.5889,1.5802,1.5663,1.5416,1.5456,1.5325,1.4754,1.4482,1.4312,1.4115,1.4074,1.4028,1.3814,1.4273,1.4568,1.4577,1.5184,1.5586,1.5518,1.6006,1.6096,1.5636,1.5662,1.5662,1.5595,1.5382,1.518,1.4934,1.3465,1.2753,1.2826,1.2077,1.1684,0.0,0.0,0.0,1.3736,0.0,0.0,0.0,1.1934,1.1409,1.2154,1.1718,1.1464,1.2287,1.2095,1.1913,1.2244,1.246,1.2917,1.3843,1.4484,1.5263,1.6373,1.634,0.0,1.6658,1.7105,1.7509,1.778,1.7876,1.8265,1.8968,1.9117,1.9409,1.9885,1.9991,2.0241,2.0595,2.0489,2.042,2.0407,1.9954,1.9707,1.9598,2.0014,2.0279,2.0459,2.1394,2.1845,2.1959,2.1959,2.1769,2.1474,2.1167,2.1064,2.1027,2.0722,2.0654,2.0741,2.0741,2.0741,2.0741,2.0741,2.0615,2.045,2.045,2.0137,1.9706,1.9152,1.8763,1.8531,1.8442,1.8023,1.7598,1.759,1.7191,1.6798,1.6798,1.6774,1.6656,1.6451,1.6432,1.6314,1.5787,1.5665,1.5523,1.5157,1.4961,1.4766,1.4479,1.4396,1.4282,1.4059,1.4214,1.4402,1.4477,1.5134,1.5536,1.5505,1.5988,1.6072,1.5733,1.5616,1.5665,1.5906,1.5582,1.5532,1.5631,1.4125,1.3323,1.3131,1.2419,1.1974,0.0,0.0,0.0,0.0,0.0,1.3795,0.0,0.0,0.0,1.2336,1.1899,0.0,0.0,0.0,0.0,0.0,0.0,0.0,0.0,1.3708,0.0,1.5451,1.5752,0.0,1.6404,1.7029,1.7668,1.8268,1.8092,1.8408,1.9403,1.939,1.9692,2.038,2.021,2.0279,2.0644,2.0693,2.077,2.0906,2.0377,2.0311,2.0599,2.0537,2.0639,2.0954,2.1573,2.1911,2.2025,2.1997,2.1821,2.1509,2.1129,2.1114,2.1253,2.0771,2.0731,2.0906,2.0867,2.0867,2.0867,2.079,2.0547,2.0225,2.0186,1.9745,1.9231,1.8922,1.8603,1.8402,1.8402,1.7897,1.7426,1.7673,1.7401,1.7068,1.7196,1.7302,1.727,1.6902,1.6976,1.6894,1.6286,1.5955,1.5741,1.5692,1.5489,1.5177,1.4849,1.4794,1.4687,1.4426,1.4335,1.4378,1.4557,1.5067,1.5389,1.5389,1.5834,1.5955,1.5658,1.5499,1.5631,1.6004,1.582,1.5836,1.6101,1.4964,1.413,1.3567,1.2923,1.2396,0.0,0.0,0.0,0.0,1.5183,0.0,0.0,0.0,1.3525,1.2647,0.0,0.0,0.0,0.0,0.0,0.0,0.0,0.0,1.314,1.3411,1.3709,1.4164,1.4753,0.0,0.0,1.6318,1.7038,1.7561,1.7951,1.8282,1.8526,1.9424,1.9996,2.0134,2.0504,2.0752,2.0858,2.1051,2.1051,2.0906,2.1001,2.0885,2.0609,2.1322,2.1367,2.0954,2.1724,2.1997,2.1807,2.1655,2.1659,2.1738,2.1317,2.0994,2.0713,2.0625,2.0731,2.0867,2.0693,2.0741,2.0829,2.0469,2.0186,1.9902,1.9715,1.9508,1.9301,1.9222,1.8834,1.8402,1.8402,1.8167,1.7908,1.7942,1.7796,1.76,1.7651,1.7505,1.7392,1.731,1.718,1.6927,1.6443,1.6203,1.5955,1.5733,1.5297,1.4842,1.4567,1.4429,1.4178,1.3697,1.409,1.44,1.4433,1.503,1.5389,1.5304,1.5794,1.588,1.5465,1.5582,1.5692,1.5733,1.5918,1.5944,1.5764,1.543,1.4944,1.4282,1.3487,1.2876,0.0,0.0,0.0,0.0,0.0,0.0,1.4425,0.0,1.3982,0.0,0.0,0.0,0.0,0.0,0.0,0.0,1.2316,0.0,0.0,0.0,1.3151,0.0,0.0,0.0,0.0,0.0,0.0,0.0,1.7379,1.7895,1.8648,1.8918,1.9484,2.042,2.0349,2.0528,2.1089,2.1177,2.1205,2.1244,2.1205,2.1229,2.1312,2.1649,2.1666,2.1463,2.1914,2.1997,2.1807,2.1693,2.1653,2.1612,2.1314,2.1162,2.1076,2.0869,2.0896,2.1051,2.0838,2.076,2.0615,2.0069,1.9833,1.9676,1.9359,1.9192,1.9112,1.8962,1.8683,1.8402,1.8402,1.8201,1.8,1.8,1.8113,1.8184,1.8069,1.8246,1.8297,1.783,1.7697,1.7458,1.6885,1.6409,1.6079,1.6105,1.5538,1.5016,1.4884,1.4531,1.4238,1.403,1.4036,1.4181,1.4497,1.5067,1.5389,1.5351,1.5665,1.5665,1.5257,1.5409,1.5526,1.5526,1.5546,1.5677,1.5914,1.5279,1.4968,1.484,1.398,1.3221,1.9091,0.0,0.0,0.0,0.0,0.0,0.0,0.0,0.0,0.0,0.0,0.0,0.0,0.0,0.0,0.0,0.0,1.242,0.0,0.0,0.0,0.0,0.0,0.0,0.0,0.0,0.0,0.0,0.0,1.7473,1.8658,1.8575,1.9104,2.0481,2.0211,2.0396,2.109,2.1221,2.1359,2.1502,2.1359,2.1464,2.1807,2.1911,2.1911,2.1883,2.2101,2.2063,2.1883,2.1807,2.1693,2.1512,2.1359,2.1357,2.1441,2.0976,2.0935,2.1089,2.0838,2.0566,2.0255,1.9764,1.9557,1.9478,1.932,1.9152,1.9073,1.8971,1.8732,1.8482,1.8402,1.8319,1.8209,1.8017,1.8363,1.8612,1.8303,1.854,1.8692,1.8121,1.7904,1.7697,1.718,1.6574,1.6173,1.6195,1.568,1.5217,1.4919,1.4585,1.438,1.432,1.4072,1.4111,1.4639,1.4998,1.5211,1.5358,1.5423,1.5308,1.5124,1.5155,1.5228,1.527,1.5238,1.5355,1.5731,1.5127,1.4844,1.4939,1.4234,1.3539,0.0,0.0,0.0,1.8444,0.0,0.0,0.0,0.0,1.6093,0.0,0.0,0.0,0.0,0.0,0.0,1.2805,0.0,0.0,0.0,0.0,0.0,0.0,0.0,0.0,0.0,0.0,1.5108,0.0,1.6423,0.0,1.8158,1.8512,1.9099,2.0009,2.0274,2.0514,2.0802,2.125,2.1502,2.1502,2.1502,2.1617,2.1807,2.2214,2.2289,2.2101,2.2289,2.2289,2.2073,2.1883,2.1693,2.1502,2.1502,2.1474,2.1446,2.0848,2.0731,2.0867,2.0469,2.0029,1.9645,1.9606,1.9469,1.9381,1.9745,1.9578,1.9341,1.9518,1.913,1.866,1.8442,1.869,1.88,1.8166,1.8504,1.8809,1.8134,1.8025,1.8034,1.8017,1.7693,1.7367,1.7139,1.6722,1.6203,1.5685,1.5591,1.5268,1.4426,1.4471,1.4476,1.4132,1.4093,1.4304,1.4828,1.4726,1.4782,1.518,1.4924,1.4852,1.5103,1.4789,1.4712,1.4915,1.5087,1.5058,1.4768,1.4971,1.4843,1.4328,1.4156,1.3888,0.0,0.0,2.1004,2.001,0.0,0.0,0.0,0.0,0.0,0.0,0.0,0.0,0.0,0.0,1.3405,1.2632,1.2446,0.0,0.0,0.0,0.0,0.0,0.0,0.0,0.0,0.0,0.0,0.0,1.5571,0.0,0.0,1.7832,1.8548,1.9978,2.0018,2.0168,2.055,2.1003,2.124,2.124,2.1549,2.1731,2.1807,2.2214,2.2289,2.2101,2.2327,2.2365,2.2289,2.2063,2.1949,2.1873,2.1769,2.155,2.1282,2.1079,2.1051,2.1012,2.0264,1.9833,1.9566,1.9429,1.9429,1.9518,1.9676,1.9715,1.9666,1.9469,1.9161,1.8843,1.8652,1.8781,1.89,1.8377,1.8809,1.9165,1.8527,1.848,1.8465,1.8253,1.783,1.7351,1.679,1.6469,1.6141,1.5839,1.5464,1.5118,1.4908,1.4709,1.4551,1.4433,1.4533,1.482,1.5245,1.551,1.5599,1.5481,1.5103,1.4881,1.4845,1.4332,1.4275,1.4691,1.4594,1.465,1.4917,1.4584,1.4499,1.4606,1.4134,1.3762,2.2604,2.2298,0.0,2.0889,2.0351,0.0,1.8184,0.0,1.7157,0.0,0.0,0.0,0.0,0.0,0.0,1.2581,1.2378,0.0,0.0,1.2275,0.0,0.0,0.0,0.0,0.0,0.0,1.4193,1.4863,1.5162,0.0,0.0,0.0,1.8342,1.9625,1.9744,2.001,2.0385,2.0704,2.1022,2.1261,2.1473,2.1617,2.1693,2.2101,2.2214,2.2101,2.2327,2.2365,2.2289,2.2214,2.2101,2.1987,2.1911,2.1655,2.1282,2.1138,2.1012,2.0809,2.0225,1.9833,1.9597,1.9548,1.9508,1.9518,1.9566,1.9636,1.9578,1.9192,1.9033,1.8922,1.8652,1.8894,1.9088,1.853,1.8924,1.9232,1.8551,1.8421,1.8356,1.8112,1.759,1.6992,1.6493,1.6063,1.5748,1.5561,1.5342,1.5145,1.4993,1.4892,1.4812,1.4812,1.4864,1.4997,1.5178,1.5507,1.5607,1.5264,1.4857,1.4529,1.4398,1.4067,1.4063,1.4352,1.4332,1.4426,1.466,1.4344,1.4353,1.4636,1.4208,1.3935]}]]